[[{"header":{"parameterUnit":"m.s-1","parameterCategory":1,"la1":30.6,"la2":28.766,"lo1":-90.7593,"lo2":-88.6598,"dy":0.0162,"dx":0.0183,"nx":116,"ny":114,"refTime":"2023-07-11T12:00:00:Z","depth":0,"parameterNumber":2,"parameterNumberName":"U-component_of_WINDS"},"data":[0.0,0.0,0.0,0.0,0.0,0.0,0.0,0.0,0.0,0.0,0.0,0.0,0.0,0.0,0.0,0.0,0.0,0.0,0.0,0.0,0.0,0.0,0.0,0.0,0.0,0.0,0.0,0.0,0.0,0.0,0.0,0.0,0.0,0.0,0.0,0.0,0.0,0.0,0.0,0.0,0.0,0.0,0.0,0.0,0.0,0.0,0.0,0.0,0.0,0.0,0.0,0.0,0.0,0.0,0.0,0.0,0.0,0.0,0.0,0.0,0.0,0.0,0.0,0.0,0.0,0.0,0.0,0.0,0.0,0.0,0.0,0.0,0.0,0.0,0.0,0.0,0.0,0.0,0.0,0.0,0.0,0.0,0.0,0.0,0.0,0.0,0.0,0.0,0.0,0.0,0.0,0.0,0.0,0.0,0.0,0.0,0.0,0.0,0.0,0.0,0.0,0.0,0.0,0.0,0.0,0.0,0.0,0.0,0.0,0.0,0.0,0.0,0.0,0.0,0.0,0.0,0.0,0.0,0.0,0.0,0.0,0.0,0.0,0.0,0.0,0.0,0.0,0.0,0.0,0.0,0.0,0.0,0.0,0.0,0.0,0.0,0.0,0.0,0.0,0.0,0.0,0.0,0.0,0.0,0.0,0.0,0.0,0.0,0.0,0.0,0.0,0.0,0.0,0.0,0.0,0.0,0.0,0.0,0.0,0.0,0.0,0.0,0.0,0.0,0.0,0.0,0.0,0.0,0.0,0.0,0.0,0.0,0.0,0.0,0.0,0.0,0.0,0.0,0.0,0.0,0.0,0.0,0.0,0.0,0.0,0.0,0.0,0.0,0.0,0.0,0.0,0.0,0.0,0.0,0.0,0.0,0.0,0.0,0.0,0.0,0.0,0.0,0.0,0.0,0.0,0.0,0.0,0.0,0.0,0.0,0.0,0.0,0.0,0.0,0.0,0.0,0.0,0.0,0.0,0.0,0.0,0.0,0.0,0.0,0.0,0.0,0.0,0.0,0.0,0.0,0.0,0.0,0.0,0.0,0.0,0.0,0.0,0.0,0.0,0.0,0.0,0.0,0.0,0.0,0.0,0.0,0.0,0.0,0.0,0.0,0.0,0.0,0.0,0.0,0.0,0.0,0.0,0.0,0.0,0.0,0.0,0.0,0.0,0.0,0.0,0.0,0.0,0.0,0.0,0.0,0.0,0.0,0.0,0.0,0.0,0.0,0.0,0.0,0.0,0.0,0.0,0.0,0.0,0.0,0.0,0.0,0.0,0.0,0.0,0.0,0.0,0.0,0.0,0.0,0.0,0.0,0.0,0.0,0.0,0.0,0.0,0.0,0.0,0.0,0.0,0.0,0.0,0.0,0.0,0.0,0.0,0.0,0.0,0.0,0.0,0.0,0.0,0.0,0.0,0.0,0.0,0.0,0.0,0.0,0.0,0.0,0.0,0.0,0.0,0.0,0.0,0.0,0.0,0.0,0.0,0.0,0.0,0.0,0.0,0.0,0.0,0.0,0.0,0.0,0.0,0.0,0.0,0.0,0.0,0.0,0.0,0.0,0.0,0.0,0.0,0.0,0.0,0.0,0.0,0.0,0.0,0.0,0.0,0.0,0.0,0.0,0.0,0.0,0.0,0.0,0.0,0.0,0.0,0.0,0.0,0.0,0.0,0.0,0.0,0.0,0.0,0.0,0.0,0.0,0.0,0.0,0.0,0.0,0.0,0.0,0.0,0.0,0.0,0.0,0.0,0.0,0.0,0.0,0.0,0.0,0.0,0.0,0.0,0.0,0.0,0.0,0.0,0.0,0.0,0.0,0.0,0.0,0.0,0.0,0.0,0.0,0.0,0.0,0.0,0.0,0.0,0.0,0.0,0.0,0.0,0.0,0.0,0.0,0.0,0.0,0.0,0.0,0.0,0.0,0.0,0.0,0.0,0.0,0.0,0.0,0.0,0.0,0.0,0.0,0.0,0.0,0.0,0.0,0.0,0.0,0.0,0.0,0.0,0.0,0.0,0.0,0.0,0.0,0.0,0.0,0.0,0.0,0.0,0.0,0.0,0.0,0.0,0.0,0.0,0.0,0.0,0.0,0.0,0.0,0.0,0.0,0.0,0.0,0.0,0.0,0.0,0.0,0.0,0.0,0.0,0.0,0.0,0.0,0.0,0.0,0.0,0.0,0.0,0.0,0.0,0.0,0.0,0.0,0.0,0.0,0.0,0.0,0.0,0.0,0.0,0.0,0.0,0.0,0.0,0.0,0.0,0.0,0.0,0.0,0.0,0.0,0.0,0.0,0.0,0.0,0.0,0.0,0.0,0.0,0.0,0.0,0.0,0.0,0.0,0.0,0.0,0.0,0.0,0.0,0.0,0.0,0.0,0.0,0.0,0.0,0.0,0.0,0.0,0.0,0.0,0.0,0.0,0.0,0.0,0.0,0.0,0.0,0.0,0.0,0.0,0.0,0.0,0.0,0.0,0.0,0.0,0.0,0.0,0.0,0.0,0.0,0.0,0.0,0.0,0.0,0.0,0.0,0.0,0.0,0.0,0.0,0.0,0.0,0.0,0.0,0.0,0.0,0.0,0.0,0.0,0.0,0.0,0.0,0.0,0.0,0.0,0.0,0.0,0.0,0.0,0.0,0.0,0.0,0.0,0.0,0.0,0.0,0.0,0.0,0.0,0.0,0.0,0.0,0.0,0.0,0.0,0.0,0.0,0.0,0.0,0.0,0.0,0.0,0.0,0.0,0.0,0.0,0.0,0.0,0.0,0.0,0.0,0.0,0.0,0.0,0.0,0.0,0.0,0.0,0.0,0.0,0.0,0.0,0.0,0.0,0.0,0.0,0.0,0.0,0.0,0.0,0.0,0.0,0.0,0.0,0.0,0.0,0.0,0.0,0.0,0.0,0.0,0.0,0.0,0.0,0.0,0.0,0.0,0.0,0.0,0.0,0.0,0.0,0.0,0.0,0.0,0.0,0.0,0.0,0.0,0.0,0.0,0.0,0.0,0.0,0.0,0.0,0.0,0.0,0.0,0.0,0.0,0.0,0.0,0.0,0.0,0.0,0.0,0.0,0.0,0.0,0.0,0.0,0.0,0.0,0.0,0.0,0.0,0.0,0.0,0.0,0.0,0.0,0.0,0.0,0.0,0.0,0.0,0.0,0.0,0.0,0.0,0.0,0.0,0.0,0.0,0.0,0.0,0.0,0.0,0.0,0.0,0.0,0.0,0.0,0.0,0.0,0.0,0.0,0.0,0.0,0.0,0.0,0.0,0.0,0.0,0.0,0.0,0.0,0.0,0.0,0.0,0.0,0.0,0.0,0.0,0.0,0.0,0.0,0.0,0.0,0.0,0.0,0.0,0.0,0.0,0.0,0.0,0.0,0.0,0.0,0.0,0.0,0.0,0.0,0.0,0.0,0.0,0.0,0.0,0.0,0.0,0.0,0.0,0.0,0.0,0.0,0.0,0.0,0.0,0.0,0.0,0.0,0.0,0.0,0.0,0.0,0.0,0.0,0.0,0.0,0.0,0.0,0.0,0.0,0.0,0.0,0.0,0.0,0.0,0.0,0.0,0.0,0.0,0.0,0.0,0.0,0.0,0.0,0.0,0.0,0.0,0.0,0.0,0.0,0.0,0.0,0.0,0.0,0.0,0.0,0.0,0.0,0.0,0.0,0.0,0.0,0.0,0.0,0.0,0.0,0.0,0.0,0.0,0.0,0.0,0.0,0.0,0.0,0.0,0.0,0.0,0.0,0.0,0.0,0.0,0.0,0.0,0.0,0.0,0.0,0.0,0.0,0.0,0.0,0.0,0.0,0.0,0.0,0.0,0.0,0.0,0.0,0.0,0.0,0.0,0.0,0.0,0.0,0.0,0.0,0.0,0.0,0.0,0.0,0.0,0.0,0.0,0.0,0.0,0.0,0.0,0.0,0.0,0.0,0.0,0.0,0.0,0.0,0.0,0.0,0.0,0.0,0.0,0.0,0.0,0.0,0.0,0.0,0.0,0.0,0.0,0.0,0.0,0.0,0.0,0.0,0.0,0.0,0.0,0.0,0.0,0.0,0.0,0.0,0.0,0.0,0.0,0.0,0.0,0.0,0.0,0.0,0.0,0.0,0.0,0.0,0.0,0.0,0.0,0.0,0.0,0.0,0.0,0.0,0.0,0.0,0.0,0.0,0.0,0.0,0.0,0.0,0.0,0.0,0.0,0.0,0.0,0.0,0.0,0.0,0.0,0.0,0.0,0.0,0.0,0.0,0.0,0.0,0.0,0.0,0.0,0.0,0.0,0.0,0.0,0.0,0.0,0.0,0.0,0.0,0.0,0.0,0.0,0.0,0.0,0.0,0.0,0.0,0.0,0.0,0.0,0.0,0.0,0.0,0.0,0.0,0.0,0.0,0.0,0.0,0.0,0.0,0.0,0.0,0.0,0.0,0.0,0.0,0.0,0.0,0.0,0.0,0.0,0.0,0.0,0.0,0.0,0.0,0.0,0.0,0.0,0.0,0.0,0.0,0.0,0.0,0.0,0.0,0.0,0.0,0.0,0.0,0.0,0.0,0.0,0.0,0.0,0.0,0.0,0.0,0.0,0.0,0.0,0.0,0.0,0.0,0.0,0.0,0.0,0.0,0.0,0.0,0.0,0.0,0.0,0.0,0.0,0.0,0.0,0.0,0.0,0.0,0.0,0.0,0.0,0.0,0.0,0.0,0.0,0.0,0.0,0.0,0.0,0.0,0.0,0.0,0.0,0.0,0.0,0.0,0.0,0.0,0.0,0.0,0.0,0.0,0.0,0.0,0.0,0.0,0.0,0.0,0.0,0.0,0.0,0.0,0.0,0.0,0.0,0.0,0.0,0.0,0.0,0.0,0.0,0.0,0.0,0.0,0.0,0.0,0.0,0.0,0.0,0.0,0.0,0.0,0.0,0.0,0.0,0.0,0.0,0.0,0.0,0.0,0.0,0.0,0.0,0.0,0.0,0.0,0.0,0.0,0.0,0.0,0.0,0.0,0.0,0.0,0.0,0.0,0.0,0.0,0.0,0.0,0.0,0.0,0.0,0.0,0.0,0.0,0.0,0.0,0.0,0.0,0.0,0.0,0.0,0.0,0.0,0.0,0.0,0.0,0.0,0.0,0.0,0.0,0.0,0.0,0.0,0.0,0.0,0.0,0.0,0.0,0.0,0.0,0.0,0.0,0.0,0.0,0.0,0.0,0.0,0.0,0.0,0.0,0.0,0.0,0.0,0.0,0.0,0.0,0.0,0.0,0.0,0.0,0.0,0.0,0.0,0.0,0.0,0.0,0.0,0.0,0.0,0.0,0.0,0.0,0.0,0.0,0.0,0.0,0.0,0.0,0.0,0.0,0.0,0.0,0.0,0.0,0.0,0.0,0.0,0.0,0.0,0.0,0.0,0.0,0.0,0.0,0.0,0.0,0.0,0.0,0.0,0.0,0.0,0.0,0.0,0.0,0.0,0.0,0.0,0.0,0.0,0.0,0.0,0.0,0.0,0.0,0.0,0.0,0.0,0.0,0.0,0.0,0.0,0.0,0.0,0.0,0.0,0.0,0.0,0.0,0.0,0.0,0.0,0.0,0.0,0.0,0.0,0.0,0.0,0.0,0.0,0.0,0.0,0.0,0.0,0.0,0.0,0.0,0.0,0.0,0.0,0.0,0.0,0.0,0.0,0.0,0.0,0.0,0.0,0.0,0.0,0.0,0.0,0.0,0.0,0.0,0.0,0.0,0.0,0.0,0.0,0.0,0.0,0.0,0.0,0.0,0.0,0.0,0.0,0.0,0.0,0.0,0.0,0.0,0.0,0.0,0.0,0.0,0.0,0.0,0.0,0.0,0.0,0.0,0.0,0.0,0.0,0.0,0.0,0.0,0.0,0.0,0.0,0.0,0.0,0.0,0.0,0.0,0.0,0.0,0.0,0.0,0.0,0.0,0.0,0.0,0.0,0.0,0.0,0.0,0.0,0.0,0.0,0.0,0.0,0.0,0.0,0.0,0.0,0.0,0.0,0.0,0.0,0.0,0.0,0.0,0.0,0.0,0.0,0.0,0.0,0.0,0.0,0.0,0.0,0.0,0.0,0.0,0.0,0.0,-0.5854,-0.5775,0.0,0.0,0.0,0.0,0.0,0.0,0.0,0.0,0.0,0.0,0.0,0.0,0.0,0.0,0.0,0.0,0.0,0.0,0.0,0.0,0.0,0.0,0.0,0.0,0.0,0.0,0.0,0.0,0.0,0.0,0.0,0.0,0.0,0.0,0.0,0.0,0.0,0.0,0.0,0.0,0.0,0.0,0.0,0.0,0.0,0.0,0.0,0.0,0.0,0.0,0.0,0.0,0.0,0.0,0.0,0.0,0.0,0.0,0.0,0.0,0.0,0.0,0.0,0.0,0.0,0.0,0.0,0.0,0.0,0.0,0.0,0.0,0.0,0.0,0.0,0.0,0.0,0.0,0.0,0.0,0.0,0.0,0.0,0.0,0.0,0.0,0.0,0.0,0.0,0.0,0.0,0.0,0.0,0.0,0.0,0.0,0.0,0.0,0.0,0.0,0.0,0.0,0.0,0.0,0.0,0.0,0.0,0.0,0.0,0.0,0.0,0.0,0.0,0.0,-0.587,-0.5867,0.0,0.0,0.0,0.0,0.0,0.0,0.0,0.0,0.0,0.0,0.0,0.0,0.0,0.0,0.0,0.0,0.0,0.0,0.0,0.0,0.0,0.0,0.0,0.0,0.0,0.0,0.0,0.0,0.0,0.0,0.0,0.0,0.0,0.0,0.0,0.0,0.0,0.0,0.0,0.0,0.0,0.0,0.0,0.0,0.0,0.0,0.0,0.0,0.0,0.0,0.0,0.0,0.0,0.0,0.0,0.0,0.0,0.0,0.0,0.0,0.0,0.0,0.0,0.0,0.0,0.0,0.0,0.0,0.0,0.0,0.0,0.0,0.0,0.0,0.0,0.0,0.0,0.0,0.0,0.0,0.0,0.0,0.0,0.0,0.0,0.0,0.0,0.0,0.0,0.0,0.0,0.0,0.0,0.0,0.0,0.0,0.0,0.0,0.0,0.0,0.0,0.0,0.0,0.0,0.0,0.0,0.0,0.0,-0.5852,-0.5861,-0.5861,-0.5786,-0.6022,-0.6339,-0.5943,-0.6149,-0.6637,-0.6328,0.0,0.0,0.0,0.0,0.0,0.0,0.0,0.0,0.0,0.0,0.0,0.0,0.0,0.0,0.0,0.0,0.0,0.0,0.0,0.0,0.0,0.0,0.0,0.0,0.0,0.0,0.0,0.0,0.0,0.0,0.0,0.0,0.0,0.0,0.0,0.0,0.0,0.0,-0.7896,-0.7931,-0.7991,-0.8089,0.0,0.0,0.0,0.0,0.0,0.0,0.0,0.0,0.0,0.0,0.0,0.0,0.0,0.0,0.0,0.0,0.0,0.0,0.0,0.0,0.0,0.0,0.0,0.0,0.0,0.0,0.0,0.0,0.0,0.0,0.0,0.0,0.0,0.0,0.0,0.0,0.0,0.0,0.0,0.0,0.0,0.0,0.0,0.0,-0.6309,-0.6384,0.0,0.0,0.0,0.0,0.0,0.0,0.0,0.0,0.0,0.0,0.0,0.0,0.0,-0.587,-0.6261,-0.6383,-0.6524,-0.6925,-0.682,-0.6798,-0.6798,-0.6641,-0.6558,-0.6641,-0.6558,0.0,-0.6865,-0.7173,0.0,0.0,0.0,0.0,0.0,0.0,0.0,0.0,0.0,0.0,0.0,0.0,0.0,0.0,0.0,0.0,0.0,0.0,0.0,0.0,0.0,0.0,0.0,0.0,0.0,0.0,0.0,0.0,0.0,0.0,0.0,0.0,0.0,0.0,0.0,0.0,-0.7586,-0.7535,-0.6967,-0.7084,-0.7068,-0.7068,-0.7068,-0.7596,-0.8376,-0.8565,0.0,0.0,0.0,0.0,0.0,0.0,0.0,0.0,0.0,0.0,0.0,0.0,0.0,0.0,0.0,0.0,0.0,0.0,0.0,0.0,0.0,0.0,0.0,0.0,0.0,0.0,0.0,0.0,0.0,0.0,0.0,0.0,0.0,0.0,0.0,0.0,0.0,0.0,0.0,-0.6549,-0.6523,-0.6738,-0.6607,-0.6591,0.0,0.0,0.0,0.0,0.0,0.0,0.0,0.0,0.0,-0.6849,-0.6537,-0.6502,-0.6666,-0.6737,-0.6812,-0.6982,-0.7045,-0.7028,-0.7028,-0.6946,-0.6949,-0.6949,-0.6949,-0.6956,-0.6986,-0.7134,-0.7144,-0.6987,0.0,0.0,0.0,0.0,-0.7112,-0.7504,0.0,0.0,0.0,0.0,0.0,0.0,0.0,0.0,0.0,0.0,0.0,0.0,0.0,0.0,0.0,-0.9365,0.0,0.0,0.0,0.0,0.0,0.0,0.0,0.0,0.0,0.0,0.0,0.0,-0.7736,-0.7412,-0.6668,-0.6876,-0.7038,-0.7087,-0.7087,-0.7295,-0.7717,-0.7972,-0.8096,0.0,0.0,0.0,0.0,0.0,0.0,0.0,0.0,0.0,0.0,0.0,0.0,0.0,0.0,0.0,0.0,0.0,0.0,0.0,0.0,0.0,0.0,0.0,0.0,0.0,0.0,0.0,0.0,0.0,0.0,0.0,0.0,0.0,0.0,0.0,0.0,0.0,0.0,-0.6771,-0.6726,-0.7017,-0.6912,-0.6843,0.0,0.0,0.0,0.0,0.0,0.0,-0.7247,-0.6846,-0.6789,-0.7152,-0.7026,-0.7021,-0.7059,-0.7049,-0.7041,-0.7044,-0.7187,-0.7258,-0.7258,-0.7217,-0.7221,-0.7255,-0.7217,-0.7221,-0.7234,-0.719,-0.7231,-0.7235,-0.7231,-0.7228,-0.7147,-0.7066,-0.726,-0.7635,0.0,0.0,0.0,0.0,0.0,0.0,0.0,0.0,0.0,0.0,0.0,0.0,0.0,0.0,-0.8489,-0.8806,-0.8577,-0.8497,0.0,0.0,0.0,0.0,0.0,0.0,0.0,0.0,0.0,-0.8115,-0.7365,-0.7223,-0.7803,-0.8353,-0.8743,-0.8948,-0.8948,-0.8225,-0.6924,-0.699,-0.706,-0.733,0.0,0.0,0.0,0.0,0.0,0.0,0.0,0.0,0.0,0.0,0.0,0.0,0.0,0.0,0.0,0.0,0.0,0.0,0.0,0.0,0.0,0.0,0.0,0.0,0.0,0.0,0.0,0.0,0.0,0.0,0.0,0.0,0.0,0.0,0.0,0.0,0.0,0.0,0.0,-0.7157,-0.7165,0.0,0.0,0.0,0.0,-0.6942,-0.701,-0.7179,-0.7414,-0.7089,-0.7163,-0.7484,-0.7079,-0.6983,-0.7115,-0.7272,-0.735,-0.735,-0.7502,-0.7577,-0.757,-0.7424,-0.7441,-0.7567,-0.7421,-0.7441,-0.7553,-0.7696,-0.7471,-0.7119,-0.7562,-0.7738,-0.7738,-0.7738,-0.8101,-0.8595,0.0,0.0,0.0,0.0,0.0,0.0,0.0,0.0,0.0,0.0,0.0,0.0,0.0,-0.882,-0.842,-0.8778,-0.857,-0.8497,-0.8791,0.0,0.0,0.0,0.0,0.0,0.0,0.0,-0.8998,-0.8578,-0.8549,-0.8414,-0.8248,-0.8595,-0.8842,-0.892,-0.8353,-0.778,-0.716,-0.7436,-0.7588,-0.7645,-0.7377,-0.7461,0.0,0.0,0.0,0.0,0.0,0.0,0.0,0.0,0.0,0.0,0.0,0.0,0.0,0.0,0.0,0.0,0.0,0.0,0.0,0.0,0.0,0.0,0.0,0.0,0.0,0.0,0.0,0.0,0.0,0.0,0.0,0.0,0.0,0.0,0.0,0.0,0.0,-0.7019,-0.6872,0.0,-0.7096,-0.734,-0.7383,-0.7178,-0.7252,-0.7344,-0.7261,-0.7253,-0.733,-0.7474,-0.7399,-0.7383,-0.7434,-0.758,-0.7702,-0.7804,-0.7957,-0.8079,-0.8167,-0.8113,-0.8116,-0.8163,-0.8109,-0.8116,-0.816,-0.8247,-0.7876,-0.7434,-0.7622,-0.7714,-0.7714,-0.7714,-0.7838,-0.7991,0.0,0.0,0.0,0.0,0.0,0.0,0.0,0.0,0.0,0.0,0.0,-0.8996,-0.9014,-0.8447,-0.8165,-0.8484,-0.8459,-0.8548,-0.889,0.0,0.0,0.0,0.0,0.0,0.0,-0.9743,-0.9488,-0.9018,-0.9228,-0.9203,-0.9018,-0.939,-0.9575,-0.9653,-0.9145,-0.8784,-0.8558,-0.8554,-0.7998,-0.716,-0.6836,-0.703,-0.7565,0.0,0.0,0.0,0.0,0.0,0.0,0.0,0.0,0.0,0.0,0.0,0.0,0.0,0.0,0.0,0.0,0.0,0.0,0.0,0.0,0.0,0.0,0.0,0.0,0.0,0.0,0.0,0.0,0.0,0.0,0.0,0.0,0.0,0.0,-0.7022,-0.681,-0.6943,-0.6872,-0.686,-0.7016,-0.7322,-0.7319,-0.7188,-0.739,-0.7418,-0.7246,-0.7403,-0.7468,-0.7516,-0.7668,-0.7773,-0.7824,-0.7967,-0.8089,-0.8191,-0.8292,-0.8391,-0.8479,-0.8431,-0.8435,-0.8479,-0.8431,-0.8438,-0.8482,-0.8482,-0.8252,-0.7899,-0.7899,-0.7899,-0.7899,-0.7899,-0.7899,-0.7909,0.0,0.0,0.0,0.0,0.0,0.0,0.0,0.0,0.0,0.0,-0.885,-0.8492,-0.7957,-0.7661,-0.7602,-0.7855,-0.821,-0.8656,-0.9138,-0.9211,0.0,0.0,0.0,0.0,-0.9897,-0.9536,-0.9344,-0.9455,-0.9276,-0.9593,-1.0197,-1.0797,-1.1161,-1.1409,-1.1335,-1.126,-1.1019,-1.0036,-0.8201,-0.5946,-0.6275,-0.6757,-0.7282,0.0,0.0,0.0,0.0,0.0,0.0,0.0,0.0,0.0,0.0,0.0,0.0,0.0,0.0,0.0,0.0,0.0,0.0,0.0,0.0,0.0,0.0,0.0,0.0,0.0,0.0,0.0,0.0,0.0,0.0,0.0,0.0,0.0,-0.7492,-0.6953,-0.6705,-0.7023,-0.7126,-0.7031,-0.7022,-0.7264,-0.7361,-0.6949,-0.7221,-0.7387,-0.7394,-0.7539,-0.7685,-0.7828,-0.7977,-0.8126,-0.8275,-0.8414,-0.8482,-0.8489,-0.8489,-0.8489,-0.8489,-0.8353,-0.8367,-0.8489,-0.835,-0.837,-0.8496,-0.8496,-0.8496,-0.8496,-0.8486,-0.8482,-0.8482,-0.8482,-0.8486,-0.8489,0.0,0.0,0.0,0.0,0.0,0.0,0.0,0.0,0.0,0.0,-0.885,-0.8492,-0.7957,-0.7859,-0.7836,-0.7875,-0.8397,-0.8822,-0.9152,0.0,0.0,0.0,0.0,0.0,-1.0184,-1.0012,-0.9994,-1.0001,-1.0176,-1.0361,-1.0575,-1.0912,-1.1113,-1.1186,-1.0594,-1.0293,-1.0137,-0.9316,-0.8581,-0.79,-0.7771,-0.7701,-0.7608,0.0,0.0,0.0,0.0,0.0,0.0,0.0,0.0,0.0,0.0,0.0,0.0,0.0,0.0,0.0,0.0,0.0,0.0,0.0,0.0,0.0,0.0,0.0,0.0,0.0,0.0,0.0,0.0,0.0,0.0,0.0,-0.7438,-0.7051,-0.6972,-0.6813,-0.6795,-0.6784,-0.6902,-0.6946,-0.709,-0.7245,-0.7382,-0.7407,-0.7587,-0.774,-0.7848,-0.8001,-0.815,-0.8292,-0.834,-0.8381,-0.8425,-0.8462,-0.8537,-0.8648,-0.8648,-0.8706,-0.8811,-0.8774,-0.8777,-0.8811,-0.8771,-0.8777,-0.8815,-0.8815,-0.8815,-0.8791,-0.8567,-0.8482,-0.8482,-0.8482,-0.8554,-0.8648,0.0,0.0,0.0,0.0,0.0,0.0,0.0,0.0,0.0,0.0,-0.8803,-0.8388,-0.7598,-0.7761,-0.7882,-0.7882,-0.8565,-0.9061,-0.9361,0.0,0.0,0.0,0.0,-1.0013,-1.011,-1.0064,-1.0178,-1.0404,-1.0568,-1.0773,-1.0888,-1.1039,-1.1111,-1.1111,-1.0588,-1.0363,-1.0368,-0.9911,-0.9679,-0.9658,-0.9526,-0.8995,-0.8389,-0.8324,-0.8314,-0.8299,-0.8233,-0.8255,-0.8265,-0.8265,0.0,0.0,0.0,0.0,0.0,0.0,0.0,0.0,0.0,0.0,0.0,0.0,0.0,0.0,0.0,0.0,0.0,0.0,0.0,0.0,0.0,0.0,0.0,0.0,-0.7473,-0.7015,-0.6916,-0.6871,-0.6888,-0.6868,-0.7021,-0.717,-0.7319,-0.7468,-0.7621,-0.7773,-0.7919,-0.8069,-0.8218,-0.8309,-0.8397,-0.8479,-0.8543,-0.8577,-0.8577,-0.8642,-0.8716,-0.8804,-0.8804,-0.8852,-0.894,-0.894,-0.894,-0.894,-0.894,-0.894,-0.894,-0.894,-0.894,-0.892,0.0,0.0,0.0,0.0,-0.873,-0.8804,0.0,0.0,0.0,0.0,0.0,0.0,0.0,0.0,0.0,0.0,0.0,-0.827,-0.713,-0.7523,-0.7882,-0.7882,-0.871,-0.9309,0.0,0.0,0.0,-0.9403,-0.9589,-0.9722,-0.9783,-0.9916,-1.0155,-1.0719,-1.0749,-1.0882,-1.1111,-1.1111,-1.1111,-1.1111,-1.1111,-1.1111,-1.1111,-1.1111,-1.1111,-1.1111,-1.1111,-1.0376,-0.9353,-0.934,-0.9465,-0.9676,-0.9857,-0.9281,-0.8508,-0.8508,0.0,0.0,0.0,0.0,0.0,0.0,0.0,0.0,0.0,0.0,0.0,0.0,0.0,0.0,0.0,0.0,0.0,0.0,0.0,0.0,0.0,0.0,0.0,0.0,-0.7605,-0.7343,-0.717,-0.7099,-0.7071,-0.718,-0.7329,-0.7482,-0.7634,-0.778,-0.7926,-0.8079,-0.8218,-0.8357,-0.8499,-0.8509,0.0,0.0,0.0,-0.8737,-0.8737,-0.8869,-0.894,-0.894,-0.894,-0.894,-0.894,-0.894,-0.894,-0.894,-0.894,-0.894,-0.894,-0.9047,-0.9158,-0.9265,-0.9047,-0.8937,-0.9154,-0.9154,-0.9154,-0.9265,0.0,0.0,0.0,0.0,0.0,0.0,0.0,0.0,0.0,-0.8939,-0.8756,-0.827,-0.713,-0.7523,-0.7882,-0.7882,-0.871,-0.9211,0.0,0.0,-0.9349,-0.9247,-0.9259,-0.9415,-0.9856,-1.0121,-1.0405,-1.0719,-1.093,-1.1063,-1.1111,-1.1111,-1.1111,-1.1111,-1.1111,-1.1111,-1.1111,-1.1111,-1.1111,-1.1111,-1.1111,-1.0559,-0.975,-0.9656,-0.9274,-0.8742,-0.8624,-0.8423,-0.8221,-0.8221,-0.7872,-0.7371,-0.7478,0.0,0.0,0.0,0.0,0.0,0.0,0.0,0.0,0.0,0.0,0.0,0.0,0.0,0.0,0.0,0.0,0.0,0.0,0.0,0.0,-0.8345,-0.7665,-0.7282,-0.7472,-0.7587,-0.7607,-0.7522,-0.7638,-0.7787,-0.794,-0.8092,-0.8241,-0.8384,-0.8425,-0.8506,-0.8659,-0.8665,-0.8723,-0.8845,-0.8879,-0.8896,-0.8896,-0.8923,-0.894,-0.894,-0.894,0.0,-0.894,-0.894,-0.894,-0.894,-0.894,-0.894,-0.8937,-0.9915,-1.0895,-1.1546,-0.9592,-0.9478,-1.0347,-1.0347,-1.0891,-1.1764,0.0,0.0,0.0,0.0,0.0,0.0,0.0,0.0,0.0,0.0,-0.9152,-0.8815,-0.8008,-0.8292,-0.8574,-0.8574,-0.909,0.0,0.0,-0.937,-0.9297,-0.9091,-0.9248,-0.9526,-1.0121,-1.026,-1.052,-1.0918,-1.1045,-1.1111,-1.1111,-1.1111,-1.1111,-1.1111,-1.1111,-1.0962,-1.0812,-1.0812,-1.0663,-1.0513,-1.0513,-1.0293,-0.9906,-1.0302,-0.9881,-0.9199,-0.9301,-0.8968,-0.8465,-0.8607,-0.8019,-0.7196,-0.7475,-0.7436,-0.7274,0.0,0.0,0.0,0.0,0.0,0.0,0.0,0.0,0.0,0.0,0.0,0.0,0.0,0.0,-0.8478,-0.8578,0.0,-0.7943,-0.8197,-0.7836,-0.7529,-0.7685,-0.7831,-0.7872,-0.7723,-0.7906,-0.8072,-0.8147,-0.8289,-0.8438,-0.8584,-0.8598,-0.8662,-0.8815,-0.8825,-0.8859,-0.8937,-0.894,-0.894,-0.894,-0.894,-0.894,-0.894,-0.894,-0.894,-0.894,-0.894,-0.894,-0.8937,-0.9588,-0.9805,-0.9915,-1.1109,-1.1869,-1.2309,-1.1114,-1.1004,-1.1542,-1.1542,-1.1873,-1.2417,0.0,0.0,0.0,0.0,0.0,0.0,0.0,0.0,0.0,0.0,-0.9604,-0.9376,-0.8848,-0.9045,-0.9267,0.0,0.0,0.0,0.0,-0.9397,-0.9324,-0.8968,-0.9266,-0.9646,-1.0242,-1.0303,-1.0562,-1.1033,-1.1087,-1.1111,-1.1111,-1.1111,-1.1037,-1.0962,-1.0962,-1.0738,-1.0368,-1.0368,-1.0218,-0.9922,-0.9922,-0.9846,-0.9846,-1.0588,-1.0438,-0.9922,-1.0293,-0.9685,-0.8775,-0.9074,-0.8237,-0.7145,-0.7609,-0.7438,-0.7222,-0.768,-0.7744,0.0,0.0,0.0,0.0,0.0,0.0,0.0,0.0,0.0,-0.8125,-0.7849,-0.7914,-0.8086,-0.8271,-0.8097,-0.7911,-0.8077,-0.7942,-0.7821,-0.7851,-0.7987,-0.8038,-0.7916,-0.8119,-0.8292,-0.835,-0.8459,-0.8587,-0.8743,-0.8754,-0.8808,-0.893,-0.894,-0.894,-0.894,-0.894,-0.894,-0.894,-0.894,-0.894,-0.894,-0.894,-0.9047,-0.9265,-0.9265,-0.9372,-0.9592,-1.0566,-1.1105,-1.1437,-1.2417,-1.2852,-1.3068,-1.3068,-1.3068,-1.3063,-1.2852,-1.2852,-1.3068,0.0,0.0,0.0,0.0,0.0,0.0,0.0,0.0,0.0,0.0,0.0,0.0,0.0,0.0,0.0,0.0,0.0,0.0,-0.9211,-0.9037,-0.8827,-0.8727,-0.9017,-0.9364,-0.9904,-1.0212,-1.0472,-1.0761,-1.0997,-1.1111,-1.1111,-1.1111,-1.0887,-1.0594,-1.0594,-1.0368,-0.9997,-0.9997,-0.9922,-0.9922,-0.9922,-0.9695,-0.9397,-0.9846,-0.9992,-0.9922,-0.9916,-0.9539,-0.8927,-0.8775,-0.8318,-0.7702,-0.7532,-0.7698,-0.7944,-0.7838,0.0,-0.825,-0.8178,-0.7868,-0.7557,-0.7787,-0.7676,-0.7557,0.0,0.0,-0.7946,-0.811,-0.8279,-0.8452,-0.8633,-0.8448,-0.8247,-0.8413,-0.8079,-0.7858,-0.7994,-0.8147,-0.8238,-0.8221,-0.8248,-0.8374,-0.8635,-0.8676,-0.875,-0.8903,-0.8913,-0.892,-0.8937,-0.894,-0.894,-0.894,-0.894,-0.894,-0.894,-0.894,-0.894,-0.894,-0.894,-0.9482,-1.0457,-1.0457,-1.1,-1.1982,-1.22,-1.2852,-1.384,-1.3948,-1.4595,-1.5559,-1.5559,-1.5559,-1.5351,-1.4379,-1.4595,-1.5559,0.0,0.0,0.0,0.0,0.0,0.0,0.0,0.0,0.0,0.0,0.0,0.0,0.0,0.0,0.0,0.0,0.0,0.0,-0.9211,-0.8847,-0.8689,-0.8727,-0.8926,-0.9379,-0.9862,-0.9976,-1.0309,-1.0719,-1.0828,-1.096,-1.1111,-1.1111,-1.0887,-1.0513,-1.0513,-1.0143,-0.9549,-0.9549,-0.9392,-0.9236,-0.9236,-0.9084,-0.8932,-0.916,-0.9236,-0.9236,-0.962,-0.9392,0.0,0.0,-0.878,-0.8169,-0.8169,-0.7944,-0.7642,-0.7783,-0.771,0.0,-0.7103,-0.7095,-0.7163,-0.7003,-0.6969,-0.6951,-0.713,-0.7443,-0.7606,-0.7507,-0.7753,-0.8,-0.816,-0.796,-0.7866,-0.8119,-0.7946,-0.7803,-0.8153,-0.8231,-0.8333,-0.8506,-0.8526,-0.8574,-0.8699,-0.8791,-0.8869,-0.8933,-0.894,-0.894,-0.894,-0.894,-0.894,-0.894,-0.894,-0.894,-0.894,-0.894,-0.9265,-0.9915,-0.9915,-1.0566,-1.1655,-1.1655,-1.2309,-1.3403,-1.3403,-1.4159,-1.5148,-1.5304,-1.5693,-1.6133,-1.6296,-1.6362,-1.632,-1.5468,-1.5458,-1.591,0.0,0.0,0.0,0.0,0.0,0.0,0.0,0.0,0.0,0.0,0.0,0.0,0.0,0.0,0.0,0.0,0.0,0.0,0.0,-0.8829,-0.8577,-0.8619,-0.8753,0.0,-0.9634,-0.9724,-1.0055,-1.0508,-1.0574,-1.0713,-1.0894,-1.0819,-1.0638,-1.0198,-1.0185,-0.9765,-0.917,-0.917,-0.8937,-0.8703,-0.8703,-0.867,-0.8618,-0.8618,-0.8618,-0.8774,-0.9296,-0.9251,0.0,0.0,-0.9165,-0.8784,-0.8856,-0.8327,-0.7638,-0.7863,-0.7557,-0.6953,-0.6617,-0.663,-0.6729,-0.6488,-0.6459,-0.6521,-0.6663,-0.6986,-0.7225,-0.7006,-0.7305,-0.7607,-0.765,-0.7583,-0.7521,-0.7723,-0.7643,-0.7695,-0.8146,-0.8303,-0.8425,-0.8679,-0.8747,-0.8774,-0.8774,-0.8872,-0.894,-0.894,-0.894,-0.894,-0.894,-0.894,-0.894,-0.894,-0.894,-0.9047,-0.9372,-0.9372,-1.0025,-1.1219,-1.1219,-1.1764,-1.2965,-1.3176,-1.383,-1.4708,-1.478,-1.524,-1.6018,-1.6302,-1.641,-1.6416,-1.6622,-1.67,-1.6652,-1.626,-1.6115,-1.6145,0.0,0.0,0.0,0.0,0.0,0.0,0.0,0.0,0.0,0.0,0.0,0.0,0.0,0.0,0.0,0.0,0.0,0.0,0.0,-0.8844,-0.8502,-0.8347,-0.8309,-0.8561,-0.9138,-0.9358,-0.9628,-0.9892,-1.0143,-1.0345,-1.0287,-1.0188,-0.9941,-0.952,-0.9376,-0.9089,-0.8703,-0.8703,-0.8703,-0.8703,-0.8703,-0.8585,-0.8411,-0.8411,-0.8558,-0.8729,-0.8944,0.0,0.0,0.0,-0.9397,-0.9544,-0.9322,-0.9013,0.0,-0.8403,-0.7944,-0.7443,-0.7058,-0.6708,-0.6458,-0.6492,-0.6325,-0.6192,-0.6503,-0.6728,-0.6868,-0.7006,-0.723,-0.7368,-0.7208,-0.7434,-0.754,-0.7238,-0.7444,-0.7695,-0.7932,-0.828,-0.8533,-0.8693,-0.8842,-0.893,-0.893,-0.8937,-0.894,-0.894,-0.894,-0.894,-0.894,-0.894,-0.894,-0.894,-0.894,-0.9482,-1.0672,-1.0672,-1.1219,-1.2304,-1.2304,-1.2965,-1.4164,-1.5244,-1.5779,-1.5903,-1.6157,-1.6266,-1.629,-1.6573,-1.6688,-1.6688,-1.67,-1.67,-1.67,-1.6682,-1.6676,-1.6676,0.0,0.0,0.0,0.0,0.0,0.0,0.0,0.0,0.0,0.0,0.0,0.0,0.0,0.0,0.0,0.0,0.0,0.0,0.0,-0.889,-0.8543,-0.8762,-0.8453,-0.8453,-0.8801,-0.907,-0.934,-0.9616,-0.9874,-1.0021,-0.9991,-0.9938,-0.9553,-0.8985,-0.8918,-0.866,-0.8288,-0.8288,-0.8288,-0.8288,-0.8288,-0.825,-0.8188,-0.8265,-0.8495,-0.8773,0.0,0.0,0.0,0.0,0.0,-0.9544,-0.9084,-0.8703,-0.8399,-0.7944,-0.7488,-0.7119,-0.6697,-0.6436,-0.6248,-0.5999,-0.6,-0.6182,-0.6309,-0.6559,-0.6722,-0.6854,-0.7372,-0.7783,-0.773,-0.7637,-0.7637,-0.7736,-0.7341,-0.7223,-0.7651,-0.8657,-0.9206,-0.8603,-1.0096,-1.0895,-1.0131,-1.0131,-1.0131,-1.0131,-1.0131,-1.0131,-1.0131,-0.9372,-0.9265,-1.0021,-1.0131,-1.0676,-1.1873,-1.1869,-1.2417,-1.3619,-1.4374,-1.4917,-1.5357,-1.5959,-1.6151,-1.6163,-1.6441,-1.6561,-1.6579,-1.6851,-1.696,-1.6978,-1.7153,-1.7219,-1.7219,-1.7219,-1.7219,-1.7195,0.0,0.0,0.0,0.0,0.0,0.0,0.0,0.0,0.0,0.0,0.0,0.0,0.0,0.0,0.0,0.0,0.0,0.0,0.0,0.0,-0.8871,-0.8902,-0.869,-0.8658,-0.8934,-0.9057,-0.9332,-0.9775,-0.9765,-0.979,-0.9711,-0.9531,-0.9157,-0.8538,-0.8478,-0.8367,-0.808,-0.808,-0.815,-0.8155,-0.8155,-0.8178,-0.8185,-0.826,-0.8483,0.0,0.0,0.0,0.0,0.0,0.0,-0.962,-0.9084,-0.8632,-0.8187,-0.748,-0.7186,-0.6907,-0.6499,-0.6316,-0.6198,-0.5982,-0.604,-0.6184,-0.6301,-0.6426,-0.6631,-0.6569,-0.727,-0.7763,-0.7661,-0.7756,-0.7868,-0.7932,-0.764,-0.7538,-0.8128,-0.9108,-0.9754,-0.9651,-1.1109,-1.1873,-1.1324,-1.1655,-1.176,-1.1328,-1.1328,-1.1328,-1.1328,-1.057,-1.046,-1.1324,-1.1328,-1.1873,-1.3073,-1.3073,-1.3614,-1.4815,-1.5565,-1.594,-1.6036,-1.6205,-1.6338,-1.6447,-1.6718,-1.6839,-1.6857,-1.7123,-1.7231,-1.7249,-1.7418,-1.7485,-1.7485,-1.7485,-1.7485,-1.7461,0.0,0.0,0.0,0.0,0.0,0.0,0.0,0.0,0.0,0.0,0.0,0.0,0.0,0.0,0.0,0.0,0.0,0.0,0.0,0.0,0.0,-0.8857,-0.8962,-0.9138,-0.937,-0.928,-0.9563,-1.0241,-0.9845,-0.9562,-0.9506,-0.9036,-0.8689,-0.8368,-0.8235,-0.8117,-0.8117,-0.8117,-0.8192,-0.8272,-0.8272,-0.829,-0.831,-0.831,0.0,0.0,0.0,0.0,0.0,0.0,0.0,-0.9765,-0.9316,-0.8641,-0.7842,-0.7145,-0.6962,-0.6831,-0.6409,-0.626,-0.6274,-0.6274,-0.6274,-0.6304,-0.6404,-0.6429,-0.6396,-0.6382,-0.6937,-0.7321,0.0,0.0,-0.8243,-0.8103,-0.823,-0.8636,-0.9257,-0.963,-1.0286,0.0,0.0,0.0,0.0,-1.3511,-1.3835,-1.2635,-1.2526,-1.2526,-1.2526,-1.2413,-1.2413,-1.2526,-1.2526,-1.3073,-1.4277,-1.4277,-1.4809,-1.5891,-1.5891,-1.6024,-1.6278,-1.6296,-1.6453,-1.6736,-1.6996,-1.7111,-1.7129,-1.7382,-1.7485,-1.7485,-1.7485,-1.7485,-1.7485,-1.7485,-1.7485,-1.7485,0.0,0.0,0.0,0.0,0.0,0.0,0.0,0.0,0.0,0.0,0.0,0.0,0.0,0.0,0.0,0.0,0.0,0.0,0.0,0.0,0.0,0.0,0.0,0.0,0.0,0.0,0.0,0.0,0.0,-0.9635,-0.9729,-0.9357,-0.911,-0.9043,-0.8849,-0.8612,-0.8403,-0.8403,-0.8281,-0.8087,0.0,-0.8057,-0.8073,0.0,0.0,0.0,0.0,0.0,0.0,0.0,0.0,0.0,0.0,-0.7569,-0.6817,-0.6617,-0.6466,-0.6348,-0.6286,-0.6215,-0.6131,-0.6319,-0.6331,-0.638,-0.6325,-0.6312,-0.6374,-0.6634,-0.7171,-0.7641,0.0,0.0,0.0,-0.8739,-0.8747,0.0,-0.9108,-1.0269,0.0,-1.0345,0.0,-1.3835,-1.3181,-1.4482,-1.5351,-1.5018,-1.4266,-1.3727,-1.3727,-1.2852,-1.2852,-1.3727,-1.3727,-1.4272,-1.5458,-1.5458,-1.5565,-1.5891,-1.5891,-1.6024,-1.629,-1.6495,-1.6742,-1.7008,-1.7267,-1.7382,-1.7388,-1.7455,-1.7485,-1.7485,-1.7485,-1.7485,-1.7485,-1.7485,-1.7485,-1.7485,0.0,0.0,0.0,0.0,0.0,0.0,0.0,0.0,0.0,0.0,0.0,0.0,0.0,0.0,0.0,0.0,0.0,0.0,0.0,0.0,0.0,0.0,0.0,0.0,0.0,0.0,0.0,0.0,0.0,0.0,0.0,-0.9497,-0.9204,-0.8862,-0.8971,-0.8759,-0.8301,0.0,0.0,0.0,0.0,0.0,0.0,0.0,0.0,0.0,0.0,0.0,0.0,0.0,0.0,-0.8313,-0.7936,-0.7364,-0.6722,-0.6306,0.0,-0.6277,-0.6195,-0.6208,-0.6195,-0.6314,-0.6352,-0.6446,-0.6577,-0.6517,-0.6631,-0.6967,-0.7492,-0.8044,-0.8136,-0.8773,-0.9272,0.0,0.0,0.0,-0.9855,-1.0758,-1.1363,0.0,-1.327,0.0,-1.4056,-1.5137,-1.5891,-1.5891,-1.5351,-1.4922,-1.4922,-1.4261,-1.4261,-1.4922,-1.4922,-1.5244,-1.5891,-1.5891,-1.5891,-1.5891,-1.5891,-1.6091,-1.6471,-1.6628,-1.6905,-1.7267,-1.7418,-1.7485,-1.7485,-1.7485,-1.7485,-1.7485,-1.7485,-1.7485,-1.7485,-1.7485,-1.7485,-1.7485,0.0,0.0,0.0,0.0,0.0,0.0,0.0,0.0,0.0,0.0,0.0,0.0,0.0,0.0,0.0,0.0,0.0,0.0,0.0,0.0,0.0,0.0,0.0,0.0,0.0,0.0,0.0,0.0,0.0,0.0,0.0,0.0,0.0,0.0,0.0,0.0,0.0,0.0,0.0,0.0,0.0,0.0,0.0,0.0,0.0,0.0,0.0,0.0,0.0,0.0,-0.8827,-0.8546,-0.7859,-0.7458,-0.7086,-0.6163,-0.6061,-0.6242,-0.6117,-0.6176,-0.6293,-0.6391,-0.6342,-0.6454,-0.6807,-0.6899,-0.687,-0.7279,0.0,-0.8332,-0.8238,-0.8894,-0.957,-0.9802,0.0,-1.0347,-1.0988,-1.1248,-1.1779,-1.2695,-1.3683,-1.4385,-1.4821,-1.5464,-1.5891,-1.5891,-1.5891,-1.5891,-1.5891,-1.5891,-1.5891,-1.5891,-1.5891,-1.5891,-1.5891,-1.5891,-1.5891,-1.5891,-1.5891,-1.6175,-1.67,-1.67,-1.699,-1.7485,-1.7485,-1.7485,-1.7485,-1.7485,-1.7485,-1.7485,-1.7485,-1.7485,-1.7485,-1.7485,-1.7485,-1.7485,0.0,0.0,0.0,0.0,0.0,0.0,0.0,0.0,0.0,0.0,-1.1074,0.0,0.0,0.0,0.0,0.0,0.0,0.0,0.0,0.0,0.0,0.0,0.0,0.0,0.0,0.0,0.0,0.0,0.0,0.0,0.0,0.0,0.0,0.0,0.0,0.0,0.0,0.0,0.0,0.0,0.0,0.0,0.0,0.0,0.0,0.0,0.0,0.0,0.0,0.0,-0.8673,-0.8084,-0.7322,-0.6828,-0.6328,-0.5693,-0.5695,-0.5993,-0.6045,-0.6176,-0.6274,-0.6293,-0.6282,-0.641,-0.6572,-0.6688,0.0,0.0,-0.7982,-0.8336,-0.8689,-0.917,-0.9655,-0.9822,-1.0202,-1.0541,-1.0899,-1.1372,-1.1831,0.0,-1.3265,-1.4277,-1.4277,-1.5244,-1.5891,-1.5891,-1.5891,-1.5891,-1.5891,-1.5891,-1.5891,-1.5891,-1.5891,-1.5891,-1.5891,-1.5891,-1.5891,-1.5891,-1.5891,-1.6175,-1.67,-1.67,-1.699,-1.7485,-1.7485,-1.7485,-1.7485,-1.7485,-1.7485,-1.7485,-1.7485,-1.7485,-1.7485,-1.7485,-1.7485,-1.7485,0.0,0.0,0.0,0.0,0.0,0.0,0.0,0.0,0.0,0.0,-1.1326,-1.1023,0.0,0.0,0.0,0.0,0.0,0.0,0.0,0.0,0.0,0.0,0.0,0.0,0.0,0.0,-1.011,-0.9999,0.0,0.0,0.0,-0.9875,-0.9695,0.0,0.0,0.0,0.0,0.0,0.0,0.0,0.0,0.0,0.0,0.0,0.0,0.0,0.0,0.0,0.0,0.0,-0.8734,-0.8257,-0.76,-0.7029,-0.659,-0.6007,-0.5837,-0.5841,-0.5958,-0.6361,-0.6649,-0.6269,-0.6409,-0.6701,-0.6942,0.0,0.0,0.0,-0.8468,-0.8819,-0.8911,-0.942,0.0,-0.9894,-1.0255,-1.0674,-1.0882,-1.134,0.0,-1.2221,-1.3357,-1.4142,-1.4589,-1.5357,-1.5891,-1.5891,-1.5891,-1.5891,-1.5891,-1.5891,-1.5891,-1.5891,-1.5891,-1.5891,-1.5891,-1.5891,-1.5891,-1.5891,-1.5891,-1.6097,-1.6483,-1.6483,-1.6773,-1.728,-1.728,-1.7358,-1.7485,-1.7485,-1.7485,-1.7485,-1.7485,-1.7485,-1.7485,-1.7485,-1.7485,-1.7485,0.0,0.0,0.0,0.0,0.0,0.0,0.0,-1.2175,-1.1877,-1.1828,-1.1628,-1.1427,-1.1368,-1.1326,-1.1167,0.0,0.0,0.0,0.0,0.0,0.0,0.0,0.0,0.0,0.0,0.0,0.0,-0.9888,-0.9792,0.0,0.0,0.0,0.0,0.0,-0.9042,-0.894,0.0,0.0,0.0,0.0,0.0,-0.9017,0.0,0.0,0.0,0.0,0.0,0.0,0.0,0.0,-0.8796,-0.8656,-0.8116,-0.7569,-0.7057,-0.6361,-0.6028,-0.5838,-0.5841,-0.6343,-0.6735,-0.6239,-0.6415,-0.6772,-0.7138,-0.72,0.0,-0.838,-0.8999,-0.9262,-0.8999,0.0,-1.0008,0.0,-1.0376,-1.0677,-1.0986,-1.1282,-1.1827,0.0,-1.3445,0.0,-1.4832,-1.5541,-1.5891,-1.5891,-1.5891,-1.5891,-1.5891,-1.5891,-1.5891,-1.5891,-1.5891,-1.5891,-1.5891,-1.5891,-1.5891,-1.5891,-1.5891,-1.6024,-1.6278,-1.6278,-1.6549,-1.7008,-1.7008,-1.7159,-1.74,-1.74,-1.743,-1.7485,-1.7485,-1.7485,-1.7485,-1.7485,-1.7485,-1.7485,0.0,0.0,0.0,0.0,0.0,0.0,0.0,-1.2529,-1.2382,-1.2274,-1.2126,-1.1927,-1.1678,-1.1326,-1.1023,0.0,0.0,0.0,0.0,0.0,0.0,0.0,0.0,0.0,0.0,0.0,0.0,-0.9614,-0.9517,0.0,0.0,0.0,0.0,0.0,0.0,-0.8888,-0.8939,0.0,0.0,0.0,0.0,0.0,0.0,0.0,0.0,0.0,0.0,0.0,0.0,0.0,0.0,-0.8786,-0.8436,-0.8012,-0.7437,-0.6163,0.0,0.0,-0.5833,-0.5912,-0.6153,-0.5947,-0.5833,-0.6014,-0.6897,0.0,-0.7321,-0.8352,-0.8999,-0.9262,-0.9262,-0.9689,-1.0043,0.0,0.0,-1.082,0.0,-1.1532,-1.1885,-1.2909,0.0,0.0,-1.4599,-1.5435,-1.5891,-1.5891,-1.5891,-1.5891,-1.5891,-1.5891,-1.5891,-1.5891,-1.5891,-1.5891,-1.5891,-1.5891,-1.5891,-1.5891,-1.5891,-1.6024,-1.6278,-1.6278,-1.6447,-1.6736,-1.6736,-1.6887,-1.7129,-1.7129,-1.7267,-1.7485,-1.7485,-1.7485,-1.7485,-1.7485,-1.7485,-1.7485,0.0,0.0,0.0,0.0,0.0,0.0,0.0,-1.2529,-1.2382,-1.2332,-1.2175,-1.1977,-1.1728,-1.1418,-1.1124,0.0,0.0,0.0,0.0,0.0,0.0,0.0,0.0,0.0,0.0,0.0,-0.974,-0.9614,-0.9465,0.0,0.0,0.0,0.0,0.0,0.0,-0.8465,-0.8577,-0.857,0.0,0.0,0.0,0.0,0.0,0.0,0.0,0.0,0.0,0.0,0.0,0.0,0.0,0.0,-0.8694,-0.8374,0.0,0.0,-0.6182,-0.5919,-0.5579,-0.5927,-0.6165,-0.5681,-0.6378,-0.718,-0.744,0.0,-0.8285,-0.8894,-0.9262,-0.9432,-0.9345,-0.9777,-1.0207,-1.0294,0.0,0.0,-1.137,0.0,-1.2007,-1.316,-1.3705,-1.4182,-1.5065,-1.5629,-1.5891,-1.5891,-1.5891,-1.5891,-1.5891,-1.5891,-1.5891,-1.5891,-1.5891,-1.5891,-1.5891,-1.5891,-1.5891,-1.5891,-1.5891,-1.5946,-1.6048,-1.6048,-1.6193,-1.6447,-1.6447,-1.6604,-1.6857,-1.6857,-1.6917,-1.7014,-1.7014,-1.7111,-1.7249,-1.7249,-1.7346,-1.7485,0.0,0.0,0.0,0.0,0.0,0.0,-1.2578,-1.2431,-1.2283,-1.2234,-1.2175,-1.2026,-1.1828,-1.1528,-1.1226,-1.1023,0.0,0.0,0.0,0.0,0.0,0.0,0.0,0.0,0.0,0.0,-0.9629,-0.9465,-0.9361,-0.9256,0.0,0.0,-0.8639,-0.8474,0.0,0.0,0.0,0.0,0.0,0.0,0.0,0.0,0.0,0.0,0.0,0.0,0.0,0.0,0.0,0.0,0.0,0.0,0.0,0.0,0.0,0.0,-0.6434,-0.5928,-0.5618,-0.5835,-0.6031,-0.5535,-0.6405,-0.7381,0.0,0.0,-0.8581,-0.8987,-0.9258,-0.9357,-0.9329,-0.9856,-1.0307,0.0,0.0,-1.1342,-1.1726,-1.1822,-1.2284,-1.3635,0.0,-1.4163,-1.5257,-1.5692,-1.5891,-1.5891,-1.5891,-1.5891,-1.5891,-1.5891,-1.5891,-1.5891,-1.5891,-1.5891,-1.5891,-1.5891,-1.5891,-1.5891,-1.5891,-1.5891,-1.5891,-1.5891,-1.5988,-1.6169,-1.6169,-1.632,-1.6579,-1.6579,-1.6628,-1.67,-1.67,-1.6815,-1.6978,-1.6978,-1.7092,-1.7249,0.0,0.0,0.0,0.0,0.0,0.0,0.0,-1.2274,-1.2274,-1.2126,-1.2076,-1.2076,-1.2076,-1.1628,-1.1326,-1.1326,0.0,0.0,0.0,0.0,0.0,0.0,0.0,0.0,0.0,0.0,-0.9361,-0.9211,-0.9061,-0.8844,-0.8626,-0.8626,-0.8474,-0.8221,0.0,0.0,0.0,0.0,0.0,0.0,0.0,0.0,0.0,0.0,0.0,0.0,0.0,0.0,0.0,0.0,0.0,0.0,0.0,0.0,0.0,0.0,-0.6827,-0.6311,-0.591,-0.5603,-0.5368,-0.5368,-0.5606,-0.6109,0.0,0.0,-0.7641,-0.8479,-0.8846,-0.9069,-0.926,-0.9892,-1.0478,-1.0885,-1.1359,0.0,-1.2711,-1.2597,-1.287,0.0,-1.3849,-1.3908,-1.4981,-1.5584,-1.5891,-1.5891,-1.5891,-1.5891,-1.5891,-1.5891,-1.5891,-1.5891,-1.5891,-1.5891,-1.5891,-1.5891,-1.5891,-1.5891,-1.5891,-1.5891,-1.5891,-1.5891,-1.5891,-1.5891,-1.5891,-1.6042,-1.6284,-1.6284,-1.6447,-1.67,-1.67,-1.6706,-1.6706,-1.6706,-1.6706,-1.6706,0.0,0.0,0.0,0.0,0.0,0.0,0.0,-1.2224,-1.2126,-1.2126,-1.2076,-1.2076,-1.2076,-1.1628,-1.1276,-1.1175,0.0,0.0,0.0,0.0,0.0,0.0,0.0,0.0,0.0,0.0,-0.9309,-0.9211,-0.8956,-0.8804,-0.8745,-0.8745,-0.8639,-0.8474,-0.8521,-0.8474,0.0,0.0,0.0,0.0,0.0,0.0,-0.9676,0.0,0.0,0.0,0.0,0.0,0.0,0.0,0.0,0.0,0.0,0.0,0.0,0.0,0.0,0.0,-0.6155,-0.6035,-0.5912,-0.5912,-0.6583,-0.7274,-0.7725,0.0,-0.8837,-0.9227,-0.9327,-0.948,-0.968,-1.0144,-1.0642,-1.0971,-1.1267,0.0,0.0,0.0,0.0,-1.3866,-1.4412,-1.4844,-1.5602,-1.5795,-1.5891,-1.5891,-1.5891,-1.5891,-1.5891,-1.5891,-1.5891,-1.5891,-1.5891,-1.5891,-1.5891,-1.5891,-1.5891,-1.5891,-1.5891,-1.5891,-1.5891,-1.5891,-1.5891,-1.5891,-1.5891,-1.5934,-1.6012,-1.6012,-1.6066,-1.6145,-1.6145,-1.626,-1.641,-1.641,-1.6537,-1.67,0.0,0.0,0.0,0.0,0.0,0.0,0.0,-1.2175,-1.2076,-1.2076,-1.2076,-1.2076,-1.2076,-1.1578,-1.1167,-1.1124,0.0,0.0,0.0,0.0,0.0,0.0,0.0,0.0,0.0,-0.9569,-0.9413,-0.9256,-0.9061,-0.891,-0.8857,-0.8804,-0.8745,-0.8626,-0.8633,-0.8527,0.0,0.0,0.0,0.0,0.0,0.0,-0.9676,0.0,0.0,0.0,0.0,0.0,0.0,0.0,0.0,0.0,0.0,0.0,0.0,0.0,-0.8089,-0.7249,0.0,-0.6472,-0.624,-0.6398,-0.7091,0.0,0.0,0.0,-0.9329,-0.9488,-0.9493,-0.9592,-1.0048,-1.0357,-1.0799,-1.1214,-1.1521,0.0,0.0,0.0,0.0,-1.3905,-1.4648,-1.5276,-1.5593,-1.5831,-1.5891,-1.5891,-1.5891,-1.5891,-1.5891,-1.5891,-1.5891,-1.5891,-1.5891,-1.5891,-1.5891,-1.5891,-1.5891,-1.5891,-1.5891,-1.5891,-1.5891,-1.5891,-1.5891,-1.5891,-1.5891,-1.5891,0.0,-1.5891,-1.5891,-1.5891,-1.5891,-1.5988,-1.6133,-1.6133,-1.6241,-1.6398,0.0,0.0,0.0,0.0,0.0,0.0,0.0,0.0,0.0,0.0,-1.2076,-1.2076,-1.2076,-1.1469,-1.1074,0.0,0.0,0.0,0.0,0.0,0.0,0.0,0.0,0.0,0.0,-0.9614,-0.951,-0.9413,-0.9263,-0.9159,-0.9008,-0.8857,-0.8745,-0.8626,-0.8745,-0.8553,-0.823,-0.8579,-0.8634,-0.8581,-0.9211,-0.9484,0.0,0.0,0.0,0.0,0.0,0.0,0.0,0.0,0.0,0.0,0.0,0.0,0.0,0.0,0.0,0.0,0.0,-0.7165,0.0,0.0,0.0,0.0,0.0,0.0,0.0,-0.9322,-0.9337,-0.9627,-1.03,-1.0649,-1.098,-1.1621,-1.2118,0.0,0.0,-1.3123,0.0,0.0,-1.4755,-1.5113,-1.5181,-1.5641,-1.5891,-1.5891,-1.5891,-1.5891,-1.5891,-1.5891,-1.5891,-1.5891,-1.5891,-1.5891,-1.5891,-1.5891,-1.5891,-1.5891,-1.5891,-1.5891,-1.5891,-1.5891,-1.5891,-1.5891,-1.5891,-1.5891,-1.5891,-1.5891,-1.5891,-1.5891,-1.5891,-1.5891,-1.5891,-1.5891,-1.5891,-1.5891,0.0,0.0,0.0,0.0,0.0,0.0,0.0,0.0,0.0,0.0,-1.2076,-1.2026,-1.1828,-1.1377,0.0,0.0,0.0,0.0,0.0,0.0,0.0,0.0,0.0,0.0,0.0,-0.951,-0.9413,-0.9413,-0.9263,-0.9159,-0.9159,-0.9008,-0.8956,-0.8903,-0.8738,-0.8543,-0.8435,-0.8595,-0.8795,-0.9004,-0.9271,-0.9344,0.0,0.0,0.0,0.0,-0.8958,-0.9022,0.0,0.0,0.0,0.0,0.0,0.0,0.0,0.0,-0.9008,-0.8632,-0.8861,0.0,-0.794,-0.8016,-0.8246,-0.847,0.0,0.0,0.0,0.0,0.0,0.0,-1.074,0.0,-1.1589,-1.1906,0.0,-1.2279,-1.2907,-1.3635,0.0,-1.4843,-1.5071,-1.5288,-1.5647,-1.5855,-1.5891,-1.5891,-1.5891,-1.5891,-1.5891,-1.5891,-1.5891,-1.5891,-1.5891,-1.5891,-1.5891,-1.5891,-1.5891,-1.5891,-1.5891,-1.5891,-1.5891,-1.5891,-1.5891,-1.5891,-1.5891,-1.5891,-1.5891,-1.5891,-1.5891,-1.5891,-1.5891,-1.5891,-1.5891,-1.5891,-1.5891,-1.5891,0.0,0.0,0.0,0.0,0.0,0.0,0.0,0.0,0.0,0.0,0.0,0.0,0.0,0.0,0.0,0.0,0.0,0.0,0.0,0.0,0.0,0.0,0.0,0.0,-0.9614,-0.9517,-0.951,-0.951,-0.9361,-0.9309,-0.9263,-0.9106,-0.8956,-0.8791,-0.8309,-0.8196,-0.8309,-0.8393,-0.8531,-0.8792,-0.9041,0.0,0.0,0.0,0.0,0.0,-0.8894,-0.8894,0.0,-0.8958,-0.8958,-0.9173,0.0,0.0,0.0,0.0,-0.9392,-0.916,-0.9392,-0.9089,-0.8703,-0.8937,-0.9084,-0.9311,0.0,0.0,0.0,0.0,0.0,0.0,0.0,0.0,0.0,0.0,-1.2289,0.0,0.0,0.0,-1.4364,-1.5028,-1.5107,-1.5312,-1.5837,-1.5891,-1.5891,-1.5891,-1.5891,-1.5891,-1.5891,-1.5891,-1.5891,-1.5891,-1.5891,-1.5891,-1.5891,-1.5891,-1.5891,-1.5891,-1.5891,-1.5891,-1.5891,-1.5891,-1.5891,-1.5891,-1.5891,-1.5891,-1.5891,-1.5891,-1.5891,-1.5891,-1.5891,-1.5891,-1.5891,-1.5891,-1.5891,-1.5891,0.0,0.0,0.0,0.0,0.0,0.0,0.0,0.0,0.0,0.0,0.0,0.0,0.0,0.0,0.0,0.0,0.0,0.0,0.0,0.0,0.0,0.0,0.0,-0.9614,-0.9614,-0.9614,-0.9562,-0.9562,-0.9413,-0.9361,-0.9309,-0.9054,-0.8791,-0.8474,-0.7878,-0.7775,-0.8091,-0.8106,-0.8232,-0.8419,-0.8809,0.0,0.0,0.0,0.0,0.0,0.0,0.0,0.0,-0.877,-0.8857,-0.9034,-0.9639,0.0,0.0,0.0,0.0,0.0,-0.9695,-0.9463,-0.9377,-0.962,-0.9846,-0.9992,0.0,0.0,0.0,0.0,0.0,0.0,0.0,0.0,0.0,0.0,0.0,0.0,-1.3507,-1.3839,-1.4298,-1.5022,-1.5143,-1.536,-1.5843,-1.5891,-1.5891,-1.5891,-1.5891,-1.5891,-1.5891,-1.5891,-1.5891,-1.5891,-1.5891,-1.5891,-1.5891,-1.5891,-1.5891,-1.5891,-1.5891,-1.5891,-1.5891,-1.5891,-1.5891,-1.5891,-1.5891,-1.5891,-1.5891,-1.5891,-1.5891,-1.5891,-1.5891,-1.5891,-1.5891,-1.5891,-1.5891,-1.5891,0.0,0.0,0.0,0.0,0.0,0.0,0.0,0.0,0.0,0.0,0.0,0.0,0.0,0.0,0.0,0.0,0.0,0.0,0.0,0.0,0.0,0.0,-0.9614,-0.9614,-0.9614,-0.9614,-0.9465,-0.9263,-0.9263,-0.9106,-0.891,-0.8738,-0.8421,-0.8014,-0.8025,-0.8034,-0.8047,-0.8116,-0.8299,-0.8463,-0.856,0.0,0.0,0.0,0.0,0.0,0.0,0.0,0.0,-0.877,-0.9034,-0.9382,-0.9892,0.0,0.0,0.0,0.0,0.0,-1.0143,-1.0293,-1.0438,-1.0218,-1.0293,-1.0443,0.0,0.0,0.0,0.0,0.0,0.0,0.0,-1.2153,-1.2571,0.0,0.0,-1.3495,-1.3803,-1.4274,-1.4721,-1.5065,-1.5306,-1.5559,-1.5861,-1.5891,-1.5891,-1.5891,-1.5891,-1.5891,-1.5891,-1.5891,-1.5891,-1.5891,-1.5891,-1.5891,-1.5891,-1.5891,-1.5891,-1.5891,-1.5891,-1.5891,-1.5891,-1.5891,-1.5891,-1.5891,-1.5891,-1.5891,-1.5891,-1.5891,-1.5891,-1.5891,-1.5891,-1.5891,-1.5891,-1.5891,-1.5891,-1.5891,0.0,0.0,0.0,0.0,0.0,0.0,0.0,0.0,0.0,0.0,0.0,0.0,0.0,0.0,0.0,0.0,0.0,0.0,0.0,0.0,0.0,-0.951,-0.951,-0.951,-0.9614,-0.9614,-0.9465,-0.9211,-0.9211,-0.9061,-0.8804,-0.8533,-0.835,-0.8282,-0.802,-0.8057,-0.8298,-0.8225,-0.8291,-0.8517,0.0,0.0,0.0,0.0,0.0,0.0,0.0,0.0,0.0,0.0,-0.8991,-0.9434,-0.984,0.0,0.0,0.0,0.0,0.0,-1.0368,-1.0663,-1.0887,-1.0738,-1.0738,-1.0812,-1.0812,0.0,0.0,0.0,0.0,0.0,0.0,0.0,-1.259,-1.2886,-1.326,-1.3604,-1.387,-1.437,-1.4817,-1.5077,-1.5342,-1.5602,-1.5861,-1.5891,-1.5891,-1.5891,-1.6311,-1.6418,-1.5891,-1.6311,-1.6411,-1.5885,-1.5891,-1.6099,-1.6624,-1.6624,-1.6624,-1.6624,-1.6624,-1.6836,-1.7259,-1.7259,-1.7259,-1.7259,-1.6836,-1.6624,-1.6518,-1.6099,-1.5891,-1.5891,-1.5891,-1.5891,-1.5891,-1.5891,-1.5891,-1.5891,0.0,0.0,0.0,0.0,0.0,0.0,0.0,0.0,0.0,0.0,0.0,0.0,0.0,0.0,0.0,0.0,0.0,0.0,0.0,0.0,-0.9562,-0.9413,-0.9413,-0.9465,-0.9562,-0.951,-0.9361,-0.9113,-0.9054,-0.885,-0.8599,-0.8284,-0.8263,-0.8403,-0.8023,-0.8114,-0.8528,-0.8335,-0.8344,-0.8517,0.0,0.0,0.0,0.0,0.0,0.0,0.0,0.0,0.0,0.0,0.0,0.0,0.0,0.0,0.0,-1.0611,-1.0738,-1.0812,-1.0663,-1.0887,-1.1111,-1.1111,0.0,-1.1111,-1.1111,0.0,0.0,0.0,0.0,0.0,0.0,-1.2158,0.0,-1.3139,-1.3435,-1.3701,-1.396,-1.4413,-1.4817,-1.5077,-1.5342,-1.5602,-1.5861,-1.5891,-1.5998,-1.6205,-1.6836,-1.7041,-1.6524,-1.7153,-1.7153,-1.6524,-1.6524,-1.6842,-1.7463,-1.7463,-1.7463,-1.7463,-1.7463,-1.7786,-1.8422,-1.8422,-1.8422,-1.8422,-1.7786,-1.7463,-1.7358,-1.6518,-1.6205,-1.6205,-1.5998,-1.5891,-1.5891,-1.5891,-1.5891,-1.5891,0.0,0.0,0.0,0.0,0.0,0.0,0.0,0.0,0.0,0.0,0.0,0.0,0.0,0.0,0.0,0.0,0.0,0.0,0.0,0.0,-0.9562,-0.9413,-0.9413,-0.9413,-0.9413,-0.9159,-0.8956,-0.8804,-0.8586,-0.8268,-0.7961,-0.8049,-0.8049,-0.7965,-0.8209,-0.8309,-0.8229,-0.8393,-0.8501,-0.8517,-0.8517,0.0,0.0,0.0,0.0,0.0,0.0,0.0,0.0,0.0,0.0,0.0,0.0,0.0,-1.1087,-1.1031,-1.1037,-1.1111,-1.1037,-1.1111,-1.1111,-1.1111,-1.1111,0.0,-1.1111,-1.0962,0.0,-1.1037,0.0,0.0,0.0,-1.2548,-1.3157,-1.3441,-1.3707,-1.3966,-1.4232,-1.4527,-1.4817,-1.5077,-1.5342,-1.5602,-1.5861,-1.5891,-1.6205,-1.7041,-1.7147,-1.7463,-1.8213,-1.8318,-1.8318,-1.8213,-1.8213,-1.8213,-1.8318,-1.8318,-1.8318,-1.8318,-1.8318,-1.8318,-1.8422,-1.8422,-1.8422,-1.8422,-1.8318,-1.8318,-1.8213,-1.7463,-1.7147,-1.7041,-1.6205,-1.5891,-1.5891,-1.5891,-1.5891,-1.5891,0.0,0.0,0.0,0.0,0.0,0.0,0.0,0.0,0.0,0.0,0.0,0.0,0.0,0.0,0.0,0.0,0.0,0.0,0.0,0.0,-0.951,-0.9263,-0.9211,-0.9159,-0.9159,-0.9106,-0.9008,-0.8804,-0.8434,-0.8302,-0.8306,-0.8243,-0.835,-0.8545,-0.8504,-0.855,-0.8573,-0.8538,-0.8517,-0.8511,-0.8705,-0.877,0.0,0.0,0.0,0.0,0.0,0.0,0.0,0.0,-0.9737,-1.0242,0.0,-1.076,-1.1111,-1.1111,-1.1111,-1.1111,-1.1111,-1.1111,-1.1111,-1.1111,0.0,0.0,0.0,-1.1037,-1.1085,-1.1335,-1.1456,0.0,0.0,0.0,-1.3212,-1.3658,-1.3829,-1.3996,-1.4262,-1.4539,-1.4817,-1.5077,-1.585,-1.6425,-1.6698,-1.673,-1.7047,-1.7891,-1.7996,-1.8101,-1.8422,-1.8945,-1.8945,-1.8422,-1.8422,-1.8632,-1.9153,-1.9257,-1.9465,-1.9983,-1.9465,-1.9465,-1.9983,-1.9983,-1.9983,-1.9879,-1.9465,-1.9257,-1.9153,-1.8311,-1.7674,-1.7147,-1.6205,-1.5891,-1.5891,-1.5891,-1.5891,-1.5891,0.0,0.0,0.0,0.0,0.0,0.0,0.0,0.0,0.0,0.0,0.0,0.0,0.0,0.0,0.0,0.0,0.0,0.0,-0.9725,-0.9673,-0.9569,-0.9361,-0.9159,-0.9061,-0.9008,-0.9061,-0.8956,-0.8804,-0.847,-0.8446,-0.8571,-0.8516,-0.861,-0.8892,-0.8793,-0.8862,-0.9022,-0.8835,-0.8829,-0.8894,-0.8952,-0.8952,0.0,0.0,0.0,0.0,0.0,0.0,0.0,0.0,0.0,0.0,0.0,0.0,0.0,0.0,-1.1111,-1.1111,-1.1111,-1.1111,-1.1111,0.0,0.0,0.0,-1.1111,-1.1111,-1.119,-1.1473,-1.1661,-1.1938,-1.2726,0.0,-1.3332,-1.3787,-1.395,-1.4093,-1.4268,-1.4461,-1.4783,-1.5245,-1.6113,-1.6909,-1.7402,-1.7515,-1.7884,-1.8736,-1.884,-1.8945,-1.9153,-1.9776,-1.9783,-1.9257,-1.9153,-1.9465,-2.0094,-2.0094,-2.0403,-2.0917,-2.03,-2.0403,-2.0925,-2.0925,-2.0925,-2.0917,-2.03,-2.0094,-1.999,-1.884,-1.7786,-1.673,-1.6411,-1.6099,-1.5891,-1.5891,-1.5891,-1.5891,0.0,0.0,0.0,0.0,0.0,0.0,0.0,0.0,0.0,0.0,0.0,0.0,0.0,0.0,0.0,0.0,0.0,0.0,-0.9999,-0.9895,-0.974,-0.9614,-0.9361,-0.9159,-0.9008,-0.8857,-0.8811,-0.8811,-0.8661,-0.8627,-0.8646,-0.8831,-0.8892,-0.891,-0.8972,-0.9204,-0.9518,-0.9332,-0.9524,-0.9773,-0.921,-0.9145,-0.9274,0.0,0.0,0.0,0.0,0.0,0.0,0.0,-1.0308,0.0,0.0,0.0,0.0,0.0,-1.1111,-1.1111,-1.1111,-1.1111,-1.1111,0.0,0.0,0.0,-1.1111,-1.1111,-1.1196,-1.1479,-1.1956,-1.2481,-1.3025,-1.3338,-1.3598,-1.3863,-1.4123,-1.4298,-1.4298,-1.4298,-1.4684,-1.5726,-1.6117,-1.6807,-1.7816,-1.8233,-1.8729,-1.9672,-1.9672,-2.0094,-2.0822,-2.0925,-2.0925,-2.0925,-2.0925,-2.0925,-2.0925,-2.0925,-2.0925,-2.0925,-2.0925,-2.0925,-2.0925,-2.0925,-2.0925,-2.0925,-2.0925,-2.0925,-2.0814,-1.9049,-1.747,-1.5992,-1.6829,-1.6624,-1.5891,-1.5891,-1.5891,-1.5891,0.0,0.0,0.0,0.0,0.0,0.0,0.0,0.0,0.0,0.0,0.0,0.0,0.0,0.0,0.0,0.0,0.0,0.0,-0.9999,-0.9947,-0.9895,-0.974,-0.9472,-0.9309,-0.9263,-0.9267,-0.9159,-0.9057,-0.8922,-0.9118,-0.9511,-0.9503,-0.9426,-0.9346,-0.9558,-0.9658,-0.9518,-0.9703,-0.9767,-0.9837,-0.9913,-0.9792,-0.967,0.0,0.0,0.0,0.0,0.0,0.0,0.0,0.0,0.0,0.0,0.0,0.0,-1.1111,-1.1111,-1.1111,-1.1111,-1.1111,0.0,0.0,0.0,0.0,0.0,-1.1262,0.0,0.0,-1.2355,-1.2778,-1.3305,-1.3422,-1.3598,-1.405,-1.4218,-1.4484,-1.4962,-1.4675,-1.4871,-1.6413,-1.6814,-1.7281,-1.8287,-1.8716,-1.9219,-2.014,-1.9854,-2.0094,-2.0822,-2.0925,-2.0925,-2.0925,-2.0925,-2.0925,-2.0925,-2.0925,-2.0925,-2.0925,-2.0925,-2.0925,-2.0925,-2.0925,-2.0925,-2.0925,-2.0925,-2.0925,-2.0814,-1.9049,-1.8422,-1.8415,-1.6836,-1.6518,-1.673,-1.6099,-1.5891,-1.5891,0.0,0.0,0.0,0.0,0.0,0.0,0.0,0.0,0.0,0.0,0.0,0.0,0.0,0.0,0.0,0.0,0.0,0.0,0.0,0.0,-1.0058,-1.0007,-0.974,-0.9582,-0.9599,-0.9521,-0.9576,-0.9701,-0.9477,-0.9545,-0.9884,-0.9816,-0.9769,-0.9843,-0.9919,-1.004,-1.0161,-1.0281,-1.0345,-1.0408,-1.0358,-1.0301,-1.0193,0.0,0.0,0.0,0.0,0.0,0.0,0.0,0.0,0.0,0.0,0.0,0.0,-1.1111,-1.1111,-1.1111,-1.1111,0.0,0.0,0.0,0.0,-1.1166,-1.1383,0.0,0.0,0.0,-1.2524,-1.2819,-1.3377,-1.3495,-1.3634,-1.419,-1.4475,-1.4867,-1.5337,-1.5248,-1.5688,-1.7113,-1.7433,-1.7874,-1.8857,-1.9178,-1.9675,-2.0186,-1.9976,-1.9992,-2.0504,-2.0639,-2.071,-2.071,-2.0845,-2.0925,-2.0925,-2.0925,-2.0925,-2.0925,-2.0925,-2.0925,-2.0925,-2.0925,-2.0925,-2.0925,-2.0925,-2.0719,-2.0403,-1.9672,-1.9146,-1.8624,-1.7364,-1.6842,-1.6624,-1.6099,-1.5891,-1.5891,0.0,0.0,0.0,0.0,0.0,0.0,0.0,0.0,0.0,0.0,0.0,0.0,0.0,0.0,0.0,0.0,0.0,0.0,0.0,0.0,-1.0316,-1.0316,-1.0037,-0.9872,-0.9878,-0.984,-0.998,-1.0363,-1.006,-0.9958,-0.9991,-0.9939,-1.0053,-1.0301,-1.0174,-1.0491,-1.1059,-1.0933,-1.1059,-1.124,-1.08,-1.0694,-1.0876,-1.083,0.0,0.0,0.0,0.0,0.0,0.0,0.0,0.0,0.0,0.0,-1.1186,-1.1186,-1.1111,-1.1111,-1.1111,0.0,0.0,0.0,0.0,0.0,-1.1879,-1.192,-1.2005,-1.2288,-1.2536,-1.2862,-1.347,-1.3586,-1.3768,-1.4368,-1.5038,-1.5527,-1.5622,-1.6197,-1.6864,-1.7692,-1.8055,-1.8441,-1.9225,-1.9622,-1.982,-1.982,-1.9844,-1.9868,-1.9868,-2.017,-2.0345,-2.0345,-2.0655,-2.0821,-2.0821,-2.0821,-2.0845,-2.0869,-2.0869,-2.0893,-2.0925,-2.0925,-2.0925,-2.0925,-2.0925,-2.0506,-1.9887,-2.0403,-1.9354,-1.7463,-1.7996,-1.7259,-1.5998,-1.5891,-1.5891,-1.5891,0.0,0.0,0.0,0.0,0.0,0.0,0.0,0.0,0.0,0.0,0.0,0.0,0.0,0.0,0.0,0.0,0.0,0.0,0.0,0.0,-1.047,-1.047,-1.0416,-1.0208,-0.9885,-1.0207,-1.0405,-1.0288,-1.0302,-1.0363,-1.0468,-1.0528,-1.0555,-1.0561,-1.087,-1.1052,-1.1122,-1.131,-1.1373,-1.1303,-1.1178,-1.1199,-1.1358,-1.1362,-1.1469,0.0,0.0,0.0,0.0,0.0,0.0,0.0,-1.1558,-1.1558,-1.1558,-1.1558,-1.1484,-1.1335,0.0,-1.1186,0.0,0.0,0.0,-1.1401,-1.2419,-1.2313,-1.2059,-1.2524,-1.2662,-1.2973,-1.3837,-1.4174,-1.4611,-1.5503,-1.604,-1.6574,-1.7124,-1.6857,-1.7052,-1.845,-1.8132,-1.8085,-1.8846,-1.9264,-1.9479,-1.9479,-1.9717,-1.9868,-1.9868,-1.9932,-1.9979,-1.9979,-2.0051,-2.0091,-2.0091,-2.0091,-2.0234,-2.0512,-2.0512,-2.0655,-2.0925,-2.0925,-2.0925,-2.0925,-2.0925,-2.0814,-2.0506,-1.9361,-1.9049,-1.8938,-1.7153,-1.6624,-1.6836,-1.6099,-1.5891,-1.5891,0.0,0.0,0.0,0.0,0.0,0.0,0.0,0.0,0.0,0.0,0.0,0.0,0.0,0.0,0.0,0.0,0.0,0.0,0.0,0.0,0.0,-1.0955,-1.0911,-1.0804,-1.0565,-1.0784,-1.0788,-1.0568,-1.0753,-1.0774,-1.0681,-1.0681,-1.0807,-1.0933,-1.1122,-1.1247,-1.1373,-1.1498,-1.1585,-1.166,-1.166,-1.1848,-1.2152,-1.2311,-1.2477,-1.2666,-1.2699,0.0,0.0,0.0,0.0,0.0,0.0,0.0,-1.1855,-1.1855,-1.1855,-1.1781,0.0,0.0,0.0,0.0,0.0,-1.1364,-1.2396,-1.2529,-1.2593,-1.3258,-1.329,-1.3389,-1.4015,-1.4542,-1.5048,-1.5853,-1.6529,-1.7065,-1.7669,-1.7699,-1.7986,-1.8735,-1.845,-1.835,-1.8735,-1.9002,-1.9113,-1.9113,-1.9272,-1.9368,-1.9368,-1.9534,-1.963,-1.963,-1.9781,-1.9868,-1.9868,-1.9868,-1.9955,-2.0138,-2.0138,-2.0329,-2.0678,-2.0845,-2.0925,-2.0925,-2.0925,-2.0925,-2.0822,-1.9983,-1.9672,-1.9569,-1.7786,-1.7153,-1.7041,-1.6205,-1.5891,-1.5891,0.0,0.0,0.0,0.0,0.0,0.0,0.0,0.0,0.0,0.0,0.0,0.0,0.0,0.0,0.0,0.0,0.0,0.0,0.0,0.0,0.0,-1.1535,-1.1437,-1.1372,-1.1301,-1.1368,-1.1221,-1.087,-1.1178,0.0,0.0,0.0,0.0,-1.1303,-1.1247,-1.1373,-1.1622,-1.1744,-1.1929,-1.2108,-1.2167,-1.252,-1.2984,-1.3262,-1.3474,-1.3698,-1.3548,-1.3419,-1.3193,-1.2673,0.0,0.0,0.0,0.0,-1.215,-1.2224,-1.2305,-1.2231,0.0,0.0,0.0,0.0,0.0,0.0,-1.2355,-1.2726,-1.318,-1.4209,-1.4103,-1.3972,-1.4296,-1.4902,-1.5531,-1.6138,-1.6823,-1.7432,-1.7749,-1.8356,-1.8756,-1.8819,-1.8827,-1.8827,-1.8827,-1.8827,-1.8827,-1.8827,-1.8827,-1.8827,-1.8827,-1.9113,-1.928,-1.928,-1.9542,-1.9685,-1.9685,-1.9685,-1.9717,-1.9781,-1.9836,-2.0019,-2.0313,-2.067,-2.0861,-2.0925,-2.0925,-2.0925,-2.0917,-2.0712,-2.03,-1.9576,-1.8632,-1.7786,-1.7041,-1.6205,-1.5891,-1.5891,0.0,0.0,0.0,0.0,0.0,0.0,0.0,0.0,0.0,0.0,0.0,0.0,0.0,0.0,0.0,0.0,0.0,0.0,-1.2165,0.0,0.0,-1.1784,-1.1731,-1.1619,-1.1301,-1.1585,-1.1571,-1.124,0.0,0.0,0.0,0.0,0.0,-1.1303,0.0,-1.174,-1.1824,-1.2251,-1.2466,-1.2527,-1.2823,-1.3142,-1.3523,-1.3569,-1.3752,-1.4004,-1.3848,-1.3717,-1.3645,-1.3419,-1.3346,0.0,0.0,0.0,-1.2826,-1.32,-1.2973,-1.2599,0.0,0.0,0.0,0.0,-1.1484,-1.1477,0.0,0.0,-1.3339,-1.4765,-1.4764,-1.4748,-1.5369,-1.5871,-1.6357,-1.7048,-1.7479,-1.7873,-1.8131,-1.8277,-1.8486,-1.8796,-1.8827,-1.8827,-1.8827,-1.8827,-1.8827,-1.8827,-1.8827,-1.8827,-1.8827,-1.8875,-1.8899,-1.8899,-1.8947,-1.897,-1.897,-1.897,-1.9129,-1.9439,-1.9725,-1.9892,-1.9948,-2.0297,-2.0631,-2.0925,-2.0925,-2.0925,-2.0814,-2.0197,-1.9783,-1.9576,-1.7989,-1.7252,-1.7041,-1.6205,-1.5891,-1.5891,0.0,0.0,0.0,0.0,0.0,0.0,0.0,0.0,0.0,0.0,0.0,0.0,0.0,0.0,0.0,-1.2355,-1.2519,-1.2625,-1.268,-1.2451,-1.2348,-1.2496,-1.2473,-1.2321,-1.2011,-1.2289,-1.2236,-1.1677,0.0,0.0,0.0,-1.1872,-1.1809,0.0,0.0,0.0,0.0,-1.2365,-1.2801,-1.3328,-1.3222,-1.3454,-1.3922,-1.3993,-1.4078,-1.4129,-1.4145,-1.4072,-1.3928,-1.3717,-1.3572,-1.3492,-1.3645,0.0,0.0,0.0,-1.3557,0.0,-1.3266,0.0,0.0,0.0,-1.1781,-1.1887,-1.2912,-1.3402,-1.3971,-1.4981,-1.5344,-1.5598,-1.5696,-1.6111,-1.6698,-1.7247,-1.7397,-1.7612,-1.7954,-1.8176,-1.8359,-1.8518,-1.8708,-1.8827,-1.8827,-1.8827,-1.8827,-1.8827,-1.8827,-1.8827,-1.8827,-1.8827,-1.8827,-1.8827,-1.8827,-1.8827,-1.8827,-1.8827,-1.8907,-1.9074,-1.9423,-1.959,-1.9598,-1.994,-2.0289,-2.0639,-2.0837,-2.0925,-2.0917,-2.0506,-2.0403,-2.0197,-1.852,-1.7891,-1.7681,-1.6418,-1.5891,-1.5891,0.0,0.0,0.0,0.0,0.0,0.0,0.0,0.0,0.0,0.0,0.0,0.0,0.0,0.0,0.0,0.0,-1.2987,-1.3224,-1.3392,-1.305,-1.2999,-1.3216,-1.3164,-1.3033,-1.2789,-1.2972,-1.285,0.0,0.0,0.0,-1.2313,-1.2428,-1.2367,0.0,-1.212,-1.2241,0.0,0.0,0.0,0.0,-1.3729,-1.3824,-1.4201,-1.4353,-1.4353,-1.4201,-1.4489,-1.4497,-1.4281,-1.4072,-1.3928,-1.3783,-1.3928,-1.3935,0.0,0.0,0.0,0.0,0.0,0.0,0.0,0.0,-1.2512,-1.2586,0.0,0.0,-1.4553,-1.5107,-1.5658,-1.6015,-1.5873,-1.6339,-1.6826,-1.7096,-1.7143,-1.7262,-1.7596,-1.7874,-1.8073,-1.8152,-1.8398,-1.8597,-1.8684,-1.8692,-1.8732,-1.8819,-1.8827,-1.8827,-1.8827,-1.8827,-1.8827,-1.8827,-1.8827,-1.8827,-1.8827,-1.8827,-1.8827,-1.8827,-1.9105,-1.9233,-1.9248,-1.9582,-1.9973,-2.0343,-2.0591,-2.0939,-2.1121,-2.1121,-2.1121,-2.0917,-1.9457,-1.8729,-1.8213,-1.673,-1.6099,-1.5891,0.0,0.0,0.0,0.0,0.0,0.0,0.0,0.0,0.0,0.0,0.0,0.0,-1.2687,-1.3011,-1.3259,-1.3259,-1.3626,-1.4029,-1.4392,-1.4112,-1.3923,-1.395,-1.364,0.0,-1.345,-1.345,0.0,0.0,0.0,0.0,-1.292,-1.2805,-1.2867,-1.2928,-1.2683,-1.275,-1.314,0.0,0.0,0.0,0.0,-1.4235,-1.4346,-1.4489,-1.4489,-1.4338,-1.4982,-1.4999,-1.4792,-1.4649,-1.4569,-1.4569,-1.4569,-1.4353,-1.4137,0.0,0.0,0.0,0.0,0.0,0.0,-1.4122,0.0,0.0,0.0,-1.4522,-1.4918,-1.5173,-1.5459,-1.5809,-1.6087,-1.6427,-1.6738,-1.6762,-1.6762,-1.6889,-1.7254,-1.7318,-1.7445,-1.7763,-1.7811,-1.7954,-1.8295,-1.8327,-1.847,-1.8804,-1.8827,-1.8827,-1.8827,-1.8827,-1.8827,-1.8827,-1.8827,-1.8827,-1.8827,-1.8827,-1.8827,-1.8827,-1.8843,-1.8851,-1.8867,-1.9233,-1.9684,-2.0104,-2.0319,-2.0909,-2.1623,-2.1623,-2.1623,-2.1522,-2.0688,-1.9561,-1.8318,-1.7463,-1.6624,-1.5891,0.0,0.0,0.0,0.0,0.0,0.0,0.0,0.0,0.0,0.0,0.0,0.0,0.0,-1.3744,-1.3951,-1.3728,-1.4047,-1.435,-1.4506,-1.4198,-1.401,-1.401,-1.3881,-1.3821,-1.3821,-1.395,0.0,0.0,0.0,-1.364,-1.3528,-1.3467,-1.3534,-1.3709,-1.3263,-1.3332,-1.3803,-1.4139,0.0,0.0,0.0,-1.4434,-1.484,-1.4561,-1.4625,-1.4919,-1.5284,-1.5275,-1.507,-1.4991,-1.4776,-1.4569,-1.4569,-1.4497,-1.4418,-1.4569,-1.4784,0.0,0.0,0.0,0.0,-1.4466,-1.4394,-1.4322,-1.4466,-1.5,-1.5386,-1.5258,-1.5691,-1.6055,-1.5886,-1.6398,-1.6798,-1.6698,-1.6984,-1.7106,-1.6913,-1.7127,-1.7326,-1.7437,-1.7644,-1.7819,-1.7946,-1.7962,-1.8009,-1.8144,-1.8152,-1.8152,-1.8152,-1.8152,-1.8152,-1.8152,-1.8367,-1.8779,-1.9279,-1.9004,-1.9004,-1.9279,-1.892,-1.9012,-1.9279,-1.9418,-1.9698,-2.0116,-2.0475,-2.1126,-2.1894,-2.2131,-2.2224,-2.2123,-2.0995,-2.0174,-1.9554,-1.8415,-1.747,-1.673,0.0,0.0,0.0,0.0,0.0,0.0,0.0,0.0,0.0,0.0,0.0,0.0,0.0,0.0,-1.4592,-1.4315,-1.4409,-1.4515,-1.4515,-1.4258,-1.4198,-1.4198,-1.4198,-1.4198,-1.4198,0.0,0.0,0.0,0.0,0.0,0.0,-1.4338,-1.4417,-1.4481,-1.4281,-1.4271,0.0,0.0,0.0,-1.5621,-1.48,-1.4638,-1.4919,-1.484,-1.484,-1.4982,-1.5568,-1.5638,-1.5488,-1.5409,-1.5204,-1.4991,-1.4991,-1.4991,-1.4991,-1.4991,0.0,0.0,-1.5409,0.0,0.0,0.0,0.0,-1.5251,-1.518,-1.5613,-1.5833,-1.548,-1.5825,-1.611,-1.5945,-1.6447,-1.6943,-1.6959,-1.7228,-1.731,-1.6984,-1.7028,-1.7096,-1.7096,-1.7286,-1.7469,-1.7588,-1.7604,-1.7652,-1.7763,-1.7771,-1.7771,-1.7771,-1.7771,-1.7771,-1.7771,-1.8169,-1.8588,-1.9175,-1.9134,-1.9199,-1.9373,-1.9314,-1.9371,-1.9646,-1.9737,-2.0046,-2.0475,-2.089,-2.138,-2.1996,-2.2434,-2.2615,-2.2728,-2.181,-2.1089,-2.038,-1.945,-1.8513,-1.7575,0.0,0.0,0.0,0.0,0.0,0.0,0.0,0.0,0.0,-1.4682,0.0,0.0,0.0,0.0,0.0,-1.5029,-1.4684,-1.4515,-1.4524,-1.4533,-1.4533,-1.4543,-1.4552,-1.4543,-1.4543,0.0,0.0,0.0,0.0,0.0,0.0,0.0,-1.544,-1.5281,-1.5655,-1.5563,-1.5027,0.0,-1.5584,-1.6061,-1.5488,-1.4911,-1.4482,-1.5409,-1.5196,-1.4553,-1.5842,-1.6202,-1.6061,-1.5903,-1.5833,-1.5833,-1.5833,-1.5833,-1.5833,-1.5833,0.0,0.0,0.0,0.0,0.0,0.0,0.0,-1.6533,-1.6342,-1.6342,-1.6202,-1.5903,-1.5833,-1.5953,-1.6242,-1.661,-1.7011,-1.7372,-1.7439,-1.7375,-1.7375,-1.6976,-1.673,-1.673,-1.673,-1.6873,-1.7231,-1.7262,-1.7397,-1.7715,-1.7739,-1.7739,-1.7739,-1.7739,-1.7747,-1.7755,-1.8181,-1.8362,-1.8456,-1.9267,-1.9462,-1.9026,-1.9923,-2.0093,-1.9637,-2.0102,-2.0555,-2.1015,-2.1414,-2.1725,-2.2025,-2.2549,-2.2983,-2.3329,-2.3329,-2.2215,-2.0585,-2.0585,-1.9657,-1.8422,0.0,0.0,0.0,0.0,0.0,0.0,0.0,0.0,0.0,0.0,0.0,0.0,-1.5899,-1.5621,-1.5352,-1.5303,-1.5186,-1.5321,-1.5638,-1.5537,-1.5619,-1.5923,-1.5692,-1.5575,-1.5575,0.0,0.0,0.0,0.0,0.0,0.0,0.0,0.0,0.0,-1.6191,-1.6265,-1.639,-1.6243,-1.6296,-1.6403,-1.5833,-1.5833,-1.6123,-1.5754,-1.5824,-1.6193,-1.6473,-1.6403,-1.6272,-1.6202,-1.5982,-1.5833,-1.5833,-1.5833,0.0,-1.5833,-1.5982,0.0,-1.6132,0.0,0.0,0.0,0.0,0.0,-1.6542,-1.6621,-1.6621,-1.6272,-1.6412,-1.6517,-1.6342,-1.6875,-1.7343,-1.7496,-1.7414,-1.7225,-1.6589,-1.6652,-1.673,-1.673,-1.673,-1.6778,-1.6873,-1.6881,-1.6921,-1.7016,-1.7024,-1.7024,-1.7024,-1.7024,-1.7143,-1.7405,-1.7831,-1.8379,-1.899,-1.9178,-1.954,-1.9991,-1.9927,-2.0116,-2.0637,-2.0727,-2.0907,-2.0997,-2.1491,-2.1733,-2.1775,-2.282,-2.3581,-2.3945,-2.3429,-2.302,-2.2518,-2.2114,-2.1097,-1.9968,0.0,0.0,0.0,0.0,0.0,0.0,0.0,0.0,0.0,0.0,0.0,0.0,-1.656,-1.5989,-1.5642,-1.571,-1.5752,-1.597,-1.6287,-1.6363,-1.6507,-1.6762,-1.6529,-1.6402,-1.6348,0.0,0.0,0.0,0.0,0.0,0.0,0.0,0.0,0.0,0.0,0.0,0.0,0.0,-1.695,-1.6811,-1.6403,-1.6403,-1.6473,-1.6184,-1.6254,-1.6482,-1.6682,-1.6621,-1.6551,-1.6551,-1.6412,-1.6263,-1.6263,-1.6263,-1.6263,-1.6263,-1.6412,0.0,0.0,0.0,0.0,-1.6751,0.0,0.0,-1.6751,-1.683,-1.683,-1.6621,-1.6769,-1.6839,-1.6621,-1.6951,-1.7177,-1.7035,-1.7119,-1.7166,-1.7024,-1.6861,-1.6806,-1.696,-1.682,-1.673,-1.673,-1.673,-1.673,-1.673,-1.673,-1.673,-1.673,-1.6902,-1.7081,-1.7298,-1.7879,-1.8485,-1.8958,-1.9274,-1.9627,-1.9942,-2.0183,-2.0457,-2.0766,-2.1105,-2.1275,-2.1275,-2.1553,-2.178,-2.1913,-2.2653,-2.3373,-2.3895,-2.3493,-2.3385,-2.3229,-2.2929,-2.2215,-2.1404,0.0,0.0,0.0,0.0,0.0,0.0,0.0,0.0,0.0,0.0,-1.7123,-1.7022,-1.6864,-1.6343,-1.6066,-1.6233,-1.6424,-1.6638,-1.686,-1.7256,-1.7438,-1.7352,-1.7289,-1.7236,-1.7046,0.0,0.0,0.0,0.0,0.0,0.0,0.0,0.0,0.0,0.0,0.0,0.0,0.0,-1.7579,-1.7235,-1.7038,-1.6682,-1.6254,-1.676,-1.6551,-1.6044,-1.676,-1.6978,-1.6978,-1.6978,-1.6978,-1.6978,-1.6978,-1.6978,-1.6908,-1.6908,-1.6908,0.0,0.0,0.0,0.0,-1.6908,-1.6908,0.0,-1.6908,-1.6908,-1.6908,-1.6908,-1.6908,-1.6908,-1.6908,-1.6908,-1.6769,-1.6412,-1.6706,-1.7113,-1.7782,-1.7328,-1.7033,-1.7374,-1.7041,-1.6812,-1.6812,-1.6812,-1.6812,-1.6812,-1.6812,-1.6812,-1.6812,-1.7229,-1.7473,-1.7473,-1.829,-1.87,-1.87,-1.9444,-1.9634,-1.9259,-2.0507,-2.0811,-2.0526,-2.1371,-2.1741,-2.1741,-2.1741,-2.1933,-2.2263,-2.2263,-2.274,-2.3474,-2.3474,-2.342,-2.3367,-2.3367,-2.2994,-2.2627,-1.6561,0.0,0.0,0.0,0.0,0.0,0.0,0.0,0.0,-1.7865,-1.77,-1.7423,-1.7134,-1.6899,-1.6935,-1.7376,-1.7317,-1.7627,-1.8385,-1.8406,-1.8562,-1.8861,-1.8609,-1.8476,-1.841,0.0,0.0,0.0,0.0,0.0,0.0,0.0,0.0,0.0,0.0,0.0,0.0,0.0,-1.8134,-1.7803,-1.7647,-1.7501,-1.7364,-1.7392,-1.7254,-1.7185,-1.7323,-1.7401,-1.7401,-1.7401,-1.7401,-1.7401,-1.7401,-1.7254,-1.7166,-1.7166,-1.7038,-1.6908,-1.6908,-1.6908,-1.6908,-1.6908,-1.6908,0.0,-1.6908,-1.6908,-1.6908,-1.6908,-1.6908,-1.6908,-1.6908,-1.6908,-1.6908,-1.6769,-1.6833,-1.683,-1.6638,-1.6996,-1.7327,-1.7395,-1.7603,-1.7716,-1.7716,-1.7716,-1.7716,-1.7716,-1.7716,-1.7716,-1.7716,-1.7797,-1.7878,-1.7878,-1.8371,-1.87,-1.87,-1.9154,-1.9514,-1.977,-2.0318,-2.0711,-2.0953,-2.1459,-2.1741,-2.1741,-2.1741,-2.1777,-2.1851,-2.1851,-2.2327,-2.2975,-2.2975,-2.3213,-2.3463,-2.3463,-2.3368,-2.3229,-1.7194,0.0,0.0,0.0,0.0,0.0,0.0,0.0,0.0,-1.8018,-1.7969,-1.7901,-1.7731,-1.764,-1.7702,-1.8078,-1.8244,-1.8577,-1.9124,-1.9329,-1.9436,-1.9594,-1.9407,-1.9274,-1.9208,-1.8998,0.0,0.0,0.0,0.0,0.0,0.0,0.0,0.0,0.0,0.0,0.0,0.0,-1.8607,-1.8347,-1.7998,-1.7784,-1.7706,-1.7529,-1.747,-1.747,-1.747,-1.747,-1.747,-1.747,-1.747,-1.747,-1.747,-1.7392,-1.7166,-1.7166,-1.7038,-1.6908,-1.6908,-1.6908,-1.6899,-1.7038,-1.6968,0.0,0.0,-1.6968,-1.6908,-1.6908,-1.6908,-1.6908,-1.6908,-1.6908,-1.6908,-1.6908,-1.6908,-1.6833,-1.6599,-1.6911,-1.7334,-1.7726,-1.7708,-1.7738,-1.8014,-1.804,-1.804,-1.804,-1.804,-1.804,-1.804,-1.8201,-1.8371,-1.8371,-1.8763,-1.9002,-1.9002,-1.9231,-1.9402,-1.9622,-2.0026,-2.0429,-2.0824,-2.1236,-2.1539,-2.1741,-2.1741,-2.1741,-2.1741,-2.1741,-2.1979,-2.2272,-2.2566,-2.2887,-2.3272,-2.3474,-2.3472,-2.3475,-1.7792,0.0,0.0,0.0,0.0,0.0,0.0,0.0,0.0,-1.8089,-1.8328,-1.8469,-1.8469,-1.8398,-1.8416,-1.8718,-1.894,-1.9188,-1.9487,-1.9792,-2.0009,-1.9933,-1.9933,-1.9868,-1.9681,-1.955,0.0,0.0,0.0,0.0,0.0,0.0,0.0,0.0,0.0,0.0,0.0,0.0,-1.8942,-1.8674,-1.8279,-1.7998,-1.7784,-1.7666,-1.7608,-1.7608,-1.7608,-1.7608,-1.7608,-1.7608,-1.7608,-1.7676,-1.7608,-1.7461,-1.7382,-1.7304,-1.7176,-1.7047,-1.7047,-1.6978,-1.6978,-1.7166,-1.7038,-1.6968,0.0,0.0,0.0,-1.6968,-1.6968,-1.6968,-1.6968,-1.6908,-1.6908,-1.6908,-1.6908,-1.6908,-1.6908,-1.6892,-1.7142,-1.793,-1.769,-1.7657,-1.8134,-1.823,-1.8273,-1.8273,-1.8273,-1.8273,-1.8273,-1.8603,-1.8851,-1.8851,-1.9152,-1.9301,-1.9301,-1.9301,-1.9301,-1.9301,-1.9732,-2.0136,-2.053,-2.0924,-2.1337,-2.1741,-2.1741,-2.1741,-2.1741,-2.1741,-2.1741,-2.1768,-2.2089,-2.2465,-2.2774,-2.3189,-2.3409,-2.3593,-1.8756,-1.8709,0.0,0.0,0.0,0.0,0.0,0.0,0.0,-1.8747,-1.9217,-1.9538,-1.9538,-1.9097,-1.8984,-1.9463,-1.8987,-1.9019,-1.976,-1.9715,-1.9813,-2.0074,-2.0074,-2.0085,-2.0009,-2.0009,-1.9944,0.0,0.0,0.0,0.0,0.0,0.0,0.0,-1.9351,0.0,0.0,0.0,-1.8875,-1.8549,-1.8674,-1.8405,-1.794,-1.794,-1.794,-1.794,-1.794,-1.794,-1.794,-1.794,-1.8076,-1.8212,-1.8008,-1.794,-1.7872,-1.7716,-1.752,-1.7401,-1.7401,-1.7323,-1.7166,-1.7166,-1.7038,-1.6908,-1.6908,0.0,-1.7166,-1.7166,0.0,-1.7166,-1.7166,0.0,0.0,-1.6908,-1.6908,-1.6908,-1.6908,-1.6875,-1.7067,-1.7505,-1.7815,-1.8197,-1.8588,-1.8943,-1.9143,-1.9143,-1.9143,-1.9143,-1.9143,-1.9222,-1.9231,-1.9231,-1.9301,-1.9301,-1.9301,-1.9301,-1.9301,-1.9301,-1.9732,-2.0136,-2.053,-2.0924,-2.1337,-2.1741,-2.1741,-2.1741,-2.1741,-2.1741,-2.1741,-2.1741,-2.1786,-2.2043,-2.2401,-2.2447,-2.2923,-2.3547,-1.9146,-1.904,0.0,0.0,0.0,0.0,0.0,0.0,0.0,-1.961,-1.9863,-2.0053,-2.0222,-2.0059,-2.0057,-2.031,-2.0079,-2.0039,-2.0302,-2.0248,-2.0129,-2.0085,-2.0085,-2.0085,-2.0085,-2.0085,-2.0074,0.0,-2.0009,0.0,0.0,0.0,0.0,0.0,-1.9539,0.0,-1.9285,-1.9341,-1.9208,-1.8875,-1.8942,-1.8674,-1.8279,-1.8076,-1.8008,-1.8008,-1.8008,-1.8008,-1.8008,-1.8008,-1.8212,-1.8347,-1.8076,-1.8212,-1.8337,-1.7842,-1.7725,-1.7745,-1.7539,-1.7461,-1.7382,-1.7442,-1.7382,-1.7254,-1.7382,-1.7382,-1.7314,-1.7235,0.0,0.0,0.0,0.0,0.0,0.0,-1.7097,-1.7038,-1.6908,-1.6908,-1.7055,-1.7449,-1.7651,-1.7917,-1.833,-1.8733,-1.8962,-1.8962,-1.9173,-1.9301,-1.9301,-1.9301,-1.9301,-1.9301,-1.9301,-1.9301,-1.9301,-1.9301,-1.9301,-1.9301,-1.9476,-1.9778,-2.0191,-2.0585,-2.0989,-2.1383,-2.163,-2.1741,-2.1741,-2.1741,-2.1741,-2.1741,-2.1741,-2.1841,-2.2006,-2.2236,-2.2538,-2.2905,-1.9892,0.0,0.0,0.0,0.0,0.0,0.0,0.0,-2.044,-2.0523,-2.0684,-2.0815,-2.1038,-2.094,-2.0914,-2.1019,-2.0892,-2.0764,-2.07,-2.0624,-2.0571,-2.0399,-2.0399,-2.0335,-2.027,-2.027,-2.0205,0.0,0.0,0.0,0.0,0.0,0.0,0.0,0.0,-1.9671,-1.9671,0.0,-1.9396,-1.9208,-1.9008,-1.8741,-1.8482,-1.8144,-1.8008,-1.8008,-1.8008,-1.8008,-1.8008,-1.8008,-1.8212,-1.8414,-1.8076,-1.8279,-1.8539,-1.7988,-1.7862,-1.794,-1.7735,-1.7676,-1.7666,-1.7794,-1.7657,-1.7598,-1.7647,-1.7588,-1.752,-1.7373,-1.7451,0.0,0.0,0.0,-1.747,-1.7314,0.0,-1.7245,-1.7116,-1.7047,-1.7079,-1.7303,-1.7431,-1.7614,-1.7917,-1.8311,-1.855,-1.855,-1.8815,-1.8981,-1.8981,-1.9081,-1.9146,-1.9146,-1.9246,-1.9301,-1.9301,-1.9301,-1.9301,-1.9301,-1.9301,-1.9522,-1.9943,-2.0338,-2.0732,-2.1126,-2.1557,-2.1741,-2.1741,-2.1741,-2.1741,-2.1741,-2.1741,-2.1741,-2.1768,-2.2061,-2.2236,-2.241,-2.143,-2.0729,0.0,0.0,0.0,0.0,0.0,-2.0995,-2.1332,-2.1332,-2.1813,-2.2161,-2.2161,-2.1714,-2.1388,-2.1388,-2.0816,-2.056,-2.0903,-2.0741,-2.0805,-2.1158,-2.1158,-2.0967,-2.0571,-2.0571,-2.0453,-2.0085,0.0,0.0,0.0,0.0,0.0,0.0,-1.9944,-2.0129,-2.0506,-1.9639,-1.9452,-1.9539,-1.8808,-1.8482,-1.8482,-1.8144,-1.8008,-1.8008,-1.8008,-1.8008,-1.8008,-1.8008,-1.8144,-1.8269,-1.8076,-1.8144,-1.8269,-1.8076,-1.8008,-1.8008,-1.8202,-1.8144,-1.8008,-1.8008,-1.7862,-1.7647,-1.7529,-1.7588,-1.7706,-1.7706,-1.7706,-1.7706,-1.7706,-1.7588,-1.747,-1.747,-1.747,0.0,0.0,-1.7314,-1.7107,-1.6927,-1.7266,-1.7504,-1.7513,-1.7889,-1.8146,-1.8146,-1.8155,-1.8164,-1.8164,-1.8522,-1.8733,-1.8733,-1.91,-1.9301,-1.9301,-1.9301,-1.9301,-1.9301,-1.9301,-1.9522,-1.9943,-2.0338,-2.0732,-2.1126,-2.1557,-2.1741,-2.1741,-2.1741,-2.1741,-2.1741,-2.1741,-2.1741,-2.1741,-2.175,-2.1997,-2.2327,-2.1493,0.0,0.0,0.0,0.0,-2.1448,-2.1644,-2.1971,-2.2274,-2.2274,-2.2262,-2.2247,-2.2494,-2.2173,-2.1987,-2.2037,-2.1839,-2.1714,-2.1577,-2.1502,-2.1376,-2.1221,-2.1221,-2.1158,-2.1031,-2.0967,-2.0903,-2.0646,-2.0646,0.0,0.0,0.0,0.0,0.0,0.0,-2.0172,0.0,-2.0161,-2.0096,-2.0215,-1.9901,-1.9584,-1.9253,-1.8607,-1.8347,-1.8279,-1.8076,-1.8008,-1.8008,-1.8008,-1.8212,-1.8405,-1.8076,-1.8405,-1.8741,-1.8144,-1.8144,-1.8279,-1.8144,-1.8076,-1.8008,-1.8144,-1.8202,-1.8269,-1.8337,-1.8472,-1.8596,-1.8462,-1.8327,-1.8202,-1.8124,-1.793,-1.7803,-1.7647,-1.7647,-1.7588,0.0,-1.7314,-1.7107,-1.6899,-1.7027,-1.7101,-1.7101,-1.7468,-1.7706,-1.7706,-1.7963,-1.8128,-1.8128,-1.8256,-1.844,-1.8705,-1.8843,-1.9036,-1.9301,-1.9301,-1.9301,-1.9301,-1.9301,-1.9375,-1.954,-2.0209,-2.0594,-2.075,-2.1438,-2.1741,-2.1741,-2.1741,-2.1741,-2.1741,-2.1741,-2.1741,-2.1741,-2.1741,-2.1823,-2.197,-2.2071,0.0,0.0,-2.1768,-2.2002,-2.2307,-2.2494,-2.2665,-2.286,-2.286,-2.2665,-2.2678,-2.3133,-2.2911,-2.2847,-2.318,-2.3055,-2.2853,-2.2639,-2.2408,-2.2186,-2.1818,-2.1642,-2.1474,-2.1348,-2.1348,-2.1285,-2.1031,-2.1031,-2.0967,0.0,0.0,0.0,0.0,0.0,-2.0624,-2.088,-2.056,-2.0613,-2.073,-2.0537,-2.0291,-1.9966,-1.9452,-1.9131,-1.8931,-1.8529,-1.8529,-1.8731,-1.8731,-1.8865,-1.8998,-1.8529,-1.8664,-1.8931,-1.8202,-1.8144,-1.8279,-1.8144,-1.8144,-1.8144,-1.8269,-1.8337,-1.8482,-1.8684,-1.8808,-1.8875,-1.8875,-1.8808,-1.8674,-1.8607,-1.8337,-1.8144,-1.7988,-1.7852,-1.7716,0.0,-1.7382,-1.7245,-1.7038,-1.6968,-1.6908,-1.6908,-1.7138,-1.7284,-1.7284,-1.7541,-1.7688,-1.7688,-1.7825,-1.8082,-1.8485,-1.8641,-1.8898,-1.9292,-1.9301,-1.9301,-1.9301,-1.9301,-1.9301,-1.9329,-2.0145,-2.0521,-2.0567,-2.1383,-2.1741,-2.1741,-2.1741,-2.1741,-2.1741,-2.1741,-2.1741,-2.1741,-2.1741,-2.1741,-2.1796,-2.3138,-2.3138,-2.2915,-2.2447,-2.2786,-2.3078,-2.3115,-2.3115,-2.3115,-2.3115,-2.314,-2.3414,-2.3941,-2.3879,-2.399,-2.4524,-2.4222,-2.4013,-2.4013,-2.3422,-2.3003,-2.2979,-2.2498,-2.2085,-2.1714,-2.1714,-2.1526,-2.1221,-2.1221,0.0,0.0,0.0,0.0,0.0,-2.1233,0.0,-2.1651,-2.0955,-2.0816,-2.1123,-2.0794,-2.0602,-2.0484,-2.0602,-2.0344,-1.9835,-1.9243,-1.9507,-2.0096,-2.0096,-2.0096,-1.9966,-1.9309,-1.9044,-1.8911,-1.8269,-1.8076,-1.8144,-1.8337,-1.8405,-1.8405,-1.8405,-1.8405,-1.8472,-1.8617,-1.8617,-1.8741,-1.9131,-1.9198,-1.9198,-1.9131,-1.8808,-1.8549,-1.8482,-1.8212,-1.794,-1.7784,-1.7588,-1.7461,-1.7235,-1.7038,-1.6908,-1.6908,-1.6908,-1.6908,-1.6908,-1.6908,-1.6908,-1.6908,-1.7257,-1.766,-1.8082,-1.8476,-1.8871,-1.9265,-1.9292,-1.9301,-1.9301,-1.9301,-1.9301,-1.9329,-2.0127,-2.0503,-2.0558,-2.1365,-2.1713,-2.1741,-2.1741,-2.1741,-2.1741,-2.1741,-2.1741,-2.1741,-2.1741,-2.1741,-2.1786,-2.333,-2.3198,-2.3088,-2.3141,-2.311,-2.3215,-2.3715,-2.3778,-2.3778,-2.3778,-2.4142,-2.4293,-2.4029,-2.4305,-2.4593,-2.4755,-2.4549,-2.4341,-2.4222,-2.3891,-2.3518,-2.3003,-2.2859,-2.2594,-2.2061,-2.2061,-2.1937,-2.1737,-2.1737,0.0,-2.1572,0.0,0.0,0.0,0.0,-2.1624,-2.1686,-2.1498,-2.1549,-2.1663,-2.1486,-2.1474,-2.1474,-2.1019,-2.1083,-2.121,-2.0161,-1.9966,-2.0096,-2.0096,-2.0096,-2.0096,-1.9901,-1.9835,-1.977,-1.9639,-1.9584,-1.9573,-1.9639,-1.9649,-1.9639,-1.9835,-1.9955,-2.0085,-2.0237,-2.0377,-2.0506,-2.0635,-2.042,-2.015,-1.9901,-1.9309,-1.8798,-1.8549,-1.8212,-1.8008,-1.8134,-1.7852,-1.751,-1.7235,-1.7166,-1.7038,-1.6908,-1.6908,-1.6908,-1.6908,-1.6908,-1.6908,-1.6908,-1.7,-1.7238,-1.7642,-1.8054,-1.8467,-1.8861,-1.9155,-1.9301,-1.9301,-1.9301,-1.9301,-1.932,-1.9842,-2.0246,-2.0549,-2.1053,-2.1447,-2.1741,-2.1741,-2.1741,-2.1741,-2.1741,-2.1741,-2.1741,-2.1741,-2.1741,-2.175,-2.3806,-2.3495,-2.3346,-2.3659,-2.3435,-2.3311,-2.3577,-2.3841,-2.3991,-2.4103,-2.4532,-2.4795,-2.4707,-2.4918,-2.5074,-2.5257,-2.5123,-2.4921,-2.4854,-2.4487,-2.402,-2.3664,-2.322,-2.2847,-2.2546,-2.2306,-2.2123,-2.2061,-2.2061,-2.1999,-2.1949,0.0,0.0,0.0,0.0,-2.1824,-2.1949,-2.1949,-2.1886,-2.1812,-2.1886,-2.1874,0.0,-2.1612,-2.1675,-2.1925,-2.1273,-2.1019,-2.1019,-2.1019,-2.1019,-2.0944,-2.0613,-2.0549,-2.0484,-2.0161,-2.0096,-2.0096,-2.0096,-2.0096,-2.0096,-2.0237,-2.0355,-2.0473,-2.0677,-2.088,-2.1019,-2.1158,-2.1019,-2.0805,-2.0635,-1.9966,-1.9309,-1.8808,-1.8482,-1.8279,-1.8347,-1.7988,-1.7638,-1.7442,-1.7382,-1.7245,-1.7038,-1.6978,-1.6978,-1.7116,-1.6978,-1.6908,-1.6908,-1.6908,-1.7092,-1.7486,-1.7908,-1.8311,-1.8705,-1.91,-1.9301,-1.9301,-1.9301,-1.9301,-1.932,-1.9742,-2.0145,-2.0539,-2.0934,-2.1346,-2.1741,-2.1741,-2.1741,-2.1741,-2.1741,-2.1741,-2.1741,-2.1741,-2.1741,-2.1741,-2.4374,-2.3882,-2.3742,-2.4302,-2.3936,-2.3546,-2.3412,-2.3778,-2.418,-2.433,-2.4734,-2.5184,-2.5548,-2.5473,-2.5586,-2.5943,-2.5758,-2.5606,-2.5606,-2.496,-2.459,-2.4518,-2.3652,-2.3123,-2.2979,-2.2534,-2.2258,-2.2247,-2.2197,-2.2197,0.0,0.0,0.0,0.0,0.0,0.0,0.0,-2.2123,-2.2011,-2.1761,-2.2061,-2.2061,-2.1937,-2.2123,-2.2197,-2.2197,-2.2197,-2.2197,-2.2197,-2.2197,-2.2197,-2.2061,-2.1463,-2.1262,-2.1135,-2.056,-2.0366,-2.0366,-2.0366,-2.0366,-2.0366,-2.0366,-2.0366,-2.042,-2.073,-2.0794,-2.0933,-2.1285,-2.136,-2.1296,-2.1285,-2.0635,-1.9911,-1.9198,-1.8808,-1.8549,-1.8607,-1.8124,-1.7774,-1.7842,-1.7657,0.0,-1.7304,-1.7107,-1.7047,-1.7401,-1.7116,-1.6908,-1.6908,-1.6908,-1.7064,-1.7413,-1.788,-1.8293,-1.8632,-1.9072,-1.9301,-1.9301,-1.9301,-1.9301,-1.9311,-1.9677,-2.009,-2.0539,-2.0879,-2.13,-2.1741,-2.1741,-2.1741,-2.1741,-2.1741,-2.1741,-2.1741,-2.1741,-2.1741,-2.1741,-2.4888,-2.4567,-2.4561,-2.5202,-2.5026,-2.4773,-2.476,-2.4734,-2.4833,-2.5313,-2.5879,-2.6025,-2.5636,-2.5834,-2.6102,-2.6119,-2.5828,-2.5606,-2.5606,-2.5298,-2.4975,-2.4542,-2.435,-2.3857,-2.3003,-2.2895,-2.2693,-2.2359,-2.2247,-2.2247,0.0,0.0,0.0,0.0,0.0,0.0,-2.1937,-2.1812,-2.1812,-2.1874,-2.1925,-2.2061,-2.2123,-2.2197,-2.2197,-2.2197,-2.2197,-2.2197,-2.2197,-2.2197,-2.2197,-2.2185,-2.2061,-2.1999,-2.1987,-2.1862,-2.18,-2.18,-2.18,-2.18,-2.18,-2.18,-2.18,-2.1862,-2.1925,-2.1925,-2.1925,-2.1999,-2.1999,-2.1925,-2.1663,-2.0944,-2.0096,-1.9264,-1.8875,-1.8875,-1.9341,-1.8539,-1.8124,-1.8566,-1.8046,-1.7716,-1.7872,-1.7451,-1.7107,-1.7047,-1.6908,-1.6908,-1.6908,-1.6908,-1.6936,-1.7009,-1.7734,-1.8155,-1.8229,-1.8944,-1.9301,-1.9301,-1.9301,-1.9301,-1.9301,-1.9375,-1.9815,-2.0521,-2.0594,-2.1044,-2.1741,-2.1741,-2.1741,-2.1741,-2.1741,-2.1741,-2.1741,-2.1741,-2.1741,-2.1741,-2.5643,-2.5283,-2.5215,-2.5781,-2.5499,-2.5307,-2.5772,-2.5476,-2.5322,-2.5706,-2.642,-2.6779,-2.6502,-2.6698,-2.6818,-2.6746,-2.6457,-2.6178,-2.5888,-2.5792,-2.548,-2.4951,-2.4675,-2.429,-2.3785,-2.3256,-2.2911,-2.2834,-2.2442,-2.2371,-2.2555,-2.2359,0.0,0.0,0.0,-2.2061,0.0,-2.1937,-2.1949,-2.1925,-2.1999,-2.2123,-2.2197,-2.2197,-2.2197,-2.2197,-2.2197,-2.2197,-2.2197,-2.2197,-2.2197,-2.2197,-2.2197,-2.2197,-2.2197,-2.2197,-2.2197,-2.2197,-2.2197,-2.2197,-2.2197,-2.2197,-2.2197,-2.2197,-2.2197,-2.2197,-2.2197,-2.2197,-2.2197,-2.2123,-2.1776,-2.1262,-2.0752,-2.0248,-1.9846,-1.9715,-2.0096,-1.9177,-1.8586,-1.8834,-1.8452,-1.8134,-1.8144,-1.7978,-1.7706,-1.7373,-1.7304,-1.7176,-1.6908,-1.6968,-1.7038,-1.6908,-1.7697,-1.8128,-1.8128,-1.8907,-1.9301,-1.9301,-1.9301,-1.9301,-1.9301,-1.9301,-1.9632,-2.0228,-2.0429,-2.086,-2.1429,-2.1649,-2.1741,-2.1741,-2.1741,-2.1741,-2.1741,-2.1741,-2.1741,-2.1741,-2.6337,-2.6057,-2.5986,-2.6229,-2.596,-2.5934,-2.6627,-2.6319,-2.603,-2.6177,-2.681,-2.7318,-2.7444,-2.7482,-2.7446,-2.7285,-2.7073,-2.6743,-2.6298,-2.6166,-2.5913,-2.5492,-2.4975,-2.4638,-2.4518,-2.3628,-2.3152,-2.3211,-2.2735,-2.253,-2.2629,-2.2663,-2.2638,-2.2528,-2.2416,-2.2231,-2.1987,-2.2123,-2.2123,-2.1999,-2.2123,-2.2197,-2.2197,-2.2197,-2.2197,-2.2197,-2.2197,-2.2197,-2.2197,-2.2197,-2.2197,-2.2197,-2.2197,-2.2197,-2.2197,-2.2197,-2.2197,-2.2197,-2.2197,-2.2197,-2.2197,-2.2197,-2.2197,-2.2197,-2.2197,-2.2197,-2.2197,-2.2197,-2.2197,-2.2123,-2.1776,-2.1588,-2.14,-2.1094,-2.0764,-2.0549,-2.0666,-1.9694,-1.9044,-1.9243,-1.8798,-1.8414,-1.8269,-1.8452,-1.8385,-1.7784,-1.7716,-1.751,-1.7107,-1.7176,-1.7176,-1.7047,-1.7842,-1.8267,-1.8267,-1.8985,-1.9381,-1.9381,-1.9301,-1.9301,-1.9301,-1.9301,-1.9531,-1.9952,-2.0347,-2.0796,-2.1264,-2.1603,-2.1741,-2.1741,-2.1741,-2.1741,-2.1741,-2.1741,-2.1741,-2.1741,-2.6737,-2.6839,-2.7024,-2.6899,-2.7018,-2.7198,-2.7481,-2.7309,-2.713,-2.7201,-2.7218,-2.7469,-2.7971,-2.7705,-2.752,-2.7446,-2.7148,-2.6911,-2.6863,-2.6382,-2.6069,-2.6021,-2.5516,-2.5011,-2.453,-2.3977,-2.3579,-2.3211,-2.3047,-2.2781,-2.2445,-2.3289,-2.3429,-2.2971,-2.2907,-2.2642,-2.2185,-2.2197,-2.2197,-2.2185,-2.2197,-2.2197,-2.2197,-2.2197,-2.2197,-2.2197,-2.2197,-2.2197,-2.2197,-2.2197,-2.2197,-2.2197,-2.2197,-2.2197,-2.2197,-2.2197,-2.2197,-2.2197,-2.2197,-2.2197,-2.2197,-2.2197,-2.2197,-2.2197,-2.2197,-2.2197,-2.2197,-2.2197,-2.2197,-2.2123,-2.1776,-2.1788,-2.1537,-2.0624,-2.07,-2.0828,-2.0892,-1.977,-1.9243,-1.9901,-1.9131,-1.8414,-1.8076,-1.8674,-1.8741,-1.8008,-1.7666,-1.7529,-1.7638,-1.752,-1.747,-1.747,-1.8419,-1.8858,-1.8618,-1.9294,-1.9557,-1.9557,-1.939,-1.9301,-1.9301,-1.9301,-1.9531,-1.9952,-2.0347,-2.0961,-2.1676,-2.1722,-2.1741,-2.1741,-2.1741,-2.1741,-2.1741,-2.1741,-2.1741,-2.1741,-2.832,-2.7937,-2.7749,-2.7941,-2.7717,-2.7576,-2.7851,-2.7855,-2.7896,-2.8235,-2.8273,-2.8348,-2.8574,-2.8586,-2.8632,-2.8491,-2.8171,-2.7883,-2.7428,-2.6899,-2.6454,-2.6105,-2.5588,-2.5204,-2.4999,-2.4482,-2.4032,-2.3697,-2.3774,-2.3558,-2.3219,-2.3472,-2.3207,-2.251,-2.251,-2.239,-2.2197,-2.2197,-2.2197,-2.2197,-2.2197,-2.2197,-2.2197,-2.2197,-2.2197,-2.2197,-2.2197,-2.2197,-2.2197,-2.2197,-2.2197,-2.2197,-2.2197,-2.2197,-2.2197,-2.2197,-2.2197,-2.2197,-2.2197,-2.2197,-2.2197,-2.2197,-2.2197,-2.2197,-2.2197,-2.2197,-2.2197,-2.2197,-2.2197,-2.2185,-2.1987,-2.1925,-2.18,-2.1537,-2.1474,-2.1537,-2.1675,-2.0484,-1.9824,-2.0344,-1.9518,-1.8808,-1.8674,-1.9208,-1.9341,-1.8808,-1.8347,-1.8008,-1.7862,-1.7725,-1.7657,-1.7803,-1.8481,-1.8848,-1.8848,-1.9457,-1.9794,-1.9794,-1.9557,-1.9478,-1.9478,-1.9381,-1.9659,-2.0292,-2.0448,-2.0979,-2.1741,-2.1741,-2.1741,-2.1741,-2.1741,-2.1741,-2.1741,-2.1741,-2.1741,-2.1741,-2.9789,-2.9402,-2.9012,-2.8818,-2.8495,-2.828,-2.8333,-2.8348,-2.8549,-2.9114,-2.9176,-2.9176,-2.9176,-2.9285,-2.9341,-2.9197,-2.8961,-2.8567,-2.8047,-2.7308,-2.6755,-2.6358,-2.5673,-2.5312,-2.5312,-2.4783,-2.4406,-2.4177,-2.4323,-2.4034,-2.3477,-2.3426,-2.304,-2.2426,-2.2426,-2.2342,-2.2197,-2.2197,-2.2197,-2.2197,-2.2197,-2.2197,-2.2197,-2.2197,-2.2197,-2.2197,-2.2197,-2.2197,-2.2197,-2.2197,-2.2197,-2.2197,-2.2197,-2.2197,-2.2197,-2.2197,-2.2197,-2.2197,-2.2197,-2.2197,-2.2197,-2.2197,-2.2197,-2.2197,-2.2197,-2.2197,-2.2197,-2.2197,-2.2197,-2.2197,-2.2197,-2.2061,-2.1999,-2.2123,-2.2061,-2.1999,-2.2123,-2.1135,-2.042,-2.059,-1.9901,-1.9264,-1.8942,-1.9407,-1.9473,-1.8952,-1.8549,-1.8279,-1.8134,-1.792,-1.792,-1.8134,-1.8548,-1.8979,-1.9251,-1.9668,-1.9863,-1.9863,-1.9636,-1.9478,-1.9478,-1.9381,-1.9677,-2.0356,-2.0466,-2.0915,-2.1566,-2.1686,-2.1741,-2.1741,-2.1741,-2.1741,-2.1741,-2.1741,-2.1741,-2.1741,-3.1015,-3.1216,-3.1001,-2.9561,-2.9561,-2.9534,-2.8975,-2.8925,-2.9126,-2.9704,-2.9779,-2.9779,-2.9779,-2.9599,-2.9419,-2.9419,-2.9028,-2.8791,-2.8791,-2.7577,-2.6935,-2.6923,-2.5889,-2.5312,-2.5312,-2.4783,-2.4518,-2.4506,-2.4506,-2.3989,-2.2979,-2.2979,-2.2979,-2.2967,-2.2967,-2.2678,-2.2197,-2.2197,-2.2197,-2.2197,-2.2197,-2.2197,-2.2197,-2.2197,-2.2197,-2.2197,-2.2197,-2.2197,-2.2197,-2.2197,-2.2197,-2.2197,-2.2197,-2.2197,-2.2197,-2.2197,-2.2197,-2.2197,-2.2197,-2.2197,-2.2197,-2.2197,-2.2197,-2.2197,-2.2197,-2.2197,-2.2197,-2.2197,-2.2197,-2.2197,-2.2197,-2.2197,-2.2123,-2.1937,-2.2061,-2.2123,-2.1925,-2.1463,-2.0996,-2.0655,-2.0279,-1.9649,-1.8607,-1.9008,-1.8952,-1.8076,-1.8008,-1.8134,-1.8509,-1.8202,-1.8144,-1.837,-1.8793,-1.9271,-1.9902,-1.9743,-1.9715,-1.9863,-1.946,-1.9301,-1.9301,-1.9301,-1.9531,-1.9962,-2.0347,-2.0741,-2.1145,-2.1566,-2.1741,-2.1741,-2.1741,-2.1741,-2.1741,-2.1741,-2.1741,-2.1741,-3.2047,-3.1707,-3.1489,-3.1323,-3.1046,-3.0686,-3.0319,-3.0261,-3.0125,-2.9844,-2.9792,-2.9792,-2.9792,-2.9702,-2.9534,-2.9197,-2.904,-2.8895,-2.8578,-2.7849,-2.7308,-2.6947,-2.6238,-2.5673,-2.5312,-2.5143,-2.4879,-2.4518,-2.503,-2.4917,-2.4238,-2.3874,-2.3446,-2.2967,-2.2606,-2.2354,-2.2197,-2.2197,-2.2197,-2.2197,-2.2197,-2.2197,-2.2197,-2.2197,-2.2197,-2.2197,-2.2197,-2.2197,-2.2197,-2.2197,-2.2197,-2.2197,-2.2197,-2.2197,-2.2197,-2.2197,-2.2197,-2.2197,-2.2197,-2.2197,-2.2197,-2.2197,-2.2197,-2.2197,-2.2197,-2.2197,-2.2197,-2.2197,-2.2197,-2.2197,-2.2197,-2.2197,-2.2185,-2.2123,-2.2135,-2.2185,-2.2123,-2.1474,-2.1008,-2.1123,-2.0549,-2.0042,-1.9846,-1.9726,-1.9605,-1.9253,-1.9008,-1.8674,-1.8202,-1.7872,-1.7937,-1.8492,-1.8692,-1.9123,-1.9696,-1.9733,-1.9863,-1.9863,-1.9636,-1.939,-1.9301,-1.9301,-1.9531,-1.9952,-2.0347,-2.0741,-2.1135,-2.1566,-2.1741,-2.1741,-2.1741,-2.1741,-2.1741,-2.1741,-2.1741,-2.1741,-3.3224,-3.2895,-3.2582,-3.265,-3.2291,-3.1853,-3.1422,-3.1341,-3.1057,-3.0279,-3.0203,-3.0139,-2.9869,-2.9792,-2.9702,-2.9378,-2.9221,-2.8973,-2.8749,-2.8096,-2.7488,-2.6959,-2.6394,-2.5853,-2.5312,-2.5312,-2.5143,-2.4819,-2.5021,-2.4993,-2.4655,-2.4135,-2.3724,-2.3268,-2.2931,-2.2678,-2.2486,-2.2486,-2.2378,-2.2197,-2.2197,-2.2197,-2.2197,-2.2197,-2.2197,-2.2197,-2.2197,-2.2197,-2.2197,-2.2197,-2.2197,-2.2197,-2.2197,-2.2197,-2.2197,-2.2197,-2.2197,-2.2197,-2.2197,-2.2197,-2.2197,-2.2197,-2.2197,-2.2197,-2.2197,-2.2197,-2.2197,-2.2197,-2.2197,-2.2197,-2.2197,-2.2197,-2.2197,-2.2197,-2.2197,-2.2185,-2.2123,-2.1612,-2.1285,-2.1388,-2.0933,-2.0549,-2.0484,-2.0302,-1.9911,-1.9365,-1.932,-1.8936,-1.8163,-1.8035,-1.8158,-1.851,-1.8637,-1.9052,-1.9707,-1.9653,-1.9706,-1.9794,-1.9557,-1.939,-1.9301,-1.9301,-1.9439,-1.9723,-2.0283,-2.0659,-2.0934,-2.1502,-2.1741,-2.1741,-2.1741,-2.1741,-2.1741,-2.1741,-2.1741,-2.1741,-3.4414,-3.4414,-3.4182,-3.3437,-3.3297,-3.3003,-3.229,-3.2146,-3.1856,-3.1119,-3.0957,-3.0696,-2.9998,-2.9934,-2.9869,-2.9869,-2.9378,-2.9131,-2.9052,-2.8276,-2.7524,-2.6959,-2.643,-2.5889,-2.5324,-2.5312,-2.5312,-2.5312,-2.4819,-2.4578,-2.4566,-2.4061,-2.3821,-2.3821,-2.3785,-2.3496,-2.3039,-2.3039,-2.2727,-2.2246,-2.2246,-2.2221,-2.2197,-2.2197,-2.2197,-2.2197,-2.2197,-2.2197,-2.2197,-2.2197,-2.2197,-2.2197,-2.2197,-2.2197,-2.2197,-2.2197,-2.2197,-2.2197,-2.2197,-2.2197,-2.2197,-2.2197,-2.2197,-2.2197,-2.2197,-2.2197,-2.2197,-2.2197,-2.2197,-2.2197,-2.2197,-2.2197,-2.2197,-2.2197,-2.2197,-2.2123,-2.1925,-2.1862,-2.18,-2.1463,-2.1388,-2.1262,-2.073,-2.0655,-2.0074,-1.8767,-1.9044,-1.9039,-1.8463,-1.8803,-1.8796,-1.8508,-1.8589,-1.9053,-1.9863,-1.946,-1.939,-1.9566,-1.939,-1.9301,-1.9301,-1.9301,-1.9301,-1.9347,-2.0163,-2.0521,-2.0585,-2.1401,-2.1741,-2.1741,-2.1741,-2.1741,-2.1741,-2.1741,-2.1741,-2.1741,-3.4414,-3.4414,-3.4346,-3.4113,-3.4113,-3.3825,-3.3087,-3.2932,-3.2648,-3.1928,-3.1783,-3.1783,-3.1576,-3.0996,-3.062,-3.062,-2.9871,-2.9197,-2.8882,-2.8682,-2.8053,-2.6971,-2.6803,-2.6286,-2.5336,-2.5312,-2.5312,-2.5312,-2.518,-2.5119,-2.5107,-2.459,-2.4338,-2.4326,-2.3941,-2.3701,-2.358,-2.358,-2.328,-2.2799,-2.2799,-2.2558,-2.2197,-2.2197,-2.2197,-2.2197,-2.2197,-2.2197,-2.2197,-2.2197,-2.2197,-2.2197,-2.2197,-2.2197,-2.2197,-2.2197,-2.2197,-2.2197,-2.2197,-2.2197,-2.2197,-2.2197,-2.2197,-2.2197,-2.2197,-2.2197,-2.2197,-2.2197,-2.2197,-2.2197,-2.2197,-2.2197,-2.2197,-2.2197,-2.2061,-2.1925,-2.1937,-2.1812,-2.1698,-2.1624,-2.1624,-2.1612,-2.1588,-2.088,-2.042,-2.0366,-1.9857,-1.9328,-1.8814,-1.9221,-1.9452,-1.9353,-1.8956,-1.8898,-1.946,-1.9381,-1.9301,-1.939,-1.9301,-1.9301,-1.9301,-1.9301,-1.9301,-1.9347,-2.0163,-2.0521,-2.0585,-2.1401,-2.1741,-2.1741,-2.1741,-2.1741,-2.1741,-2.1741,-2.1741,-2.1741,-3.4414,-3.4414,-3.4414,-3.4414,-3.4414,-3.4264,-3.3825,-3.3742,-3.3451,-3.272,-3.2577,-3.2434,-3.2146,-3.1709,-3.1415,-3.1415,-3.0228,-2.9341,-2.9106,-2.887,-2.8361,-2.746,-2.6815,-2.6274,-2.5685,-2.5274,-2.5211,-2.5465,-2.5382,-2.5312,-2.53,-2.5011,-2.4879,-2.4867,-2.4602,-2.4338,-2.4109,-2.4256,-2.3887,-2.3316,-2.314,-2.2874,-2.2522,-2.2282,-2.2197,-2.2197,-2.2197,-2.2197,-2.2197,-2.2197,-2.2197,-2.2197,-2.2197,-2.2197,-2.2197,-2.2197,-2.2197,-2.2197,-2.2197,-2.2197,-2.2197,-2.2197,-2.2197,-2.2197,-2.2197,-2.2197,-2.2197,-2.2197,-2.2197,-2.2197,-2.2197,-2.2197,-2.2197,-2.2197,-2.2061,-2.1925,-2.1925,-2.1749,-2.1698,-2.1749,-2.1812,-2.1886,-2.1999,-2.1537,-2.1146,-2.0944,-2.07,-2.0413,-2.0006,-2.0205,-2.0038,-1.9212,-1.9034,-1.9091,-1.9301,-1.9301,-1.9301,-1.9301,-1.9301,-1.9301,-1.9301,-1.9301,-1.9301,-1.9338,-1.9971,-2.0356,-2.0567,-2.119,-2.1566,-2.1741,-2.1741,-2.1741,-2.1741,-2.1741,-2.1741,-2.1741,-3.4414,-3.4414,-3.4414,-3.4414,-3.4414,-3.4414,-3.4414,-3.4414,-3.4182,-3.3451,-3.3367,-3.3157,-3.2519,-3.2376,-3.229,-3.229,-3.067,-2.9639,-2.9561,-2.925,-2.8782,-2.8025,-2.6892,-2.6142,-2.5973,-2.5163,-2.5034,-2.5484,-2.5417,-2.5312,-2.5312,-2.5312,-2.5312,-2.5312,-2.5312,-2.5059,-2.4707,-2.4856,-2.4565,-2.3911,-2.3583,-2.324,-2.2931,-2.2486,-2.2258,-2.2197,-2.2197,-2.2197,-2.2197,-2.2197,-2.2197,-2.2197,-2.2197,-2.2197,-2.2197,-2.2197,-2.2197,-2.2197,-2.2197,-2.2197,-2.2197,-2.2197,-2.2197,-2.2197,-2.2197,-2.2197,-2.2197,-2.2197,-2.2197,-2.2197,-2.2197,-2.2197,-2.2197,-2.2135,-2.1999,-2.1874,-2.1874,-2.1761,-2.1761,-2.1874,-2.1925,-2.1999,-2.2185,-2.2123,-2.1788,-2.1049,-2.1388,-2.1583,-2.1344,-2.1339,-2.0576,-1.9086,-1.9284,-1.9381,-1.9301,-1.9301,-1.9301,-1.9301,-1.9301,-1.9301,-1.9301,-1.9301,-1.9301,-1.932,-1.9751,-2.0154,-2.0549,-2.0943,-2.1355,-2.1741,-2.1741,-2.1741,-2.1741,-2.1741,-2.1741,-2.1741,-3.4414,-3.4414,-3.4414,-3.4414,-3.4414,-3.4414,-3.4414,-3.4414,-3.4346,-3.4264,-3.4196,-3.4182,-3.4045,-3.3451,-3.3003,-3.3003,-3.1549,-3.0607,-3.0456,-3.038,-2.9606,-2.8102,-2.7405,-2.6505,-2.5456,-2.4981,-2.4852,-2.4937,-2.5387,-2.5465,-2.5312,-2.5312,-2.5312,-2.5312,-2.5465,-2.5487,-2.5414,-2.5484,-2.518,-2.4614,-2.4382,-2.3761,-2.2967,-2.2895,-2.2582,-2.2197,-2.2197,-2.2197,-2.2197,-2.2197,-2.2197,-2.2197,-2.2197,-2.2197,-2.2197,-2.2197,-2.2197,-2.2197,-2.2197,-2.2197,-2.2197,-2.2197,-2.2197,-2.2197,-2.2197,-2.2197,-2.2197,-2.2197,-2.2197,-2.2197,-2.2197,-2.2197,-2.2123,-2.1987,-2.1812,-2.1761,-2.1761,-2.1698,-2.1761,-2.1874,-2.2061,-2.2185,-2.2197,-2.1925,-2.1714,-2.1588,-2.1411,-2.1376,-2.1647,-2.1655,-2.136,-2.0785,-2.0275,-1.9854,-1.9301,-1.9301,-1.9301,-1.9301,-1.9301,-1.9301,-1.9301,-1.9301,-1.9301,-1.932,-1.9751,-2.0154,-2.0549,-2.0943,-2.1355,-2.1741,-2.1741,-2.1741,-2.1741,-2.1741,-2.1741,-2.1741,-3.4414,-3.4414,-3.4414,-3.4414,-3.4414,-3.4414,-3.4414,-3.4414,-3.4414,-3.4414,-3.4414,-3.4414,-3.4414,-3.4045,-3.3825,-3.3825,-3.3241,-3.2577,-3.206,-3.0745,-2.9526,-2.8607,-2.7444,-2.6141,-2.4779,-2.4566,-2.4511,-2.4523,-2.4993,-2.503,-2.4891,-2.5168,-2.5382,-2.5465,-2.5535,-2.5676,-2.5758,-2.5758,-2.5542,-2.5217,-2.4856,-2.4309,-2.3785,-2.3508,-2.3075,-2.2618,-2.2618,-2.2438,-2.2197,-2.2197,-2.2197,-2.2197,-2.2197,-2.2197,-2.2197,-2.2197,-2.2197,-2.2258,-2.2534,-2.2618,-2.269,-2.2967,-2.3039,-2.3039,-2.3039,-2.3039,-2.3039,-2.3039,-2.2811,-2.2618,-2.2618,-2.2378,-2.2123,-2.1925,-2.1874,-2.1812,-2.1812,-2.1812,-2.1874,-2.2061,-2.2123,-2.2197,-2.2197,-2.2049,-2.1987,-2.1987,-2.1663,-2.1777,-2.2502,-2.216,-2.1903,-2.1962,-2.0702,-1.9775,-1.9301,-1.939,-1.939,-1.9301,-1.9301,-1.9301,-1.9301,-1.9301,-1.9301,-1.9311,-1.9503,-1.9824,-2.0228,-2.0622,-2.1025,-2.142,-2.1649,-2.1741,-2.1741,-2.1741,-2.1741,-2.1741,-3.4414,-3.4414,-3.4414,-3.4414,-3.4414,-3.4414,-3.4414,-3.4414,-3.4414,-3.4414,-3.4414,-3.4414,-3.4414,-3.4414,-3.4414,-3.4414,-3.4264,-3.3825,-3.3017,-3.0957,-2.9576,-2.9322,-2.725,-2.555,-2.439,-2.4153,-2.4156,-2.4298,-2.4688,-2.4815,-2.4679,-2.5141,-2.5453,-2.5606,-2.5688,-2.5828,-2.591,-2.591,-2.5758,-2.5569,-2.5087,-2.4776,-2.447,-2.4097,-2.3616,-2.3159,-2.3159,-2.2907,-2.2558,-2.2558,-2.2558,-2.2558,-2.2558,-2.2558,-2.2558,-2.2558,-2.2558,-2.2654,-2.3051,-2.3159,-2.3268,-2.3664,-2.3773,-2.3773,-2.3773,-2.3773,-2.3773,-2.3773,-2.3352,-2.2979,-2.2979,-2.2546,-2.2123,-2.1925,-2.1925,-2.1925,-2.1925,-2.1925,-2.1987,-2.2197,-2.2197,-2.2197,-2.2197,-2.2123,-2.2061,-2.2061,-2.1788,-2.2046,-2.3021,-2.2526,-2.2362,-2.267,-2.0934,-1.9854,-1.9539,-1.9548,-1.9469,-1.9301,-1.9301,-1.9301,-1.9301,-1.9301,-1.9301,-1.9301,-1.9301,-1.954,-1.9952,-2.0255,-2.0668,-2.1135,-2.1465,-2.1649,-2.1741,-2.1741,-2.1741,-2.1741,-3.4414,-3.4414,-3.4414,-3.4414,-3.4414,-3.4414,-3.4414,-3.4414,-3.4414,-3.4414,-3.4414,-3.4414,-3.4414,-3.4414,-3.4414,-3.4414,-3.3742,-3.2932,-3.2218,-3.1341,-3.0511,-2.977,-2.6822,-2.4994,-2.4484,-2.3976,-2.3916,-2.4229,-2.4781,-2.5167,-2.5234,-2.5489,-2.5606,-2.5606,-2.598,-2.6062,-2.591,-2.591,-2.5758,-2.5606,-2.5334,-2.4963,-2.4518,-2.4482,-2.4145,-2.3713,-2.3713,-2.3755,-2.3652,-2.3652,-2.3652,-2.3652,-2.3652,-2.3652,-2.3652,-2.3652,-2.3652,-2.3664,-2.3701,-2.3713,-2.3725,-2.3761,-2.3773,-2.3773,-2.3773,-2.3773,-2.3773,-2.3773,-2.3352,-2.2979,-2.2979,-2.2546,-2.2123,-2.1925,-2.1925,-2.1925,-2.1925,-2.1925,-2.1987,-2.2197,-2.2197,-2.2197,-2.2197,-2.1925,-2.1726,-2.1726,-2.1411,-2.167,-2.2695,-2.2685,-2.2644,-2.267,-2.1088,-2.0157,-2.0167,-1.9618,-1.9301,-1.9301,-1.9301,-1.9301,-1.9301,-1.9301,-1.9301,-1.9301,-1.9301,-1.954,-1.9934,-1.9962,-2.042,-2.1108,-2.1145,-2.1392,-2.1741,-2.1741,-2.1741,-2.1741,-3.4414,-3.4414,-3.4414,-3.4414,-3.4414,-3.4414,-3.4414,-3.4414,-3.4414,-3.4414,-3.4414,-3.4414,-3.4414,-3.4414,-3.4414,-3.4414,-3.4113,-3.3825,-3.3534,-3.2791,-3.1411,-2.9346,-2.779,-2.6648,-2.5785,-2.5673,-2.5398,-2.4801,-2.5755,-2.5983,-2.5478,-2.589,-2.6277,-2.6552,-2.6327,-2.6396,-2.6701,-2.6107,-2.5758,-2.5606,-2.5382,-2.5192,-2.5011,-2.5011,-2.4687,-2.423,-2.423,-2.4037,-2.3773,-2.3773,-2.3773,-2.3773,-2.3773,-2.3773,-2.3833,-2.4145,-2.423,-2.4302,-2.4638,-2.4482,-2.4314,-2.465,-2.4723,-2.4723,-2.4723,-2.4723,-2.4723,-2.4723,-2.4061,-2.3472,-2.3472,-2.2775,-2.2123,-2.1925,-2.1999,-2.2061,-2.1937,-2.1999,-2.2123,-2.2197,-2.2197,-2.2197,-2.2197,-2.1925,-2.1714,-2.1714,-2.1146,-2.1411,-2.2616,-2.306,-2.3139,-2.2916,-2.1939,-2.1175,-2.0857,-2.0323,-2.001,-1.9844,-1.946,-1.9301,-1.9301,-1.9301,-1.9301,-1.9301,-1.9301,-1.9393,-1.9558,-1.9824,-2.0108,-2.0429,-2.0915,-2.1209,-2.1383,-2.164,-2.1741,-2.1741,-3.4414,-3.4414,-3.4414,-3.4414,-3.4414,-3.4414,-3.4414,-3.4414,-3.4414,-3.4414,-3.4414,-3.4414,-3.4414,-3.4414,-3.4414,-3.4414,-3.4414,-3.4264,-3.4045,-3.3152,-3.164,-2.9434,-2.8505,-2.7651,-2.6904,-2.6911,-2.6552,-2.5894,-2.664,-2.6801,-2.631,-2.6745,-2.7136,-2.7484,-2.6905,-2.685,-2.7162,-2.6233,-2.5758,-2.5606,-2.5382,-2.5382,-2.5594,-2.5594,-2.5432,-2.5308,-2.5308,-2.5087,-2.4779,-2.4779,-2.4725,-2.4524,-2.4524,-2.4389,-2.4314,-2.4662,-2.4771,-2.4843,-2.5216,-2.5035,-2.4855,-2.5216,-2.5312,-2.5312,-2.5312,-2.5312,-2.5312,-2.5312,-2.4482,-2.3773,-2.3773,-2.2907,-2.2123,-2.1999,-2.2123,-2.2123,-2.1999,-2.2123,-2.2185,-2.2061,-2.2123,-2.2185,-2.2061,-2.1726,-2.1537,-2.1537,-2.0828,-2.1018,-2.2286,-2.3066,-2.3298,-2.3001,-2.2628,-2.2166,-2.1776,-2.1098,-2.0712,-2.0547,-2.0079,-1.9923,-1.9923,-1.9923,-1.9766,-1.9608,-1.9608,-1.946,-1.932,-1.9613,-1.9815,-1.998,-2.0521,-2.0888,-2.1145,-2.1429,-2.1621,-2.1741,-3.4414,-3.4414,-3.4414,-3.4414,-3.4414,-3.4414,-3.4414,-3.4414,-3.4414,-3.4414,-3.4414,-3.4414,-3.4414,-3.4414,-3.4414,-3.4414,-3.4414,-3.4045,-3.3213,-3.1994,-3.0987,-3.031,-2.8638,-2.7734,-2.7734,-2.7189,-2.7069,-2.7325,-2.7387,-2.7575,-2.7927,-2.8106,-2.8247,-2.8182,-2.7736,-2.7417,-2.7162,-2.6302,-2.5828,-2.5606,-2.5382,-2.5664,-2.622,-2.622,-2.6564,-2.696,-2.696,-2.696,-2.696,-2.696,-2.662,-2.622,-2.622,-2.5791,-2.53,-2.5312,-2.5312,-2.5312,-2.5312,-2.5312,-2.5312,-2.5312,-2.5312,-2.5312,-2.5312,-2.5312,-2.5312,-2.5312,-2.4482,-2.3773,-2.3773,-2.2907,-2.2197,-2.2197,-2.2197,-2.2197,-2.2197,-2.2197,-2.2061,-2.1714,-2.1987,-2.2061,-2.1714,-2.1411,-2.1221,-2.1221,-2.0529,-2.0577,-2.1538,-2.2488,-2.3001,-2.3001,-2.3001,-2.3001,-2.3001,-2.1776,-2.1242,-2.1242,-2.1165,-2.1165,-2.1165,-2.1165,-2.0857,-2.0245,-2.0245,-1.9844,-1.9301,-1.9301,-1.9549,-1.9925,-1.9925,-2.0411,-2.1099,-2.1099,-2.1374,-2.1731,-3.4414,-3.4414,-3.4414,-3.4414,-3.4414,-3.4414,-3.4414,-3.4414,-3.4414,-3.4414,-3.4414,-3.4414,-3.4414,-3.4414,-3.4414,-3.4414,-3.4414,-3.4143,-3.348,-3.2622,-3.1818,-3.1155,-3.0249,-2.9494,-2.9066,-2.9309,-2.9163,-2.8531,-2.9045,-2.9122,-2.876,-2.8798,-2.8931,-2.9156,-2.8505,-2.826,-2.8274,-2.7484,-2.696,-2.6564,-2.6483,-2.6324,-2.6117,-2.6117,-2.5942,-2.5742,-2.5742,-2.5742,-2.5742,-2.5742,-2.5612,-2.5479,-2.5535,-2.5171,-2.4831,-2.5204,-2.5312,-2.5312,-2.5312,-2.5312,-2.5312,-2.5312,-2.5312,-2.5312,-2.5312,-2.5312,-2.5312,-2.5312,-2.4482,-2.3773,-2.3773,-2.2907,-2.2197,-2.2197,-2.2197,-2.2197,-2.2197,-2.2197,-2.2185,-2.2049,-2.2123,-2.2061,-2.1714,-2.1411,-2.1094,-2.0775,-2.103,-2.1439,-2.2062,-2.2673,-2.3001,-2.3001,-2.3001,-2.3001,-2.3001,-2.2241,-2.1863,-2.1863,-2.1395,-2.1165,-2.1165,-2.1165,-2.1088,-2.0934,-2.0934,-2.0779,-2.0624,-2.0624,-2.0703,-2.085,-2.1094,-2.1115,-2.0945,-2.1267,-2.1304,-2.1291,-3.4414,-3.4414,-3.4414,-3.4414,-3.4414,-3.4414,-3.4414,-3.4414,-3.4414,-3.4414,-3.4414,-3.4414,-3.4414,-3.4414,-3.4414,-3.4414,-3.4182,-3.3775,-3.3137,-3.2483,-3.183,-3.1177,-3.0771,-3.0393,-3.0001,-3.0379,-3.0319,-2.9691,-3.0093,-3.0097,-2.9713,-2.9713,-2.9837,-2.9931,-2.9219,-2.8917,-2.8881,-2.8065,-2.7484,-2.7082,-2.6729,-2.6567,-2.6375,-2.6155,-2.5985,-2.5811,-2.5811,-2.5811,-2.5811,-2.5811,-2.556,-2.5231,-2.5053,-2.4621,-2.4326,-2.4843,-2.4987,-2.5035,-2.5252,-2.5312,-2.5312,-2.5312,-2.5312,-2.5312,-2.5312,-2.5312,-2.5252,-2.5035,-2.4338,-2.3713,-2.3496,-2.2763,-2.2197,-2.2197,-2.2197,-2.2197,-2.2197,-2.2197,-2.2123,-2.1987,-2.2123,-2.2061,-2.1714,-2.1537,-2.1238,-2.0938,-2.1474,-2.193,-2.2291,-2.2761,-2.3001,-2.3001,-2.3001,-2.3001,-2.3001,-2.2628,-2.2478,-2.2478,-2.209,-2.1928,-2.1928,-2.1928,-2.1776,-2.1558,-2.1558,-2.1395,-2.1165,-2.1165,-2.1165,-2.1185,-2.1164,-2.1045,-2.0818,-2.0851,-2.0876,-2.0897,-3.4414,-3.4414,-3.4414,-3.4414,-3.4414,-3.4414,-3.4414,-3.4414,-3.4414,-3.4414,-3.4414,-3.4414,-3.4414,-3.4414,-3.4414,-3.4414,-3.3833,-3.3195,-3.2556,-3.1888,-3.1235,-3.0611,-3.0568,-3.0568,-3.0568,-3.0568,-3.0568,-3.0568,-3.0568,-3.0568,-3.0568,-3.0568,-3.0568,-3.0568,-2.9946,-2.9449,-2.9099,-2.8208,-2.7617,-2.7245,-2.6556,-2.6505,-2.685,-2.6205,-2.6262,-2.666,-2.666,-2.666,-2.66,-2.66,-2.5964,-2.509,-2.4578,-2.4083,-2.3797,-2.4302,-2.4458,-2.4554,-2.5035,-2.5168,-2.5168,-2.5168,-2.5168,-2.5192,-2.5288,-2.5264,-2.5107,-2.4626,-2.4085,-2.3556,-2.3063,-2.2546,-2.2197,-2.2197,-2.2197,-2.2197,-2.2197,-2.2197,-2.2061,-2.1788,-2.1987,-2.2061,-2.1714,-2.1651,-2.1644,-2.1509,-2.1879,-2.2221,-2.249,-2.2845,-2.3075,-2.3075,-2.3001,-2.3001,-2.3001,-2.3001,-2.3001,-2.3001,-2.3001,-2.3001,-2.3001,-2.3001,-2.2703,-2.2176,-2.2176,-2.1863,-2.1395,-2.1395,-2.1395,-2.1318,-2.0702,-2.0624,-2.0803,-2.0186,-2.0209,-2.0521,-3.4414,-3.4414,-3.4414,-3.4414,-3.4414,-3.4414,-3.4414,-3.4414,-3.4414,-3.4414,-3.4414,-3.4414,-3.4414,-3.4414,-3.4414,-3.4414,-3.3833,-3.3195,-3.2556,-3.1888,-3.1235,-3.0611,-3.0568,-3.0568,-3.0568,-3.0568,-3.0568,-3.0568,-3.0568,-3.0568,-3.0568,-3.0568,-3.0568,-3.0568,-3.0158,-2.9789,-2.9477,-2.9022,-2.8638,-2.826,-2.7618,-2.7171,-2.6762,-2.6142,-2.5675,-2.5398,-2.5398,-2.5398,-2.5341,-2.498,-2.4439,-2.3978,-2.3879,-2.3521,-2.3256,-2.3785,-2.3929,-2.3965,-2.4073,-2.4097,-2.4097,-2.4097,-2.4097,-2.4314,-2.5119,-2.4987,-2.4662,-2.4542,-2.3785,-2.3111,-2.3003,-2.2546,-2.2197,-2.2197,-2.2197,-2.2197,-2.2197,-2.2197,-2.2185,-2.2123,-2.2135,-2.2061,-2.1714,-2.1474,-2.1601,-2.2388,-2.248,-2.2936,-2.3765,-2.3621,-2.3446,-2.3446,-2.315,-2.3001,-2.3001,-2.3001,-2.3001,-2.3001,-2.3001,-2.3001,-2.3001,-2.3001,-2.2927,-2.2777,-2.2777,-2.2692,-2.2617,-2.2617,-2.2617,-2.2617,-2.2456,-2.1838,-2.1073,-2.1005,-2.0569,-2.0118,-3.4414,-3.4414,-3.4414,-3.4414,-3.4414,-3.4414,-3.4414,-3.4414,-3.4414,-3.4414,-3.4414,-3.4414,-3.4414,-3.4414,-3.4283,-3.3993,-3.3383,-3.2745,-3.2092,-3.1438,-3.0916,-3.0582,-3.0568,-3.0568,-3.0568,-3.0568,-3.0568,-3.0568,-3.0568,-3.0568,-3.0568,-3.0568,-3.0568,-3.0568,-3.0401,-3.0158,-2.9803,-2.9665,-2.9352,-2.8967,-2.792,-2.7324,-2.6941,-2.5864,-2.5276,-2.5005,-2.5005,-2.5005,-2.4948,-2.4465,-2.3989,-2.3569,-2.3354,-2.2971,-2.2702,-2.3244,-2.3388,-2.3448,-2.3701,-2.3773,-2.3773,-2.3773,-2.3773,-2.3905,-2.4446,-2.4362,-2.4085,-2.3833,-2.3364,-2.2907,-2.2654,-2.2378,-2.2197,-2.2197,-2.2197,-2.2197,-2.2197,-2.2197,-2.2197,-2.2197,-2.2197,-2.2123,-2.1987,-2.18,-2.2046,-2.2863,-2.2945,-2.3329,-2.4143,-2.397,-2.3897,-2.3897,-2.3677,-2.3593,-2.3593,-2.3593,-2.3446,-2.3298,-2.3075,-2.3001,-2.3001,-2.3001,-2.3001,-2.3001,-2.3001,-2.3001,-2.3001,-2.3001,-2.3001,-2.3001,-2.2703,-2.2166,-2.1558,-2.0934,-2.0719,-2.0651,-3.4414,-3.4414,-3.4414,-3.4414,-3.4414,-3.4414,-3.4414,-3.4414,-3.4414,-3.4414,-3.4414,-3.4414,-3.4414,-3.4414,-3.4167,-3.3514,-3.289,-3.2237,-3.1555,-3.093,-3.0568,-3.0568,-3.0568,-3.0568,-3.0568,-3.0568,-3.0568,-3.0568,-3.0568,-3.0568,-3.0568,-3.0568,-3.0568,-3.0568,-3.0522,-3.0341,-3.0111,-3.005,-2.9865,-2.949,-2.7987,-2.7367,-2.7242,-2.5739,-2.5174,-2.5174,-2.5118,-2.5061,-2.4948,-2.4465,-2.4047,-2.3636,-2.3198,-2.2726,-2.2406,-2.2841,-2.2911,-2.2943,-2.3388,-2.3508,-2.3508,-2.3508,-2.3508,-2.3508,-2.3508,-2.3568,-2.3508,-2.3063,-2.2907,-2.2714,-2.227,-2.2197,-2.2197,-2.2197,-2.2197,-2.2197,-2.2197,-2.2197,-2.2197,-2.2197,-2.2197,-2.2197,-2.2197,-2.2197,-2.2504,-2.3266,-2.3282,-2.3593,-2.4348,-2.4334,-2.4273,-2.4273,-2.4273,-2.42,-2.42,-2.42,-2.4043,-2.3666,-2.3372,-2.315,-2.3001,-2.3001,-2.3001,-2.3001,-2.3001,-2.3001,-2.3001,-2.3001,-2.3001,-2.2927,-2.2478,-2.2176,-2.1949,-2.0779,-2.0895,-2.1574,-3.4414,-3.4414,-3.4414,-3.4414,-3.4414,-3.4414,-3.4414,-3.4414,-3.4414,-3.4414,-3.4414,-3.4414,-3.4414,-3.4414,-3.4167,-3.3514,-3.289,-3.2237,-3.1555,-3.093,-3.0568,-3.0568,-3.0568,-3.0568,-3.0568,-3.0568,-3.0568,-3.0568,-3.0568,-3.0568,-3.0568,-3.0568,-3.0568,-3.0582,-3.028,-3.0111,-3.005,-2.9803,-2.9665,-2.9504,-2.818,-2.7661,-2.7535,-2.6246,-2.5784,-2.5729,-2.5536,-2.5257,-2.4948,-2.4465,-2.4234,-2.4105,-2.3636,-2.3185,-2.28,-2.2874,-2.2604,-2.2318,-2.239,-2.2402,-2.2402,-2.2402,-2.2402,-2.2402,-2.2402,-2.2763,-2.3063,-2.2991,-2.2618,-2.2282,-2.2209,-2.2197,-2.2197,-2.2197,-2.2197,-2.2197,-2.2197,-2.2197,-2.2197,-2.2197,-2.2197,-2.2197,-2.2197,-2.2197,-2.263,-2.3622,-2.3694,-2.415,-2.511,-2.4849,-2.4718,-2.4718,-2.4345,-2.42,-2.42,-2.42,-2.42,-2.4116,-2.4043,-2.3666,-2.3001,-2.3001,-2.3001,-2.3001,-2.3001,-2.3001,-2.3001,-2.3001,-2.3001,-2.3001,-2.2927,-2.2553,-2.2025,-2.1318,-2.1409,-2.185,-3.4414,-3.4414,-3.4414,-3.4414,-3.4414,-3.4414,-3.4414,-3.4414,-3.4414,-3.4414,-3.4414,-3.4414,-3.4414,-3.4095,-3.363,-3.2991,-3.2338,-3.1685,-3.1032,-3.0727,-3.0568,-3.0568,-3.0568,-3.0568,-3.0568,-3.0568,-3.0568,-3.0568,-3.0568,-3.0568,-3.0568,-3.0568,-3.0568,-3.0568,-3.0462,-3.0401,-3.0341,-3.0219,-3.0158,-3.0043,-2.8594,-2.7967,-2.7825,-2.6412,-2.5798,-2.5647,-2.5313,-2.5131,-2.4948,-2.4465,-2.4292,-2.4234,-2.3754,-2.3305,-2.2909,-2.2909,-2.2555,-2.2197,-2.2197,-2.2197,-2.2197,-2.2197,-2.2197,-2.2197,-2.2197,-2.2378,-2.2534,-2.2534,-2.2354,-2.2197,-2.2197,-2.2197,-2.2197,-2.2197,-2.2197,-2.2197,-2.2197,-2.2197,-2.2197,-2.2197,-2.2197,-2.2197,-2.2197,-2.2197,-2.263,-2.3688,-2.3773,-2.4218,-2.5252,-2.5182,-2.5052,-2.5052,-2.4897,-2.4826,-2.4826,-2.4826,-2.4694,-2.4574,-2.4574,-2.42,-2.3666,-2.3666,-2.3666,-2.3677,-2.3446,-2.3372,-2.3298,-2.3075,-2.3001,-2.3001,-2.3001,-2.2628,-2.2101,-2.1797,-2.2154,-2.2763]},{"header":{"parameterUnit":"m.s-1","parameterCategory":1,"la1":30.6,"la2":28.766,"lo1":-90.7593,"lo2":-88.6598,"dy":0.0162,"dx":0.0183,"nx":116,"ny":114,"refTime":"2023-07-11T12:00:00:Z","depth":0,"parameterNumber":3,"parameterNumberName":"V-component_of_WINDS"},"data":[0.0,0.0,0.0,0.0,0.0,0.0,0.0,0.0,0.0,0.0,0.0,0.0,0.0,0.0,0.0,0.0,0.0,0.0,0.0,0.0,0.0,0.0,0.0,0.0,0.0,0.0,0.0,0.0,0.0,0.0,0.0,0.0,0.0,0.0,0.0,0.0,0.0,0.0,0.0,0.0,0.0,0.0,0.0,0.0,0.0,0.0,0.0,0.0,0.0,0.0,0.0,0.0,0.0,0.0,0.0,0.0,0.0,0.0,0.0,0.0,0.0,0.0,0.0,0.0,0.0,0.0,0.0,0.0,0.0,0.0,0.0,0.0,0.0,0.0,0.0,0.0,0.0,0.0,0.0,0.0,0.0,0.0,0.0,0.0,0.0,0.0,0.0,0.0,0.0,0.0,0.0,0.0,0.0,0.0,0.0,0.0,0.0,0.0,0.0,0.0,0.0,0.0,0.0,0.0,0.0,0.0,0.0,0.0,0.0,0.0,0.0,0.0,0.0,0.0,0.0,0.0,0.0,0.0,0.0,0.0,0.0,0.0,0.0,0.0,0.0,0.0,0.0,0.0,0.0,0.0,0.0,0.0,0.0,0.0,0.0,0.0,0.0,0.0,0.0,0.0,0.0,0.0,0.0,0.0,0.0,0.0,0.0,0.0,0.0,0.0,0.0,0.0,0.0,0.0,0.0,0.0,0.0,0.0,0.0,0.0,0.0,0.0,0.0,0.0,0.0,0.0,0.0,0.0,0.0,0.0,0.0,0.0,0.0,0.0,0.0,0.0,0.0,0.0,0.0,0.0,0.0,0.0,0.0,0.0,0.0,0.0,0.0,0.0,0.0,0.0,0.0,0.0,0.0,0.0,0.0,0.0,0.0,0.0,0.0,0.0,0.0,0.0,0.0,0.0,0.0,0.0,0.0,0.0,0.0,0.0,0.0,0.0,0.0,0.0,0.0,0.0,0.0,0.0,0.0,0.0,0.0,0.0,0.0,0.0,0.0,0.0,0.0,0.0,0.0,0.0,0.0,0.0,0.0,0.0,0.0,0.0,0.0,0.0,0.0,0.0,0.0,0.0,0.0,0.0,0.0,0.0,0.0,0.0,0.0,0.0,0.0,0.0,0.0,0.0,0.0,0.0,0.0,0.0,0.0,0.0,0.0,0.0,0.0,0.0,0.0,0.0,0.0,0.0,0.0,0.0,0.0,0.0,0.0,0.0,0.0,0.0,0.0,0.0,0.0,0.0,0.0,0.0,0.0,0.0,0.0,0.0,0.0,0.0,0.0,0.0,0.0,0.0,0.0,0.0,0.0,0.0,0.0,0.0,0.0,0.0,0.0,0.0,0.0,0.0,0.0,0.0,0.0,0.0,0.0,0.0,0.0,0.0,0.0,0.0,0.0,0.0,0.0,0.0,0.0,0.0,0.0,0.0,0.0,0.0,0.0,0.0,0.0,0.0,0.0,0.0,0.0,0.0,0.0,0.0,0.0,0.0,0.0,0.0,0.0,0.0,0.0,0.0,0.0,0.0,0.0,0.0,0.0,0.0,0.0,0.0,0.0,0.0,0.0,0.0,0.0,0.0,0.0,0.0,0.0,0.0,0.0,0.0,0.0,0.0,0.0,0.0,0.0,0.0,0.0,0.0,0.0,0.0,0.0,0.0,0.0,0.0,0.0,0.0,0.0,0.0,0.0,0.0,0.0,0.0,0.0,0.0,0.0,0.0,0.0,0.0,0.0,0.0,0.0,0.0,0.0,0.0,0.0,0.0,0.0,0.0,0.0,0.0,0.0,0.0,0.0,0.0,0.0,0.0,0.0,0.0,0.0,0.0,0.0,0.0,0.0,0.0,0.0,0.0,0.0,0.0,0.0,0.0,0.0,0.0,0.0,0.0,0.0,0.0,0.0,0.0,0.0,0.0,0.0,0.0,0.0,0.0,0.0,0.0,0.0,0.0,0.0,0.0,0.0,0.0,0.0,0.0,0.0,0.0,0.0,0.0,0.0,0.0,0.0,0.0,0.0,0.0,0.0,0.0,0.0,0.0,0.0,0.0,0.0,0.0,0.0,0.0,0.0,0.0,0.0,0.0,0.0,0.0,0.0,0.0,0.0,0.0,0.0,0.0,0.0,0.0,0.0,0.0,0.0,0.0,0.0,0.0,0.0,0.0,0.0,0.0,0.0,0.0,0.0,0.0,0.0,0.0,0.0,0.0,0.0,0.0,0.0,0.0,0.0,0.0,0.0,0.0,0.0,0.0,0.0,0.0,0.0,0.0,0.0,0.0,0.0,0.0,0.0,0.0,0.0,0.0,0.0,0.0,0.0,0.0,0.0,0.0,0.0,0.0,0.0,0.0,0.0,0.0,0.0,0.0,0.0,0.0,0.0,0.0,0.0,0.0,0.0,0.0,0.0,0.0,0.0,0.0,0.0,0.0,0.0,0.0,0.0,0.0,0.0,0.0,0.0,0.0,0.0,0.0,0.0,0.0,0.0,0.0,0.0,0.0,0.0,0.0,0.0,0.0,0.0,0.0,0.0,0.0,0.0,0.0,0.0,0.0,0.0,0.0,0.0,0.0,0.0,0.0,0.0,0.0,0.0,0.0,0.0,0.0,0.0,0.0,0.0,0.0,0.0,0.0,0.0,0.0,0.0,0.0,0.0,0.0,0.0,0.0,0.0,0.0,0.0,0.0,0.0,0.0,0.0,0.0,0.0,0.0,0.0,0.0,0.0,0.0,0.0,0.0,0.0,0.0,0.0,0.0,0.0,0.0,0.0,0.0,0.0,0.0,0.0,0.0,0.0,0.0,0.0,0.0,0.0,0.0,0.0,0.0,0.0,0.0,0.0,0.0,0.0,0.0,0.0,0.0,0.0,0.0,0.0,0.0,0.0,0.0,0.0,0.0,0.0,0.0,0.0,0.0,0.0,0.0,0.0,0.0,0.0,0.0,0.0,0.0,0.0,0.0,0.0,0.0,0.0,0.0,0.0,0.0,0.0,0.0,0.0,0.0,0.0,0.0,0.0,0.0,0.0,0.0,0.0,0.0,0.0,0.0,0.0,0.0,0.0,0.0,0.0,0.0,0.0,0.0,0.0,0.0,0.0,0.0,0.0,0.0,0.0,0.0,0.0,0.0,0.0,0.0,0.0,0.0,0.0,0.0,0.0,0.0,0.0,0.0,0.0,0.0,0.0,0.0,0.0,0.0,0.0,0.0,0.0,0.0,0.0,0.0,0.0,0.0,0.0,0.0,0.0,0.0,0.0,0.0,0.0,0.0,0.0,0.0,0.0,0.0,0.0,0.0,0.0,0.0,0.0,0.0,0.0,0.0,0.0,0.0,0.0,0.0,0.0,0.0,0.0,0.0,0.0,0.0,0.0,0.0,0.0,0.0,0.0,0.0,0.0,0.0,0.0,0.0,0.0,0.0,0.0,0.0,0.0,0.0,0.0,0.0,0.0,0.0,0.0,0.0,0.0,0.0,0.0,0.0,0.0,0.0,0.0,0.0,0.0,0.0,0.0,0.0,0.0,0.0,0.0,0.0,0.0,0.0,0.0,0.0,0.0,0.0,0.0,0.0,0.0,0.0,0.0,0.0,0.0,0.0,0.0,0.0,0.0,0.0,0.0,0.0,0.0,0.0,0.0,0.0,0.0,0.0,0.0,0.0,0.0,0.0,0.0,0.0,0.0,0.0,0.0,0.0,0.0,0.0,0.0,0.0,0.0,0.0,0.0,0.0,0.0,0.0,0.0,0.0,0.0,0.0,0.0,0.0,0.0,0.0,0.0,0.0,0.0,0.0,0.0,0.0,0.0,0.0,0.0,0.0,0.0,0.0,0.0,0.0,0.0,0.0,0.0,0.0,0.0,0.0,0.0,0.0,0.0,0.0,0.0,0.0,0.0,0.0,0.0,0.0,0.0,0.0,0.0,0.0,0.0,0.0,0.0,0.0,0.0,0.0,0.0,0.0,0.0,0.0,0.0,0.0,0.0,0.0,0.0,0.0,0.0,0.0,0.0,0.0,0.0,0.0,0.0,0.0,0.0,0.0,0.0,0.0,0.0,0.0,0.0,0.0,0.0,0.0,0.0,0.0,0.0,0.0,0.0,0.0,0.0,0.0,0.0,0.0,0.0,0.0,0.0,0.0,0.0,0.0,0.0,0.0,0.0,0.0,0.0,0.0,0.0,0.0,0.0,0.0,0.0,0.0,0.0,0.0,0.0,0.0,0.0,0.0,0.0,0.0,0.0,0.0,0.0,0.0,0.0,0.0,0.0,0.0,0.0,0.0,0.0,0.0,0.0,0.0,0.0,0.0,0.0,0.0,0.0,0.0,0.0,0.0,0.0,0.0,0.0,0.0,0.0,0.0,0.0,0.0,0.0,0.0,0.0,0.0,0.0,0.0,0.0,0.0,0.0,0.0,0.0,0.0,0.0,0.0,0.0,0.0,0.0,0.0,0.0,0.0,0.0,0.0,0.0,0.0,0.0,0.0,0.0,0.0,0.0,0.0,0.0,0.0,0.0,0.0,0.0,0.0,0.0,0.0,0.0,0.0,0.0,0.0,0.0,0.0,0.0,0.0,0.0,0.0,0.0,0.0,0.0,0.0,0.0,0.0,0.0,0.0,0.0,0.0,0.0,0.0,0.0,0.0,0.0,0.0,0.0,0.0,0.0,0.0,0.0,0.0,0.0,0.0,0.0,0.0,0.0,0.0,0.0,0.0,0.0,0.0,0.0,0.0,0.0,0.0,0.0,0.0,0.0,0.0,0.0,0.0,0.0,0.0,0.0,0.0,0.0,0.0,0.0,0.0,0.0,0.0,0.0,0.0,0.0,0.0,0.0,0.0,0.0,0.0,0.0,0.0,0.0,0.0,0.0,0.0,0.0,0.0,0.0,0.0,0.0,0.0,0.0,0.0,0.0,0.0,0.0,0.0,0.0,0.0,0.0,0.0,0.0,0.0,0.0,0.0,0.0,0.0,0.0,0.0,0.0,0.0,0.0,0.0,0.0,0.0,0.0,0.0,0.0,0.0,0.0,0.0,0.0,0.0,0.0,0.0,0.0,0.0,0.0,0.0,0.0,0.0,0.0,0.0,0.0,0.0,0.0,0.0,0.0,0.0,0.0,0.0,0.0,0.0,0.0,0.0,0.0,0.0,0.0,0.0,0.0,0.0,0.0,0.0,0.0,0.0,0.0,0.0,0.0,0.0,0.0,0.0,0.0,0.0,0.0,0.0,0.0,0.0,0.0,0.0,0.0,0.0,0.0,0.0,0.0,0.0,0.0,0.0,0.0,0.0,0.0,0.0,0.0,0.0,0.0,0.0,0.0,0.0,0.0,0.0,0.0,0.0,0.0,0.0,0.0,0.0,0.0,0.0,0.0,0.0,0.0,0.0,0.0,0.0,0.0,0.0,0.0,0.0,0.0,0.0,0.0,0.0,0.0,0.0,0.0,0.0,0.0,0.0,0.0,0.0,0.0,0.0,0.0,0.0,0.0,0.0,0.0,0.0,0.0,0.0,0.0,0.0,0.0,0.0,0.0,0.0,0.0,0.0,0.0,0.0,0.0,0.0,0.0,0.0,0.0,0.0,0.0,0.0,0.0,0.0,0.0,0.0,0.0,0.0,0.0,0.0,0.0,0.0,0.0,0.0,0.0,0.0,0.0,0.0,0.0,0.0,0.0,0.0,0.0,0.0,0.0,0.0,0.0,0.0,0.0,0.0,0.0,0.0,0.0,0.0,0.0,0.0,0.0,0.0,0.0,0.0,0.0,0.0,0.0,0.0,0.0,0.0,0.0,0.0,0.0,0.0,0.0,0.0,0.0,0.0,0.0,0.0,0.0,0.0,0.0,0.0,0.0,0.0,0.0,0.0,0.0,0.0,0.0,0.0,0.0,0.0,0.0,0.0,0.0,0.0,0.0,0.0,0.0,0.0,0.0,0.0,0.0,0.0,0.0,0.0,0.0,0.0,0.0,0.0,0.0,0.0,0.0,0.0,0.0,0.0,0.0,0.0,0.0,0.0,0.0,0.0,0.0,0.0,0.0,0.0,0.0,0.0,0.0,0.0,0.0,0.0,0.0,0.0,0.0,0.0,0.0,0.0,0.0,0.0,0.0,0.0,-3.4982,-3.4976,0.0,0.0,0.0,0.0,0.0,0.0,0.0,0.0,0.0,0.0,0.0,0.0,0.0,0.0,0.0,0.0,0.0,0.0,0.0,0.0,0.0,0.0,0.0,0.0,0.0,0.0,0.0,0.0,0.0,0.0,0.0,0.0,0.0,0.0,0.0,0.0,0.0,0.0,0.0,0.0,0.0,0.0,0.0,0.0,0.0,0.0,0.0,0.0,0.0,0.0,0.0,0.0,0.0,0.0,0.0,0.0,0.0,0.0,0.0,0.0,0.0,0.0,0.0,0.0,0.0,0.0,0.0,0.0,0.0,0.0,0.0,0.0,0.0,0.0,0.0,0.0,0.0,0.0,0.0,0.0,0.0,0.0,0.0,0.0,0.0,0.0,0.0,0.0,0.0,0.0,0.0,0.0,0.0,0.0,0.0,0.0,0.0,0.0,0.0,0.0,0.0,0.0,0.0,0.0,0.0,0.0,0.0,0.0,0.0,0.0,0.0,0.0,0.0,0.0,-3.5554,-3.5534,0.0,0.0,0.0,0.0,0.0,0.0,0.0,0.0,0.0,0.0,0.0,0.0,0.0,0.0,0.0,0.0,0.0,0.0,0.0,0.0,0.0,0.0,0.0,0.0,0.0,0.0,0.0,0.0,0.0,0.0,0.0,0.0,0.0,0.0,0.0,0.0,0.0,0.0,0.0,0.0,0.0,0.0,0.0,0.0,0.0,0.0,0.0,0.0,0.0,0.0,0.0,0.0,0.0,0.0,0.0,0.0,0.0,0.0,0.0,0.0,0.0,0.0,0.0,0.0,0.0,0.0,0.0,0.0,0.0,0.0,0.0,0.0,0.0,0.0,0.0,0.0,0.0,0.0,0.0,0.0,0.0,0.0,0.0,0.0,0.0,0.0,0.0,0.0,0.0,0.0,0.0,0.0,0.0,0.0,0.0,0.0,0.0,0.0,0.0,0.0,0.0,0.0,0.0,0.0,0.0,0.0,0.0,0.0,-3.5933,-3.5991,-3.5991,-3.6023,-3.5984,-3.5949,-3.5997,-3.5784,-3.5379,-3.5435,0.0,0.0,0.0,0.0,0.0,0.0,0.0,0.0,0.0,0.0,0.0,0.0,0.0,0.0,0.0,0.0,0.0,0.0,0.0,0.0,0.0,0.0,0.0,0.0,0.0,0.0,0.0,0.0,0.0,0.0,0.0,0.0,0.0,0.0,0.0,0.0,0.0,0.0,-2.9468,-2.96,-2.9564,-2.9416,0.0,0.0,0.0,0.0,0.0,0.0,0.0,0.0,0.0,0.0,0.0,0.0,0.0,0.0,0.0,0.0,0.0,0.0,0.0,0.0,0.0,0.0,0.0,0.0,0.0,0.0,0.0,0.0,0.0,0.0,0.0,0.0,0.0,0.0,0.0,0.0,0.0,0.0,0.0,0.0,0.0,0.0,0.0,0.0,-3.2459,-3.2464,0.0,0.0,0.0,0.0,0.0,0.0,0.0,0.0,0.0,0.0,0.0,0.0,0.0,-3.5554,-3.5507,-3.6199,-3.6531,-3.6477,-3.7252,-3.7593,-3.7593,-3.7661,-3.7676,-3.7661,-3.7676,0.0,-3.5315,-3.5254,0.0,0.0,0.0,0.0,0.0,0.0,0.0,0.0,0.0,0.0,0.0,0.0,0.0,0.0,0.0,0.0,0.0,0.0,0.0,0.0,0.0,0.0,0.0,0.0,0.0,0.0,0.0,0.0,0.0,0.0,0.0,0.0,0.0,0.0,0.0,0.0,-2.7589,-2.8877,-2.93,-2.9794,-3.0019,-3.0019,-3.0019,-2.991,-2.9701,-2.9626,0.0,0.0,0.0,0.0,0.0,0.0,0.0,0.0,0.0,0.0,0.0,0.0,0.0,0.0,0.0,0.0,0.0,0.0,0.0,0.0,0.0,0.0,0.0,0.0,0.0,0.0,0.0,0.0,0.0,0.0,0.0,0.0,0.0,0.0,0.0,0.0,0.0,0.0,0.0,-3.2551,-3.2795,-3.2752,-3.3216,-3.3518,0.0,0.0,0.0,0.0,0.0,0.0,0.0,0.0,0.0,-3.6074,-3.6608,-3.6873,-3.6863,-3.7723,-3.8146,-3.8136,-3.8958,-3.9358,-3.9358,-3.9392,-3.9411,-3.9411,-3.9411,-3.8954,-3.8155,-3.7133,-3.6753,-3.6803,0.0,0.0,0.0,0.0,-3.7018,-3.7299,0.0,0.0,0.0,0.0,0.0,0.0,0.0,0.0,0.0,0.0,0.0,0.0,0.0,0.0,0.0,-2.3474,0.0,0.0,0.0,0.0,0.0,0.0,0.0,0.0,0.0,0.0,0.0,0.0,-2.8621,-2.9453,-2.947,-3.0083,-3.0487,-3.0696,-3.0696,-3.0386,-2.9839,-2.9751,-2.9697,0.0,0.0,0.0,0.0,0.0,0.0,0.0,0.0,0.0,0.0,0.0,0.0,0.0,0.0,0.0,0.0,0.0,0.0,0.0,0.0,0.0,0.0,0.0,0.0,0.0,0.0,0.0,0.0,0.0,0.0,0.0,0.0,0.0,0.0,0.0,0.0,0.0,0.0,-3.3283,-3.3432,-3.3372,-3.3972,-3.4404,0.0,0.0,0.0,0.0,0.0,0.0,-3.5618,-3.6492,-3.7079,-3.7229,-3.7909,-3.8347,-3.8558,-3.9473,-3.9931,-3.995,-4.0758,-4.1162,-4.1162,-4.0931,-4.095,-4.1143,-4.0931,-4.095,-4.1027,-3.9269,-3.8546,-3.8565,-3.8546,-3.8527,-3.8562,-3.8597,-3.87,-3.8827,0.0,0.0,0.0,0.0,0.0,0.0,0.0,0.0,0.0,0.0,0.0,0.0,0.0,0.0,-2.1972,-2.2792,-2.2941,-2.3345,0.0,0.0,0.0,0.0,0.0,0.0,0.0,0.0,0.0,-2.951,-2.9001,-2.952,-3.1006,-3.0903,-3.1261,-3.1995,-3.1995,-3.124,-2.9992,-2.9977,-2.9981,-2.9956,0.0,0.0,0.0,0.0,0.0,0.0,0.0,0.0,0.0,0.0,0.0,0.0,0.0,0.0,0.0,0.0,0.0,0.0,0.0,0.0,0.0,0.0,0.0,0.0,0.0,0.0,0.0,0.0,0.0,0.0,0.0,0.0,0.0,0.0,0.0,0.0,0.0,0.0,0.0,-3.5178,-3.5216,0.0,0.0,0.0,0.0,-3.53,-3.6063,-3.6508,-3.6441,-3.7341,-3.8182,-3.8955,-3.915,-3.9604,-4.0354,-4.1239,-4.1681,-4.1681,-4.2547,-4.297,-4.2931,-4.2104,-4.22,-4.2912,-4.2085,-4.22,-4.2835,-4.1023,-4.031,-4.0373,-4.0312,-4.0279,-4.0279,-4.0279,-4.0725,-4.1323,0.0,0.0,0.0,0.0,0.0,0.0,0.0,0.0,0.0,0.0,0.0,0.0,0.0,-2.1967,-2.1935,-2.2719,-2.2923,-2.3345,-2.4153,0.0,0.0,0.0,0.0,0.0,0.0,0.0,-2.8537,-2.8727,-2.957,-3.0339,-3.1052,-3.1525,-3.1883,-3.2165,-3.2297,-3.2098,-3.1641,-3.0975,-3.0717,-3.0663,-3.0146,-2.9924,0.0,0.0,0.0,0.0,0.0,0.0,0.0,0.0,0.0,0.0,0.0,0.0,0.0,0.0,0.0,0.0,0.0,0.0,0.0,0.0,0.0,0.0,0.0,0.0,0.0,0.0,0.0,0.0,0.0,0.0,0.0,0.0,0.0,0.0,0.0,0.0,0.0,-3.5285,-3.5354,0.0,-3.6086,-3.6077,-3.6288,-3.6926,-3.7747,-3.8227,-3.8243,-3.9615,-4.0534,-4.0825,-4.1434,-4.1873,-4.2162,-4.2989,-4.3682,-4.4259,-4.5124,-4.5817,-4.6317,-4.6009,-4.6028,-4.6297,-4.599,-4.6028,-4.6278,-4.5608,-4.4107,-4.2162,-4.2148,-4.2132,-4.2132,-4.2132,-4.2288,-4.2597,0.0,0.0,0.0,0.0,0.0,0.0,0.0,0.0,0.0,0.0,0.0,-2.1452,-2.1762,-2.1443,-2.1552,-2.2392,-2.2777,-2.3327,-2.4096,0.0,0.0,0.0,0.0,0.0,0.0,-2.8498,-2.92,-2.9042,-3.0183,-3.1068,-3.1711,-3.2214,-3.2587,-3.2849,-3.2974,-3.3072,-3.3091,-3.2204,-3.1782,-3.1641,-3.0833,-3.0449,-3.0341,0.0,0.0,0.0,0.0,0.0,0.0,0.0,0.0,0.0,0.0,0.0,0.0,0.0,0.0,0.0,0.0,0.0,0.0,0.0,0.0,0.0,0.0,0.0,0.0,0.0,0.0,0.0,0.0,0.0,0.0,0.0,0.0,0.0,0.0,-3.5304,-3.5445,-3.5718,-3.5772,-3.6132,-3.6957,-3.7236,-3.7655,-3.8316,-3.9391,-4.0021,-4.0073,-4.1453,-4.2354,-4.2624,-4.3489,-4.4085,-4.4374,-4.5182,-4.5874,-4.6451,-4.7028,-4.7586,-4.8086,-4.7817,-4.7836,-4.8086,-4.7817,-4.7855,-4.8105,-4.8105,-4.6797,-4.4797,-4.4797,-4.4797,-4.4797,-4.4797,-4.4797,-4.4855,0.0,0.0,0.0,0.0,0.0,0.0,0.0,0.0,0.0,0.0,-2.1365,-2.1152,-2.046,-2.049,-2.0886,-2.1729,-2.2556,-2.3308,-2.3961,-2.3996,0.0,0.0,0.0,0.0,-2.7948,-2.8918,-2.9861,-3.0686,-3.0822,-3.1624,-3.3094,-3.2985,-3.3358,-3.4099,-3.4124,-3.4148,-3.4165,-3.3612,-3.3201,-3.2885,-3.1908,-3.145,-3.1232,0.0,0.0,0.0,0.0,0.0,0.0,0.0,0.0,0.0,0.0,0.0,0.0,0.0,0.0,0.0,0.0,0.0,0.0,0.0,0.0,0.0,0.0,0.0,0.0,0.0,0.0,0.0,0.0,0.0,0.0,0.0,0.0,0.0,-3.5248,-3.5358,-3.5744,-3.6558,-3.6658,-3.7034,-3.789,-3.8719,-3.9237,-3.9411,-4.095,-4.1893,-4.1931,-4.2758,-4.3585,-4.4393,-4.524,-4.6086,-4.6932,-4.7721,-4.8105,-4.8144,-4.8144,-4.8144,-4.8144,-4.7375,-4.7451,-4.8144,-4.7355,-4.7471,-4.8182,-4.8182,-4.8182,-4.8182,-4.8125,-4.8105,-4.8105,-4.8105,-4.8125,-4.8144,0.0,0.0,0.0,0.0,0.0,0.0,0.0,0.0,0.0,0.0,-2.1365,-2.1152,-2.046,-2.102,-2.1528,-2.1784,-2.307,-2.3913,-2.3998,0.0,0.0,0.0,0.0,0.0,-2.8758,-2.9706,-3.0309,-3.0553,-3.179,-3.2612,-3.3036,-3.3584,-3.395,-3.4173,-3.4381,-3.4473,-3.4498,-3.4466,-3.4415,-3.4217,-3.2683,-3.2077,-3.1998,0.0,0.0,0.0,0.0,0.0,0.0,0.0,0.0,0.0,0.0,0.0,0.0,0.0,0.0,0.0,0.0,0.0,0.0,0.0,0.0,0.0,0.0,0.0,0.0,0.0,0.0,0.0,0.0,0.0,0.0,0.0,-3.6157,-3.6274,-3.6289,-3.6319,-3.6661,-3.7516,-3.817,-3.8896,-3.9704,-4.0569,-4.1338,-4.2008,-4.3028,-4.3893,-4.4509,-4.5374,-4.622,-4.7028,-4.7298,-4.7528,-4.7778,-4.799,-4.8413,-4.9048,-4.9048,-4.9375,-4.9971,-4.976,-4.9779,-4.9971,-4.974,-4.9779,-4.999,-4.999,-4.999,-4.9856,-4.8586,-4.8105,-4.8105,-4.8105,-4.8509,-4.9048,0.0,0.0,0.0,0.0,0.0,0.0,0.0,0.0,0.0,0.0,-2.1384,-2.1025,-2.0054,-2.1036,-2.1803,-2.1803,-2.3217,-2.4074,-2.3917,0.0,0.0,0.0,0.0,-2.8673,-2.9156,-3.008,-3.0865,-3.1551,-3.2525,-3.3157,-3.351,-3.3974,-3.4197,-3.4197,-3.4363,-3.4431,-3.445,-3.4564,-3.4609,-3.4534,-3.3496,-3.2995,-3.2731,-3.19,-3.158,-3.1523,-3.0996,-3.0808,-3.0845,-3.0845,0.0,0.0,0.0,0.0,0.0,0.0,0.0,0.0,0.0,0.0,0.0,0.0,0.0,0.0,0.0,0.0,0.0,0.0,0.0,0.0,0.0,0.0,0.0,0.0,-3.7146,-3.7851,-3.8247,-3.7997,-3.8093,-3.895,-3.9815,-4.0662,-4.1508,-4.2354,-4.322,-4.4085,-4.4913,-4.5759,-4.6605,-4.7124,-4.7625,-4.8086,-4.8452,-4.8644,-4.8644,-4.9009,-4.9433,-4.9933,-4.9933,-5.0202,-5.0702,-5.0702,-5.0702,-5.0702,-5.0702,-5.0702,-5.0702,-5.0702,-5.0702,-5.0587,0.0,0.0,0.0,0.0,-4.951,-4.9933,0.0,0.0,0.0,0.0,0.0,0.0,0.0,0.0,0.0,0.0,0.0,-2.0862,-1.9457,-2.0811,-2.1803,-2.1803,-2.3142,-2.3937,0.0,0.0,0.0,-2.5489,-2.7848,-2.9267,-2.9453,-3.0293,-3.1489,-3.299,-3.3083,-3.3491,-3.4197,-3.4197,-3.4197,-3.4197,-3.4197,-3.4197,-3.4197,-3.4197,-3.4197,-3.4197,-3.4197,-3.3938,-3.3443,-3.2574,-3.2212,-3.215,-3.1992,-3.2103,-3.2317,-3.2317,0.0,0.0,0.0,0.0,0.0,0.0,0.0,0.0,0.0,0.0,0.0,0.0,0.0,0.0,0.0,0.0,0.0,0.0,0.0,0.0,0.0,0.0,0.0,0.0,-3.8235,-3.9618,-4.0662,-4.0258,-4.0104,-4.0719,-4.1566,-4.2431,-4.3297,-4.4124,-4.4951,-4.5817,-4.6605,-4.7394,-4.8202,-4.8259,0.0,0.0,0.0,-4.9548,-4.9548,-5.0298,-5.0702,-5.0702,-5.0702,-5.0702,-5.0702,-5.0702,-5.0702,-5.0702,-5.0702,-5.0702,-5.0702,-5.0663,-5.0643,-5.0604,-5.0663,-5.0683,-5.0624,-5.0624,-5.0624,-5.0604,0.0,0.0,0.0,0.0,0.0,0.0,0.0,0.0,0.0,-2.1581,-2.1403,-2.0862,-1.9457,-2.0811,-2.1803,-2.1803,-2.3142,-2.3996,0.0,0.0,-2.5862,-2.6479,-2.7672,-2.8977,-3.0333,-3.1151,-3.2024,-3.299,-3.364,-3.4048,-3.4197,-3.4197,-3.4197,-3.4197,-3.4197,-3.4197,-3.4197,-3.4197,-3.4197,-3.4197,-3.4197,-3.4269,-3.4285,-3.3398,-3.3161,-3.3204,-3.2468,-3.2278,-3.2371,-3.2371,-3.2477,-3.2575,-3.239,0.0,0.0,0.0,0.0,0.0,0.0,0.0,0.0,0.0,0.0,0.0,0.0,0.0,0.0,0.0,0.0,0.0,0.0,0.0,0.0,-3.926,-3.9895,-4.0781,-4.2374,-4.3028,-4.3143,-4.2662,-4.3316,-4.4162,-4.5028,-4.5893,-4.674,-4.7548,-4.7778,-4.824,-4.9106,-4.9144,-4.9471,-5.0164,-5.0356,-5.0452,-5.0452,-5.0606,-5.0702,-5.0702,-5.0702,0.0,-5.0702,-5.0702,-5.0702,-5.0702,-5.0702,-5.0702,-5.0683,-5.0421,-5.0178,-5.0012,-5.0523,-5.0525,-5.0294,-5.0294,-5.0159,-4.9962,0.0,0.0,0.0,0.0,0.0,0.0,0.0,0.0,0.0,0.0,-2.1958,-2.1548,-2.0461,-2.1462,-2.219,-2.219,-2.3226,0.0,0.0,-2.523,-2.6254,-2.678,-2.8046,-2.9537,-3.1151,-3.1578,-3.2377,-3.3603,-3.3993,-3.4197,-3.4197,-3.4197,-3.4197,-3.4197,-3.4197,-3.4245,-3.4293,-3.4293,-3.434,-3.4386,-3.4386,-3.4473,-3.4545,-3.396,-3.3902,-3.4033,-3.3539,-3.3468,-3.3639,-3.3582,-3.3728,-3.3853,-3.3372,-3.3541,-3.3856,0.0,0.0,0.0,0.0,0.0,0.0,0.0,0.0,0.0,0.0,0.0,0.0,0.0,0.0,-3.709,-3.7528,0.0,-3.9482,-4.0746,-4.1771,-4.2701,-4.3585,-4.4412,-4.4643,-4.3797,-4.4836,-4.5778,-4.6201,-4.7009,-4.7855,-4.8682,-4.8759,-4.9125,-4.999,-5.0048,-5.024,-5.0683,-5.0702,-5.0702,-5.0702,-5.0702,-5.0702,-5.0702,-5.0702,-5.0702,-5.0702,-5.0702,-5.0702,-5.0683,-5.0504,-5.0442,-5.0421,-5.0111,-4.9917,-4.983,-5.013,-5.0155,-4.9993,-4.9993,-4.9936,-4.9803,0.0,0.0,0.0,0.0,0.0,0.0,0.0,0.0,0.0,0.0,-2.2488,-2.2224,-2.1492,-2.2108,-2.265,0.0,0.0,0.0,0.0,-2.547,-2.6514,-2.6801,-2.8307,-2.9909,-3.1522,-3.1708,-3.2507,-3.3956,-3.4123,-3.4197,-3.4197,-3.4197,-3.4221,-3.4245,-3.4245,-3.4316,-3.445,-3.445,-3.4495,-3.4602,-3.4602,-3.4623,-3.4623,-3.4363,-3.4409,-3.4602,-3.4473,-3.4628,-3.487,-3.4773,-3.4981,-3.512,-3.4323,-3.462,-3.5105,-3.4287,-3.4573,0.0,0.0,0.0,0.0,0.0,0.0,0.0,0.0,0.0,-3.6649,-3.6929,-3.7634,-3.8456,-3.9335,-4.0248,-4.118,-4.2044,-4.338,-4.4355,-4.4528,-4.5297,-4.5586,-4.4893,-4.6047,-4.7028,-4.7355,-4.7971,-4.8702,-4.9586,-4.9644,-4.9952,-5.0644,-5.0702,-5.0702,-5.0702,-5.0702,-5.0702,-5.0702,-5.0702,-5.0702,-5.0702,-5.0702,-5.0663,-5.0604,-5.0604,-5.0565,-5.0523,-5.0249,-5.0092,-5.0038,-4.9803,-4.9693,-4.9637,-4.9637,-4.9637,-4.9618,-4.9693,-4.9693,-4.9637,0.0,0.0,0.0,0.0,0.0,0.0,0.0,0.0,0.0,0.0,0.0,0.0,0.0,0.0,0.0,0.0,0.0,0.0,-2.3996,-2.4999,-2.6004,-2.686,-2.7751,-2.9035,-3.0708,-3.1429,-3.2228,-3.312,-3.3844,-3.4197,-3.4197,-3.4197,-3.4269,-3.4381,-3.4381,-3.445,-3.458,-3.458,-3.4602,-3.4602,-3.4602,-3.4666,-3.4768,-3.4623,-3.4561,-3.4602,-3.4583,-3.4689,-3.4831,-3.487,-3.4982,-3.5102,-3.5059,-3.5083,-3.5108,-3.4992,0.0,-3.5038,-3.5075,-3.5126,-3.5174,-3.5124,-3.5728,-3.6332,0.0,0.0,-3.7787,-3.857,-3.9373,-4.0195,-4.1055,-4.1991,-4.2926,-4.3789,-4.413,-4.4566,-4.5336,-4.6201,-4.6721,-4.6624,-4.6778,-4.749,-4.8971,-4.9202,-4.9625,-5.0491,-5.0548,-5.0587,-5.0683,-5.0702,-5.0702,-5.0702,-5.0702,-5.0702,-5.0702,-5.0702,-5.0702,-5.0702,-5.0702,-5.0544,-5.0272,-5.0272,-5.0135,-4.991,-4.9857,-4.9693,-4.9488,-4.9457,-4.927,-4.8974,-4.8974,-4.8974,-4.9061,-4.9334,-4.927,-4.8974,0.0,0.0,0.0,0.0,0.0,0.0,0.0,0.0,0.0,0.0,0.0,0.0,0.0,0.0,0.0,0.0,0.0,0.0,-2.3996,-2.4984,-2.5968,-2.686,-2.7678,-2.8866,-3.0578,-3.0931,-3.1727,-3.299,-3.3324,-3.3733,-3.4197,-3.4197,-3.4269,-3.4386,-3.4386,-3.4517,-3.4727,-3.4727,-3.4749,-3.4771,-3.4771,-3.4811,-3.485,-3.4791,-3.4771,-3.4771,-3.4687,-3.4749,0.0,0.0,-3.4889,-3.5037,-3.5037,-3.5108,-3.5196,-3.5105,-3.5141,0.0,-3.5308,-3.5668,-3.6013,-3.6025,-3.6707,-3.7506,-3.8009,-3.8745,-3.9588,-4.0502,-4.133,-4.2138,-4.2982,-4.3476,-4.4049,-4.4897,-4.5066,-4.5409,-4.624,-4.6682,-4.7259,-4.824,-4.8355,-4.8625,-4.9336,-4.9856,-5.0298,-5.0664,-5.0702,-5.0702,-5.0702,-5.0702,-5.0702,-5.0702,-5.0702,-5.0702,-5.0702,-5.0702,-5.0604,-5.0421,-5.0421,-5.0249,-4.9987,-4.9987,-4.983,-4.9588,-4.9588,-4.9377,-4.9164,-4.9668,-4.9772,-4.9652,-5.0153,-5.0358,-5.0228,-4.9433,-4.9027,-4.8964,0.0,0.0,0.0,0.0,0.0,0.0,0.0,0.0,0.0,0.0,0.0,0.0,0.0,0.0,0.0,0.0,0.0,0.0,0.0,-2.4762,-2.5634,-2.6525,-2.7139,0.0,-2.9872,-3.015,-3.0946,-3.234,-3.2544,-3.2971,-3.3528,-3.3799,-3.3999,-3.4154,-3.4383,-3.4626,-3.4829,-3.4829,-3.4869,-3.4908,-3.4908,-3.4775,-3.4567,-3.4567,-3.4567,-3.4548,-3.4694,-3.4827,0.0,0.0,-3.481,-3.4908,-3.487,-3.502,-3.5176,-3.5107,-3.5174,-3.5358,-3.5701,-3.6214,-3.6752,-3.7271,-3.8089,-3.897,-3.9817,-4.0654,-4.1505,-4.2433,-4.3076,-4.3698,-4.4523,-4.4713,-4.4941,-4.5541,-4.5673,-4.5982,-4.6796,-4.7086,-4.7778,-4.9221,-4.9606,-4.976,-4.976,-5.0317,-5.0702,-5.0702,-5.0702,-5.0702,-5.0702,-5.0702,-5.0702,-5.0702,-5.0702,-5.0663,-5.0565,-5.0565,-5.0399,-5.0087,-5.0087,-4.9962,-4.9684,-4.9608,-4.945,-4.9257,-4.9501,-4.9463,-4.9299,-5.0172,-5.0506,-5.0525,-5.1156,-5.1398,-5.1249,-5.0042,-4.9596,-4.9689,0.0,0.0,0.0,0.0,0.0,0.0,0.0,0.0,0.0,0.0,0.0,0.0,0.0,0.0,0.0,0.0,0.0,0.0,0.0,-2.4134,-2.4691,-2.569,-2.5764,-2.6544,-2.8123,-2.9016,-2.9853,-3.0671,-3.1452,-3.1838,-3.1898,-3.281,-3.3294,-3.3477,-3.4389,-3.483,-3.4908,-3.4908,-3.4908,-3.4908,-3.4908,-3.4434,-3.3733,-3.3733,-3.3696,-3.3753,-3.4585,0.0,0.0,0.0,-3.4768,-3.4708,-3.4788,-3.4849,0.0,-3.5001,-3.5108,-3.5398,-3.6312,-3.6637,-3.7098,-3.8796,-3.9932,-4.0822,-4.1644,-4.2478,-4.3366,-4.4234,-4.4395,-4.463,-4.5507,-4.5648,-4.5671,-4.57,-4.5706,-4.5982,-4.6773,-4.7566,-4.8394,-4.9298,-5.0144,-5.0644,-5.0644,-5.0683,-5.0702,-5.0702,-5.0702,-5.0702,-5.0702,-5.0702,-5.0702,-5.0702,-5.0702,-5.0544,-5.0206,-5.0206,-5.0087,-4.9811,-4.9811,-4.9684,-4.9396,-4.9094,-4.8925,-4.8946,-4.9726,-5.006,-5.0135,-5.1008,-5.1361,-5.1361,-5.1398,-5.1398,-5.1398,-5.1342,-5.1323,-5.1323,0.0,0.0,0.0,0.0,0.0,0.0,0.0,0.0,0.0,0.0,0.0,0.0,0.0,0.0,0.0,0.0,0.0,0.0,0.0,-2.4096,-2.4635,-2.5448,-2.5634,-2.621,-2.7288,-2.8124,-2.8961,-2.9816,-3.0615,-3.1306,-3.193,-3.2254,-3.2512,-3.2674,-3.2996,-3.3186,-3.324,-3.324,-3.324,-3.324,-3.324,-3.3089,-3.2842,-3.2843,-3.3147,-3.362,0.0,0.0,0.0,0.0,0.0,-3.4708,-3.4811,-3.4908,-3.4982,-3.5108,-3.5608,-3.6201,-3.6579,-3.7954,-3.945,-4.014,-4.1384,-4.264,-4.351,-4.3887,-4.4317,-4.5186,-4.5263,-4.5293,-4.558,-4.5635,-4.5635,-4.5618,-4.5703,-4.6256,-4.7632,-4.7876,-4.8489,-5.0067,-5.0186,-5.0178,-5.0358,-5.0358,-5.0358,-5.0358,-5.0358,-5.0358,-5.0358,-5.0565,-5.0604,-5.038,-5.0358,-5.0225,-4.9936,-4.9917,-4.9803,-4.9529,-4.9315,-4.9174,-4.9079,-4.9482,-4.9707,-4.9745,-5.0599,-5.0971,-5.1026,-5.1862,-5.2197,-5.2252,-5.2791,-5.2995,-5.2995,-5.2995,-5.2995,-5.2921,0.0,0.0,0.0,0.0,0.0,0.0,0.0,0.0,0.0,0.0,0.0,0.0,0.0,0.0,0.0,0.0,0.0,0.0,0.0,0.0,-2.4373,-2.4964,-2.5059,-2.5504,-2.6318,-2.6874,-2.7688,-2.8796,-2.9397,-3.0129,-3.1036,-3.1418,-3.1672,-3.1864,-3.2203,-3.2353,-3.2406,-3.2406,-3.2389,-3.2408,-3.2408,-3.22,-3.1936,-3.1937,-3.2222,0.0,0.0,0.0,0.0,0.0,0.0,-3.4687,-3.4811,-3.4946,-3.5113,-3.557,-3.6128,-3.6819,-3.7824,-3.932,-4.0861,-4.1899,-4.2976,-4.4001,-4.4833,-4.5012,-4.5042,-4.5307,-4.526,-4.5178,-4.5175,-4.5139,-4.5199,-4.5565,-4.5654,-4.6285,-4.7929,-4.7971,-4.8482,-5.0234,-5.0111,-4.9936,-5.0043,-4.9987,-4.9943,-5.0062,-5.0062,-5.0062,-5.0062,-5.0268,-5.0291,-5.0043,-5.0062,-4.9936,-4.9655,-4.9655,-4.951,-4.9225,-4.8993,-4.9057,-4.9355,-4.9875,-5.0283,-5.0618,-5.1454,-5.1825,-5.1881,-5.2698,-5.3032,-5.3088,-5.3608,-5.3813,-5.3813,-5.3813,-5.3813,-5.3738,0.0,0.0,0.0,0.0,0.0,0.0,0.0,0.0,0.0,0.0,0.0,0.0,0.0,0.0,0.0,0.0,0.0,0.0,0.0,0.0,0.0,-2.417,-2.4132,-2.4441,-2.523,-2.5326,-2.6096,-2.7574,-2.78,-2.8373,-2.9256,-3.0262,-3.081,-3.0959,-3.1843,-3.2256,-3.2256,-3.2256,-3.2257,-3.2277,-3.2277,-3.1768,-3.1015,-3.1015,0.0,0.0,0.0,0.0,0.0,0.0,0.0,-3.4626,-3.4769,-3.4984,-3.5372,-3.6335,-3.6669,-3.7309,-3.9899,-4.0673,-4.1363,-4.3949,-4.4639,-4.4852,-4.5568,-4.5742,-4.551,-4.4703,-4.4423,-4.4341,0.0,0.0,-4.4477,-4.5376,-4.5512,-4.6033,-4.7624,-4.7869,-4.8391,0.0,0.0,0.0,0.0,-4.9558,-4.9469,-4.9749,-4.9776,-4.9776,-4.9776,-4.9784,-4.9784,-4.9776,-4.9776,-4.9655,-4.9384,-4.9384,-4.9206,-4.8909,-4.8909,-4.9317,-5.0098,-5.0153,-5.0636,-5.1509,-5.2308,-5.2661,-5.2717,-5.3497,-5.3813,-5.3813,-5.3813,-5.3813,-5.3813,-5.3813,-5.3813,-5.3813,0.0,0.0,0.0,0.0,0.0,0.0,0.0,0.0,0.0,0.0,0.0,0.0,0.0,0.0,0.0,0.0,0.0,0.0,0.0,0.0,0.0,0.0,0.0,0.0,0.0,0.0,0.0,0.0,0.0,-2.7398,-2.8255,-2.8586,-2.9116,-2.9811,-3.0114,-3.0284,-3.0302,-3.0302,-3.0376,-3.0448,0.0,-3.0335,-3.0129,0.0,0.0,0.0,0.0,0.0,0.0,0.0,0.0,0.0,0.0,-3.5611,-3.6339,-3.6594,-3.7632,-3.8979,-4.0254,-4.1589,-4.2943,-4.4258,-4.5045,-4.5394,-4.5007,-4.491,-4.4645,-4.3738,-4.3435,-4.3335,0.0,0.0,0.0,-4.4442,-4.4998,0.0,-4.6857,-4.7296,0.0,-4.9197,0.0,-4.9469,-4.9627,-4.9283,-4.9061,-4.9123,-4.9346,-4.9499,-4.9499,-4.9693,-4.9693,-4.9499,-4.9499,-4.9365,-4.9027,-4.9027,-4.8993,-4.8909,-4.8909,-4.9317,-5.0135,-5.0766,-5.1528,-5.2345,-5.3144,-5.3497,-5.3515,-5.372,-5.3813,-5.3813,-5.3813,-5.3813,-5.3813,-5.3813,-5.3813,-5.3813,0.0,0.0,0.0,0.0,0.0,0.0,0.0,0.0,0.0,0.0,0.0,0.0,0.0,0.0,0.0,0.0,0.0,0.0,0.0,0.0,0.0,0.0,0.0,0.0,0.0,0.0,0.0,0.0,0.0,0.0,0.0,-2.7777,-2.8327,-2.8988,-2.9343,-2.957,-2.9681,0.0,0.0,0.0,0.0,0.0,0.0,0.0,0.0,0.0,0.0,0.0,0.0,0.0,0.0,-3.4963,-3.507,-3.5793,-3.6714,-3.7184,0.0,-4.0196,-4.1454,-4.2814,-4.4078,-4.4929,-4.52,-4.5148,-4.4675,-4.4269,-4.3719,-4.2776,-4.2489,-4.2368,-4.235,-4.2642,-4.3156,0.0,0.0,0.0,-4.6366,-4.7067,-4.7789,0.0,-4.9097,0.0,-4.9427,-4.9127,-4.8909,-4.8909,-4.9061,-4.9193,-4.9193,-4.9327,-4.9327,-4.9193,-4.9193,-4.9094,-4.8909,-4.8909,-4.8909,-4.8909,-4.8909,-4.9522,-5.0692,-5.1175,-5.2029,-5.3144,-5.3608,-5.3813,-5.3813,-5.3813,-5.3813,-5.3813,-5.3813,-5.3813,-5.3813,-5.3813,-5.3813,-5.3813,0.0,0.0,0.0,0.0,0.0,0.0,0.0,0.0,0.0,0.0,0.0,0.0,0.0,0.0,0.0,0.0,0.0,0.0,0.0,0.0,0.0,0.0,0.0,0.0,0.0,0.0,0.0,0.0,0.0,0.0,0.0,0.0,0.0,0.0,0.0,0.0,0.0,0.0,0.0,0.0,0.0,0.0,0.0,0.0,0.0,0.0,0.0,0.0,0.0,0.0,-3.4131,-3.4926,-3.5088,-3.5854,-3.6884,-3.7841,-3.938,-4.115,-4.2847,-4.3943,-4.4775,-4.5471,-4.5123,-4.4515,-4.4225,-4.3559,-4.2772,-4.1813,0.0,-4.1416,-4.1415,-4.1399,-4.1869,-4.3319,0.0,-4.4376,-4.577,-4.6852,-4.7688,-4.822,-4.8923,-4.9352,-4.9244,-4.9046,-4.8909,-4.8909,-4.8909,-4.8909,-4.8909,-4.8909,-4.8909,-4.8909,-4.8909,-4.8909,-4.8909,-4.8909,-4.8909,-4.8909,-4.8909,-4.9782,-5.1398,-5.1398,-5.2289,-5.3813,-5.3813,-5.3813,-5.3813,-5.3813,-5.3813,-5.3813,-5.3813,-5.3813,-5.3813,-5.3813,-5.3813,-5.3813,0.0,0.0,0.0,0.0,0.0,0.0,0.0,0.0,0.0,0.0,-2.3217,0.0,0.0,0.0,0.0,0.0,0.0,0.0,0.0,0.0,0.0,0.0,0.0,0.0,0.0,0.0,0.0,0.0,0.0,0.0,0.0,0.0,0.0,0.0,0.0,0.0,0.0,0.0,0.0,0.0,0.0,0.0,0.0,0.0,0.0,0.0,0.0,0.0,0.0,0.0,-3.415,-3.5016,-3.5203,-3.6396,-3.7814,-3.8092,-3.9888,-4.1977,-4.3015,-4.3943,-4.4639,-4.4775,-4.4697,-4.4206,-4.27,-4.2227,0.0,0.0,-4.059,-4.0519,-4.0444,-4.0939,-4.1409,-4.1711,-4.2905,-4.3908,-4.4123,-4.6038,-4.7453,0.0,-4.8654,-4.9384,-4.9384,-4.9094,-4.8909,-4.8909,-4.8909,-4.8909,-4.8909,-4.8909,-4.8909,-4.8909,-4.8909,-4.8909,-4.8909,-4.8909,-4.8909,-4.8909,-4.8909,-4.9782,-5.1398,-5.1398,-5.2289,-5.3813,-5.3813,-5.3813,-5.3813,-5.3813,-5.3813,-5.3813,-5.3813,-5.3813,-5.3813,-5.3813,-5.3813,-5.3813,0.0,0.0,0.0,0.0,0.0,0.0,0.0,0.0,0.0,0.0,-2.3095,-2.3241,0.0,0.0,0.0,0.0,0.0,0.0,0.0,0.0,0.0,0.0,0.0,0.0,0.0,0.0,-2.3674,-2.37,0.0,0.0,0.0,-2.4911,-2.5421,0.0,0.0,0.0,0.0,0.0,0.0,0.0,0.0,0.0,0.0,0.0,0.0,0.0,0.0,0.0,0.0,0.0,-3.3469,-3.4394,-3.5005,-3.6159,-3.7373,-3.7926,-3.9651,-4.1564,-4.2396,-4.3206,-4.3834,-4.391,-4.3535,-4.2917,-4.2048,0.0,0.0,0.0,-4.0272,-4.0196,-4.0196,-4.0401,0.0,-4.1212,-4.231,-4.3213,-4.3644,-4.5483,0.0,-4.7254,-4.8163,-4.8915,-4.9252,-4.9079,-4.8909,-4.8909,-4.8909,-4.8909,-4.8909,-4.8909,-4.8909,-4.8909,-4.8909,-4.8909,-4.8909,-4.8909,-4.8909,-4.8909,-4.8909,-4.954,-5.0729,-5.0729,-5.1621,-5.3181,-5.3181,-5.3423,-5.3813,-5.3813,-5.3813,-5.3813,-5.3813,-5.3813,-5.3813,-5.3813,-5.3813,-5.3813,0.0,0.0,0.0,0.0,0.0,0.0,0.0,-2.2659,-2.2816,-2.2842,-2.2944,-2.3045,-2.3052,-2.3095,-2.3151,0.0,0.0,0.0,0.0,0.0,0.0,0.0,0.0,0.0,0.0,0.0,0.0,-2.3725,-2.3786,0.0,0.0,0.0,0.0,0.0,-2.6074,-2.6913,0.0,0.0,0.0,0.0,0.0,-2.9492,0.0,0.0,0.0,0.0,0.0,0.0,0.0,0.0,-3.2543,-3.3469,-3.4467,-3.5611,-3.6731,-3.7511,-3.9168,-4.0894,-4.1564,-4.2439,-4.313,-4.3027,-4.229,-4.1581,-4.154,-4.0835,0.0,-4.029,-4.0176,-4.0117,-4.0176,0.0,-4.0138,0.0,-4.1616,-4.2427,-4.3256,-4.4833,-4.6145,0.0,-4.7671,0.0,-4.8894,-4.8919,-4.8909,-4.8909,-4.8909,-4.8909,-4.8909,-4.8909,-4.8909,-4.8909,-4.8909,-4.8909,-4.8909,-4.8909,-4.8909,-4.8909,-4.8909,-4.9317,-5.0098,-5.0098,-5.0933,-5.2345,-5.2345,-5.281,-5.3553,-5.3553,-5.3645,-5.3813,-5.3813,-5.3813,-5.3813,-5.3813,-5.3813,-5.3813,0.0,0.0,0.0,0.0,0.0,0.0,0.0,-2.2487,-2.2569,-2.2605,-2.2685,-2.279,-2.2919,-2.3095,-2.3241,0.0,0.0,0.0,0.0,0.0,0.0,0.0,0.0,0.0,0.0,0.0,0.0,-2.3795,-2.3855,0.0,0.0,0.0,0.0,0.0,0.0,-2.5631,-2.5779,0.0,0.0,0.0,0.0,0.0,0.0,0.0,0.0,0.0,0.0,0.0,0.0,0.0,0.0,-3.2505,-3.3525,-3.5053,-3.6556,-3.6832,0.0,0.0,-4.0855,-4.2067,-4.3098,-4.2318,-4.1506,-4.0849,-4.0669,0.0,-3.9503,-4.0156,-4.0176,-4.0117,-4.0117,-3.9975,-3.9908,0.0,0.0,-4.1463,0.0,-4.38,-4.5141,-4.5773,0.0,0.0,-4.8127,-4.8584,-4.8909,-4.8909,-4.8909,-4.8909,-4.8909,-4.8909,-4.8909,-4.8909,-4.8909,-4.8909,-4.8909,-4.8909,-4.8909,-4.8909,-4.8909,-4.9317,-5.0098,-5.0098,-5.0618,-5.1509,-5.1509,-5.1974,-5.2717,-5.2717,-5.3144,-5.3813,-5.3813,-5.3813,-5.3813,-5.3813,-5.3813,-5.3813,0.0,0.0,0.0,0.0,0.0,0.0,0.0,-2.2487,-2.2569,-2.2596,-2.2659,-2.2764,-2.2893,-2.3028,-2.3193,0.0,0.0,0.0,0.0,0.0,0.0,0.0,0.0,0.0,0.0,0.0,-2.3807,-2.3795,-2.3876,0.0,0.0,0.0,0.0,0.0,0.0,-2.5116,-2.5634,-2.6377,0.0,0.0,0.0,0.0,0.0,0.0,0.0,0.0,0.0,0.0,0.0,0.0,0.0,0.0,-3.3318,-3.4546,0.0,0.0,-3.7442,-3.8453,-3.9076,-3.9657,-4.0056,-3.9792,-3.9706,-3.9707,-3.966,0.0,-3.9831,-4.012,-4.0117,-4.0057,-4.0077,-3.9954,-3.9826,-3.9804,0.0,0.0,-4.2065,0.0,-4.4421,-4.5519,-4.6641,-4.7498,-4.7779,-4.846,-4.8909,-4.8909,-4.8909,-4.8909,-4.8909,-4.8909,-4.8909,-4.8909,-4.8909,-4.8909,-4.8909,-4.8909,-4.8909,-4.8909,-4.8909,-4.9076,-4.9392,-4.9392,-4.9837,-5.0618,-5.0618,-5.1101,-5.1881,-5.1881,-5.2067,-5.2364,-5.2364,-5.2661,-5.3088,-5.3088,-5.3385,-5.3813,0.0,0.0,0.0,0.0,0.0,0.0,-2.246,-2.2542,-2.2623,-2.2649,-2.2659,-2.2738,-2.2842,-2.2995,-2.3144,-2.3241,0.0,0.0,0.0,0.0,0.0,0.0,0.0,0.0,0.0,0.0,-2.3831,-2.3876,-2.3917,-2.3958,0.0,0.0,-2.4228,-2.4266,0.0,0.0,0.0,0.0,0.0,0.0,0.0,0.0,0.0,0.0,0.0,0.0,0.0,0.0,0.0,0.0,0.0,0.0,0.0,0.0,0.0,0.0,-3.6488,-3.691,-3.759,-3.7913,-3.808,-3.8175,-3.8276,-3.8418,0.0,0.0,-3.9109,-3.9318,-3.9315,-3.9352,-3.9619,-3.9532,-3.9498,0.0,0.0,-4.0898,-4.1926,-4.2629,-4.3555,-4.495,0.0,-4.6688,-4.7307,-4.8296,-4.8909,-4.8909,-4.8909,-4.8909,-4.8909,-4.8909,-4.8909,-4.8909,-4.8909,-4.8909,-4.8909,-4.8909,-4.8909,-4.8909,-4.8909,-4.8909,-4.8909,-4.8909,-4.9206,-4.9763,-4.9763,-5.0228,-5.1026,-5.1026,-5.1175,-5.1398,-5.1398,-5.1751,-5.2252,-5.2252,-5.2605,-5.3088,0.0,0.0,0.0,0.0,0.0,0.0,0.0,-2.2605,-2.2605,-2.2685,-2.2712,-2.2712,-2.2712,-2.2944,-2.3095,-2.3095,0.0,0.0,0.0,0.0,0.0,0.0,0.0,0.0,0.0,0.0,-2.3917,-2.3996,-2.4074,-2.4134,-2.4192,-2.4192,-2.4266,-2.4394,0.0,0.0,0.0,0.0,0.0,0.0,0.0,0.0,0.0,0.0,0.0,0.0,0.0,0.0,0.0,0.0,0.0,0.0,0.0,0.0,0.0,0.0,-3.5959,-3.6727,-3.6794,-3.7494,-3.8199,-3.8199,-3.7513,-3.6999,0.0,0.0,-3.6733,-3.7471,-3.7566,-3.7774,-3.8572,-3.8596,-3.8765,-3.9585,-3.9614,0.0,-4.1577,-4.1856,-4.2427,0.0,-4.4946,-4.5847,-4.6452,-4.7961,-4.8909,-4.8909,-4.8909,-4.8909,-4.8909,-4.8909,-4.8909,-4.8909,-4.8909,-4.8909,-4.8909,-4.8909,-4.8909,-4.8909,-4.8909,-4.8909,-4.8909,-4.8909,-4.8909,-4.8909,-4.8909,-4.9373,-5.0116,-5.0116,-5.0618,-5.1398,-5.1398,-5.1416,-5.1416,-5.1416,-5.1416,-5.1416,0.0,0.0,0.0,0.0,0.0,0.0,0.0,-2.2632,-2.2685,-2.2685,-2.2712,-2.2712,-2.2712,-2.2944,-2.3119,-2.3168,0.0,0.0,0.0,0.0,0.0,0.0,0.0,0.0,0.0,0.0,-2.3937,-2.3996,-2.4113,-2.419,-2.419,-2.419,-2.4228,-2.4266,-2.4229,-2.4266,0.0,0.0,0.0,0.0,0.0,0.0,-2.9344,0.0,0.0,0.0,0.0,0.0,0.0,0.0,0.0,0.0,0.0,0.0,0.0,0.0,0.0,0.0,-3.5823,-3.6061,-3.6299,-3.6299,-3.6402,-3.6569,-3.6736,0.0,-3.7167,-3.7354,-3.7409,-3.7673,-3.8469,-3.8531,-3.87,-3.9561,-3.962,0.0,0.0,0.0,0.0,-4.3979,-4.5363,-4.6722,-4.8017,-4.8612,-4.8909,-4.8909,-4.8909,-4.8909,-4.8909,-4.8909,-4.8909,-4.8909,-4.8909,-4.8909,-4.8909,-4.8909,-4.8909,-4.8909,-4.8909,-4.8909,-4.8909,-4.8909,-4.8909,-4.8909,-4.8909,-4.9039,-4.928,-4.928,-4.9447,-4.9689,-4.9689,-5.0042,-5.0506,-5.0506,-5.0896,-5.1398,0.0,0.0,0.0,0.0,0.0,0.0,0.0,-2.2659,-2.2712,-2.2712,-2.2712,-2.2712,-2.2712,-2.297,-2.3151,-2.3193,0.0,0.0,0.0,0.0,0.0,0.0,0.0,0.0,0.0,-2.3834,-2.3896,-2.3958,-2.4074,-2.4151,-2.417,-2.419,-2.419,-2.4192,-2.421,-2.4247,0.0,0.0,0.0,0.0,0.0,0.0,-2.9344,0.0,0.0,0.0,0.0,0.0,0.0,0.0,0.0,0.0,0.0,0.0,0.0,0.0,-3.5035,-3.5239,0.0,-3.535,-3.5391,-3.5383,-3.5649,0.0,0.0,0.0,-3.6402,-3.636,-3.6379,-3.6757,-3.7829,-3.7988,-3.8291,-3.9432,-3.9527,0.0,0.0,0.0,0.0,-4.4438,-4.576,-4.7014,-4.8348,-4.8723,-4.8909,-4.8909,-4.8909,-4.8909,-4.8909,-4.8909,-4.8909,-4.8909,-4.8909,-4.8909,-4.8909,-4.8909,-4.8909,-4.8909,-4.8909,-4.8909,-4.8909,-4.8909,-4.8909,-4.8909,-4.8909,-4.8909,0.0,-4.8909,-4.8909,-4.8909,-4.8909,-4.9206,-4.9652,-4.9652,-4.9986,-5.0469,0.0,0.0,0.0,0.0,0.0,0.0,0.0,0.0,0.0,0.0,-2.2712,-2.2712,-2.2712,-2.3003,-2.3217,0.0,0.0,0.0,0.0,0.0,0.0,0.0,0.0,0.0,0.0,-2.3795,-2.3837,-2.3896,-2.3976,-2.4016,-2.4094,-2.417,-2.419,-2.4192,-2.419,-2.4321,-2.4597,-2.621,-2.6972,-2.7214,-2.8776,-2.9407,0.0,0.0,0.0,0.0,0.0,0.0,0.0,0.0,0.0,0.0,0.0,0.0,0.0,0.0,0.0,0.0,0.0,-3.5216,0.0,0.0,0.0,0.0,0.0,0.0,0.0,-3.4788,-3.4845,-3.5313,-3.6829,-3.7136,-3.7671,-3.9233,-3.9328,0.0,0.0,-4.1305,0.0,0.0,-4.6094,-4.6861,-4.7783,-4.8497,-4.8909,-4.8909,-4.8909,-4.8909,-4.8909,-4.8909,-4.8909,-4.8909,-4.8909,-4.8909,-4.8909,-4.8909,-4.8909,-4.8909,-4.8909,-4.8909,-4.8909,-4.8909,-4.8909,-4.8909,-4.8909,-4.8909,-4.8909,-4.8909,-4.8909,-4.8909,-4.8909,-4.8909,-4.8909,-4.8909,-4.8909,-4.8909,0.0,0.0,0.0,0.0,0.0,0.0,0.0,0.0,0.0,0.0,-2.2712,-2.2738,-2.2842,-2.307,0.0,0.0,0.0,0.0,0.0,0.0,0.0,0.0,0.0,0.0,0.0,-2.3837,-2.3896,-2.3896,-2.3976,-2.4016,-2.4016,-2.4094,-2.4113,-2.4133,-2.4172,-2.4635,-2.5393,-2.6451,-2.7269,-2.792,-2.8962,-2.9411,0.0,0.0,0.0,0.0,-2.9531,-2.9511,0.0,0.0,0.0,0.0,0.0,0.0,0.0,0.0,-3.4831,-3.4946,-3.4888,0.0,-3.5089,-3.5072,-3.5019,-3.4945,0.0,0.0,0.0,0.0,0.0,0.0,-3.6846,0.0,-3.8203,-3.9249,0.0,-3.985,-4.125,-4.2597,0.0,-4.6025,-4.6382,-4.7051,-4.8516,-4.8797,-4.8909,-4.8909,-4.8909,-4.8909,-4.8909,-4.8909,-4.8909,-4.8909,-4.8909,-4.8909,-4.8909,-4.8909,-4.8909,-4.8909,-4.8909,-4.8909,-4.8909,-4.8909,-4.8909,-4.8909,-4.8909,-4.8909,-4.8909,-4.8909,-4.8909,-4.8909,-4.8909,-4.8909,-4.8909,-4.8909,-4.8909,-4.8909,0.0,0.0,0.0,0.0,0.0,0.0,0.0,0.0,0.0,0.0,0.0,0.0,0.0,0.0,0.0,0.0,0.0,0.0,0.0,0.0,0.0,0.0,0.0,0.0,-2.3795,-2.3855,-2.3837,-2.3837,-2.3917,-2.3937,-2.3976,-2.4036,-2.4113,-2.4153,-2.4302,-2.4855,-2.5764,-2.6618,-2.7475,-2.8315,-2.9117,0.0,0.0,0.0,0.0,0.0,-2.955,-2.955,0.0,-2.9531,-2.9531,-2.9771,0.0,0.0,0.0,0.0,-3.4749,-3.4791,-3.4749,-3.483,-3.4908,-3.4869,-3.4811,-3.4751,0.0,0.0,0.0,0.0,0.0,0.0,0.0,0.0,0.0,0.0,-3.9275,0.0,0.0,0.0,-4.4209,-4.6252,-4.6494,-4.7125,-4.8742,-4.8909,-4.8909,-4.8909,-4.8909,-4.8909,-4.8909,-4.8909,-4.8909,-4.8909,-4.8909,-4.8909,-4.8909,-4.8909,-4.8909,-4.8909,-4.8909,-4.8909,-4.8909,-4.8909,-4.8909,-4.8909,-4.8909,-4.8909,-4.8909,-4.8909,-4.8909,-4.8909,-4.8909,-4.8909,-4.8909,-4.8909,-4.8909,-4.8909,0.0,0.0,0.0,0.0,0.0,0.0,0.0,0.0,0.0,0.0,0.0,0.0,0.0,0.0,0.0,0.0,0.0,0.0,0.0,0.0,0.0,0.0,0.0,-2.3795,-2.3795,-2.3795,-2.3816,-2.3816,-2.3896,-2.3917,-2.3937,-2.4056,-2.4153,-2.4266,-2.461,-2.5235,-2.6058,-2.6932,-2.7791,-2.8652,-2.9269,0.0,0.0,0.0,0.0,0.0,0.0,0.0,0.0,-2.9607,-2.9663,-3.0018,-3.1528,0.0,0.0,0.0,0.0,0.0,-3.4666,-3.471,-3.4693,-3.4687,-3.4623,-3.4561,0.0,0.0,0.0,0.0,0.0,0.0,0.0,0.0,0.0,0.0,0.0,0.0,-4.1571,-4.2593,-4.4005,-4.6234,-4.6605,-4.7274,-4.876,-4.8909,-4.8909,-4.8909,-4.8909,-4.8909,-4.8909,-4.8909,-4.8909,-4.8909,-4.8909,-4.8909,-4.8909,-4.8909,-4.8909,-4.8909,-4.8909,-4.8909,-4.8909,-4.8909,-4.8909,-4.8909,-4.8909,-4.8909,-4.8909,-4.8909,-4.8909,-4.8909,-4.8909,-4.8909,-4.8909,-4.8909,-4.8909,-4.8909,0.0,0.0,0.0,0.0,0.0,0.0,0.0,0.0,0.0,0.0,0.0,0.0,0.0,0.0,0.0,0.0,0.0,0.0,0.0,0.0,0.0,0.0,-2.3795,-2.3795,-2.3795,-2.3795,-2.3876,-2.3976,-2.3976,-2.4036,-2.4151,-2.4172,-2.4284,-2.4483,-2.526,-2.6075,-2.6949,-2.7845,-2.8707,-2.9514,-2.9608,0.0,0.0,0.0,0.0,0.0,0.0,0.0,0.0,-2.9607,-3.0018,-3.0688,-3.1613,0.0,0.0,0.0,0.0,0.0,-3.4517,-3.4473,-3.4409,-3.4495,-3.4473,-3.4427,0.0,0.0,0.0,0.0,0.0,0.0,0.0,-3.7966,-3.898,0.0,0.0,-4.1534,-4.2482,-4.3931,-4.5305,-4.6364,-4.7107,-4.7887,-4.8816,-4.8909,-4.8909,-4.8909,-4.8909,-4.8909,-4.8909,-4.8909,-4.8909,-4.8909,-4.8909,-4.8909,-4.8909,-4.8909,-4.8909,-4.8909,-4.8909,-4.8909,-4.8909,-4.8909,-4.8909,-4.8909,-4.8909,-4.8909,-4.8909,-4.8909,-4.8909,-4.8909,-4.8909,-4.8909,-4.8909,-4.8909,-4.8909,-4.8909,0.0,0.0,0.0,0.0,0.0,0.0,0.0,0.0,0.0,0.0,0.0,0.0,0.0,0.0,0.0,0.0,0.0,0.0,0.0,0.0,0.0,-2.3837,-2.3837,-2.3837,-2.3795,-2.3795,-2.3876,-2.3996,-2.3996,-2.4074,-2.419,-2.4266,-2.4598,-2.5115,-2.563,-2.6559,-2.7791,-2.822,-2.8913,-2.9701,0.0,0.0,0.0,0.0,0.0,0.0,0.0,0.0,0.0,0.0,-3.0112,-3.0856,-3.1691,0.0,0.0,0.0,0.0,0.0,-3.445,-3.434,-3.4269,-3.4316,-3.4316,-3.4293,-3.4293,0.0,0.0,0.0,0.0,0.0,0.0,0.0,-3.8748,-3.9658,-4.081,-4.1869,-4.2686,-4.4228,-4.5602,-4.6401,-4.7218,-4.8017,-4.8816,-4.8909,-4.8909,-4.8909,-4.875,-4.8714,-4.8909,-4.875,-4.8695,-4.889,-4.8909,-4.882,-4.8623,-4.8623,-4.8623,-4.8623,-4.8623,-4.855,-4.8402,-4.8402,-4.8402,-4.8402,-4.855,-4.8623,-4.866,-4.882,-4.8909,-4.8909,-4.8909,-4.8909,-4.8909,-4.8909,-4.8909,-4.8909,0.0,0.0,0.0,0.0,0.0,0.0,0.0,0.0,0.0,0.0,0.0,0.0,0.0,0.0,0.0,0.0,0.0,0.0,0.0,0.0,-2.3816,-2.3896,-2.3896,-2.3876,-2.3816,-2.3837,-2.3917,-2.4054,-2.4056,-2.4152,-2.4284,-2.4579,-2.5059,-2.5671,-2.6242,-2.7174,-2.8334,-2.8595,-2.9101,-2.9701,0.0,0.0,0.0,0.0,0.0,0.0,0.0,0.0,0.0,0.0,0.0,0.0,0.0,0.0,0.0,-3.4172,-3.4316,-3.4293,-3.434,-3.4269,-3.4197,-3.4197,0.0,-3.4197,-3.4197,0.0,0.0,0.0,0.0,0.0,0.0,-3.7697,0.0,-4.0438,-4.1349,-4.2166,-4.2965,-4.4358,-4.5602,-4.6401,-4.7218,-4.8017,-4.8816,-4.8909,-4.8874,-4.8785,-4.855,-4.8458,-4.8678,-4.8439,-4.8439,-4.8678,-4.8678,-4.8569,-4.8307,-4.8307,-4.8307,-4.8307,-4.8307,-4.821,-4.7992,-4.7992,-4.7992,-4.7992,-4.821,-4.8307,-4.8345,-4.866,-4.8785,-4.8785,-4.8874,-4.8909,-4.8909,-4.8909,-4.8909,-4.8909,0.0,0.0,0.0,0.0,0.0,0.0,0.0,0.0,0.0,0.0,0.0,0.0,0.0,0.0,0.0,0.0,0.0,0.0,0.0,0.0,-2.3816,-2.3896,-2.3896,-2.3896,-2.3896,-2.4016,-2.4113,-2.419,-2.4247,-2.4358,-2.4501,-2.5334,-2.5723,-2.5851,-2.7492,-2.8277,-2.8463,-2.927,-2.9645,-2.9701,-2.9701,0.0,0.0,0.0,0.0,0.0,0.0,0.0,0.0,0.0,0.0,0.0,0.0,0.0,-3.4123,-3.4203,-3.4221,-3.4197,-3.4221,-3.4197,-3.4197,-3.4197,-3.4197,0.0,-3.4197,-3.4245,0.0,-3.4221,0.0,0.0,0.0,-3.8618,-4.0494,-4.1367,-4.2184,-4.2983,-4.3801,-4.4711,-4.5602,-4.6401,-4.7218,-4.8017,-4.8816,-4.8909,-4.8785,-4.8458,-4.8421,-4.8307,-4.8072,-4.8032,-4.8032,-4.8072,-4.8072,-4.8072,-4.8032,-4.8032,-4.8032,-4.8032,-4.8032,-4.8032,-4.7992,-4.7992,-4.7992,-4.7992,-4.8032,-4.8032,-4.8072,-4.8307,-4.8421,-4.8458,-4.8785,-4.8909,-4.8909,-4.8909,-4.8909,-4.8909,0.0,0.0,0.0,0.0,0.0,0.0,0.0,0.0,0.0,0.0,0.0,0.0,0.0,0.0,0.0,0.0,0.0,0.0,0.0,0.0,-2.3837,-2.3976,-2.3996,-2.4016,-2.4016,-2.4036,-2.4094,-2.419,-2.4321,-2.4635,-2.5189,-2.5559,-2.6284,-2.7308,-2.8035,-2.8634,-2.9177,-2.9533,-2.9701,-2.9683,-2.9626,-2.9607,0.0,0.0,0.0,0.0,0.0,0.0,0.0,0.0,-3.16,-3.2732,0.0,-3.3613,-3.4197,-3.4197,-3.4197,-3.4197,-3.4197,-3.4197,-3.4197,-3.4197,0.0,0.0,0.0,-3.4221,-3.437,-3.4884,-3.5522,0.0,0.0,0.0,-4.0661,-4.1419,-4.2247,-4.3076,-4.3893,-4.4748,-4.5602,-4.6401,-4.703,-4.7701,-4.8495,-4.8587,-4.8476,-4.8172,-4.8132,-4.8093,-4.7992,-4.7788,-4.7788,-4.7992,-4.7992,-4.7911,-4.7705,-4.7663,-4.7578,-4.7363,-4.7578,-4.7578,-4.7363,-4.7363,-4.7363,-4.7407,-4.7578,-4.7663,-4.7705,-4.8014,-4.8231,-4.8421,-4.8785,-4.8909,-4.8909,-4.8909,-4.8909,-4.8909,0.0,0.0,0.0,0.0,0.0,0.0,0.0,0.0,0.0,0.0,0.0,0.0,0.0,0.0,0.0,0.0,0.0,0.0,-2.3771,-2.3792,-2.3834,-2.3917,-2.4016,-2.4074,-2.4094,-2.4074,-2.4113,-2.419,-2.4598,-2.506,-2.5616,-2.621,-2.7103,-2.8202,-2.8539,-2.8988,-2.9511,-2.9588,-2.9569,-2.955,-2.9512,-2.9512,0.0,0.0,0.0,0.0,0.0,0.0,0.0,0.0,0.0,0.0,0.0,0.0,0.0,0.0,-3.4197,-3.4197,-3.4197,-3.4197,-3.4197,0.0,0.0,0.0,-3.4197,-3.4197,-3.4439,-3.5312,-3.5887,-3.6742,-3.8313,0.0,-4.1033,-4.1809,-4.2619,-4.3373,-4.3912,-4.4506,-4.5162,-4.5894,-4.6465,-4.7095,-4.781,-4.8122,-4.8153,-4.787,-4.7829,-4.7788,-4.7705,-4.745,-4.7468,-4.7663,-4.7705,-4.7578,-4.7338,-4.7338,-4.7205,-4.698,-4.7249,-4.7205,-4.6998,-4.6998,-4.6998,-4.698,-4.7249,-4.7338,-4.7381,-4.7829,-4.821,-4.8587,-4.8695,-4.882,-4.8909,-4.8909,-4.8909,-4.8909,0.0,0.0,0.0,0.0,0.0,0.0,0.0,0.0,0.0,0.0,0.0,0.0,0.0,0.0,0.0,0.0,0.0,0.0,-2.37,-2.3743,-2.3807,-2.3795,-2.3917,-2.4016,-2.4094,-2.417,-2.4208,-2.4208,-2.5152,-2.5597,-2.5653,-2.7381,-2.8202,-2.8258,-2.9118,-2.9414,-2.9293,-2.9373,-2.9312,-2.9209,-2.9433,-2.9453,-2.9412,0.0,0.0,0.0,0.0,0.0,0.0,0.0,-3.2445,0.0,0.0,0.0,0.0,0.0,-3.4197,-3.4197,-3.4197,-3.4197,-3.4197,0.0,0.0,0.0,-3.4197,-3.4197,-3.4457,-3.533,-3.6798,-3.8414,-4.0085,-4.1051,-4.185,-4.2667,-4.3466,-4.4005,-4.4005,-4.4005,-4.4207,-4.4718,-4.5512,-4.6177,-4.6718,-4.7499,-4.7852,-4.7493,-4.7493,-4.7338,-4.7043,-4.6998,-4.6998,-4.6998,-4.6998,-4.6998,-4.6998,-4.6998,-4.6998,-4.6998,-4.6998,-4.6998,-4.6998,-4.6998,-4.6998,-4.6998,-4.6998,-4.6998,-4.7025,-4.7747,-4.8326,-4.8855,-4.8532,-4.8623,-4.8909,-4.8909,-4.8909,-4.8909,0.0,0.0,0.0,0.0,0.0,0.0,0.0,0.0,0.0,0.0,0.0,0.0,0.0,0.0,0.0,0.0,0.0,0.0,-2.37,-2.3721,-2.3743,-2.3807,-2.3894,-2.3937,-2.3976,-2.4622,-2.4996,-2.5054,-2.5371,-2.611,-2.7235,-2.7795,-2.8378,-2.8979,-2.9198,-2.9289,-2.9293,-2.9212,-2.9191,-2.9188,-2.9203,-2.9265,-2.9326,0.0,0.0,0.0,0.0,0.0,0.0,0.0,0.0,0.0,0.0,0.0,0.0,-3.4197,-3.4197,-3.4197,-3.4197,-3.4197,0.0,0.0,0.0,0.0,0.0,-3.4661,0.0,0.0,-3.8024,-3.9036,-4.0055,-4.1004,-4.185,-4.2607,-4.3435,-4.3923,-4.3763,-4.386,-4.4124,-4.4491,-4.4675,-4.502,-4.5548,-4.6323,-4.6687,-4.6319,-4.7057,-4.7338,-4.7043,-4.6998,-4.6998,-4.6998,-4.6998,-4.6998,-4.6998,-4.6998,-4.6998,-4.6998,-4.6998,-4.6998,-4.6998,-4.6998,-4.6998,-4.6998,-4.6998,-4.6998,-4.7025,-4.7747,-4.7992,-4.7974,-4.855,-4.866,-4.8587,-4.882,-4.8909,-4.8909,0.0,0.0,0.0,0.0,0.0,0.0,0.0,0.0,0.0,0.0,0.0,0.0,0.0,0.0,0.0,0.0,0.0,0.0,0.0,0.0,-2.3696,-2.3718,-2.3807,-2.4018,-2.4369,-2.4965,-2.5612,-2.6295,-2.6397,-2.6954,-2.7911,-2.8307,-2.8778,-2.9206,-2.9222,-2.916,-2.9097,-2.9034,-2.9012,-2.8989,-2.9048,-2.9089,-2.9189,0.0,0.0,0.0,0.0,0.0,0.0,0.0,0.0,0.0,0.0,0.0,0.0,-3.4197,-3.4197,-3.4197,-3.4197,0.0,0.0,0.0,0.0,-3.4364,-3.5033,0.0,0.0,0.0,-3.8544,-3.9454,-4.0566,-4.1226,-4.1962,-4.3033,-4.3577,-4.3795,-4.3612,-4.3664,-4.3695,-4.3723,-4.3975,-4.424,-4.4425,-4.518,-4.552,-4.5338,-4.5942,-4.6255,-4.6052,-4.6355,-4.6516,-4.6516,-4.6819,-4.6998,-4.6998,-4.6998,-4.6998,-4.6998,-4.6998,-4.6998,-4.6998,-4.6998,-4.6998,-4.6998,-4.6998,-4.7088,-4.7205,-4.7493,-4.7687,-4.7893,-4.8364,-4.8569,-4.8623,-4.882,-4.8909,-4.8909,0.0,0.0,0.0,0.0,0.0,0.0,0.0,0.0,0.0,0.0,0.0,0.0,0.0,0.0,0.0,0.0,0.0,0.0,0.0,0.0,-2.3585,-2.3585,-2.379,-2.4281,-2.5078,-2.5302,-2.6169,-2.7716,-2.7827,-2.7926,-2.8018,-2.8864,-2.9197,-2.9089,-2.9134,-2.9021,-2.881,-2.8858,-2.881,-2.8718,-2.8887,-2.8989,-2.9088,-2.9958,0.0,0.0,0.0,0.0,0.0,0.0,0.0,0.0,0.0,0.0,-3.4173,-3.4173,-3.4197,-3.4197,-3.4197,0.0,0.0,0.0,0.0,0.0,-3.6289,-3.6686,-3.6946,-3.7819,-3.8581,-3.9584,-4.1152,-4.1505,-4.2062,-4.3571,-4.3675,-4.3545,-4.3511,-4.3321,-4.3087,-4.2711,-4.3322,-4.371,-4.3435,-4.4071,-4.4517,-4.4517,-4.4571,-4.4624,-4.4624,-4.5302,-4.5695,-4.5695,-4.6391,-4.6766,-4.6766,-4.6766,-4.6819,-4.6873,-4.6873,-4.6926,-4.6998,-4.6998,-4.6998,-4.6998,-4.6998,-4.716,-4.7425,-4.7205,-4.7603,-4.8307,-4.8132,-4.8402,-4.8874,-4.8909,-4.8909,-4.8909,0.0,0.0,0.0,0.0,0.0,0.0,0.0,0.0,0.0,0.0,0.0,0.0,0.0,0.0,0.0,0.0,0.0,0.0,0.0,0.0,-2.3517,-2.3517,-2.4244,-2.4797,-2.5096,-2.6417,-2.7283,-2.7702,-2.7738,-2.8091,-2.876,-2.8925,-2.8998,-2.9017,-2.8881,-2.8791,-2.8785,-2.8712,-2.8687,-2.8694,-2.8743,-2.9174,-2.9783,-2.999,-3.0472,0.0,0.0,0.0,0.0,0.0,0.0,0.0,-3.4049,-3.4049,-3.4049,-3.4049,-3.4074,-3.4124,0.0,-3.4173,0.0,0.0,0.0,-3.4575,-3.6066,-3.6535,-3.7113,-3.8544,-3.8971,-3.9342,-4.0184,-4.0874,-4.1549,-4.2307,-4.29,-4.3178,-4.2921,-4.3069,-4.3013,-4.2432,-4.2717,-4.2865,-4.2578,-4.3268,-4.375,-4.375,-4.4285,-4.4624,-4.4624,-4.4767,-4.4874,-4.4874,-4.5035,-4.5124,-4.5124,-4.5124,-4.5445,-4.607,-4.607,-4.6391,-4.6998,-4.6998,-4.6998,-4.6998,-4.6998,-4.7025,-4.716,-4.7621,-4.7747,-4.777,-4.8439,-4.8623,-4.855,-4.882,-4.8909,-4.8909,0.0,0.0,0.0,0.0,0.0,0.0,0.0,0.0,0.0,0.0,0.0,0.0,0.0,0.0,0.0,0.0,0.0,0.0,0.0,0.0,0.0,-2.4605,-2.5094,-2.5607,-2.6149,-2.703,-2.7742,-2.8265,-2.8195,-2.8438,-2.8952,-2.8952,-2.8905,-2.8858,-2.8785,-2.8737,-2.8687,-2.8637,-2.8855,-2.9225,-2.9225,-2.9696,-3.0458,-3.0857,-3.1275,-3.1746,-3.2657,0.0,0.0,0.0,0.0,0.0,0.0,0.0,-3.3947,-3.3947,-3.3947,-3.3972,0.0,0.0,0.0,0.0,0.0,-3.4464,-3.5495,-3.6131,-3.6833,-3.7966,-3.8596,-3.9161,-3.9853,-4.0226,-4.0789,-4.1844,-4.2232,-4.2503,-4.2657,-4.2729,-4.2631,-4.2328,-4.2432,-4.2454,-4.2328,-4.268,-4.2929,-4.2929,-4.3286,-4.35,-4.35,-4.3875,-4.4089,-4.4089,-4.4428,-4.4624,-4.4624,-4.4624,-4.4821,-4.5231,-4.5231,-4.5659,-4.6444,-4.6819,-4.6998,-4.6998,-4.6998,-4.6998,-4.7043,-4.7363,-4.7493,-4.7536,-4.821,-4.8439,-4.8458,-4.8785,-4.8909,-4.8909,0.0,0.0,0.0,0.0,0.0,0.0,0.0,0.0,0.0,0.0,0.0,0.0,0.0,0.0,0.0,0.0,0.0,0.0,0.0,0.0,0.0,-2.5758,-2.5993,-2.6469,-2.7283,-2.7446,-2.7949,-2.8881,-2.8743,0.0,0.0,0.0,0.0,-2.8694,-2.8737,-2.8687,-2.8587,-2.8706,-2.9158,-2.9781,-2.9926,-3.0414,-3.1153,-3.182,-3.2133,-3.2272,-3.3117,-3.3422,-3.3491,-3.3671,0.0,0.0,0.0,0.0,-3.3842,-3.3815,-3.3807,-3.3834,0.0,0.0,0.0,0.0,0.0,0.0,-3.4889,-3.569,-3.646,-3.7015,-3.7973,-3.8915,-3.9546,-3.9593,-3.9938,-4.1232,-4.1379,-4.1571,-4.2327,-4.2217,-4.2126,-4.2269,-4.2287,-4.2287,-4.2287,-4.2287,-4.2287,-4.2287,-4.2287,-4.2287,-4.2287,-4.2929,-4.3304,-4.3304,-4.3893,-4.4214,-4.4214,-4.4214,-4.4285,-4.4428,-4.4553,-4.4963,-4.5624,-4.6427,-4.6855,-4.6998,-4.6998,-4.6998,-4.698,-4.707,-4.7249,-4.7554,-4.7911,-4.821,-4.8458,-4.8785,-4.8909,-4.8909,0.0,0.0,0.0,0.0,0.0,0.0,0.0,0.0,0.0,0.0,0.0,0.0,0.0,0.0,0.0,0.0,0.0,0.0,-2.3876,0.0,0.0,-2.5709,-2.6504,-2.7043,-2.7283,-2.7969,-2.846,-2.8718,0.0,0.0,0.0,0.0,0.0,-2.8694,0.0,-2.8518,-2.8546,-2.9215,-2.9548,-2.9692,-3.0394,-3.115,-3.1858,-3.1966,-3.2397,-3.2991,-3.3226,-3.3322,-3.3352,-3.3422,-3.3452,0.0,0.0,0.0,-3.3633,-3.3509,-3.3577,-3.3698,0.0,0.0,0.0,0.0,-3.4074,-3.4303,0.0,0.0,-3.6402,-3.6775,-3.7721,-3.8419,-3.828,-3.8793,-3.9247,-3.9208,-3.9723,-4.0381,-4.1207,-4.1292,-4.152,-4.2216,-4.2287,-4.2287,-4.2287,-4.2287,-4.2287,-4.2287,-4.2287,-4.2287,-4.2287,-4.2394,-4.2448,-4.2448,-4.2555,-4.2608,-4.2608,-4.2608,-4.2965,-4.3661,-4.4303,-4.4678,-4.4803,-4.5588,-4.6337,-4.6998,-4.6998,-4.6998,-4.7025,-4.7294,-4.7468,-4.7554,-4.8114,-4.8383,-4.8458,-4.8785,-4.8909,-4.8909,0.0,0.0,0.0,0.0,0.0,0.0,0.0,0.0,0.0,0.0,0.0,0.0,0.0,0.0,0.0,-2.336,-2.4178,-2.4913,-2.5432,-2.5957,-2.6481,-2.6951,-2.737,-2.7674,-2.7789,-2.8094,-2.8309,-2.8543,0.0,0.0,0.0,-2.8484,-2.851,0.0,0.0,0.0,0.0,-2.8955,-2.9617,-3.0837,-3.0776,-3.1505,-3.2601,-3.257,-3.2768,-3.3086,-3.3122,-3.3152,-3.3214,-3.3322,-3.3382,-3.3393,-3.3352,0.0,0.0,0.0,-3.3345,0.0,-3.3462,0.0,0.0,0.0,-3.3972,-3.4039,-3.4081,-3.4688,-3.5242,-3.5292,-3.6368,-3.7426,-3.7893,-3.8186,-3.8402,-3.8736,-3.9075,-3.9557,-4.0324,-4.0824,-4.1234,-4.1591,-4.2019,-4.2287,-4.2287,-4.2287,-4.2287,-4.2287,-4.2287,-4.2287,-4.2287,-4.2287,-4.2287,-4.2287,-4.2287,-4.2287,-4.2287,-4.2287,-4.2465,-4.284,-4.3625,-4.4,-4.4018,-4.4785,-4.557,-4.6355,-4.6801,-4.6998,-4.698,-4.716,-4.7205,-4.7294,-4.7933,-4.8172,-4.8249,-4.8714,-4.8909,-4.8909,0.0,0.0,0.0,0.0,0.0,0.0,0.0,0.0,0.0,0.0,0.0,0.0,0.0,0.0,0.0,0.0,-2.4947,-2.5814,-2.6714,-2.6905,-2.7254,-2.7864,-2.7911,-2.795,-2.8063,-2.7979,-2.8035,0.0,0.0,0.0,-2.8318,-2.8246,-2.8273,0.0,-2.838,-2.8838,0.0,0.0,0.0,0.0,-3.1387,-3.1984,-3.3055,-3.3011,-3.3011,-3.3055,-3.293,-3.2948,-3.3042,-3.3152,-3.3214,-3.3274,-3.3214,-3.3232,0.0,0.0,0.0,0.0,0.0,0.0,0.0,0.0,-3.3689,-3.3662,0.0,0.0,-3.4285,-3.413,-3.5168,-3.6398,-3.7395,-3.7578,-3.7791,-3.8397,-3.8504,-3.8772,-3.9521,-4.0146,-4.0592,-4.077,-4.1324,-4.177,-4.1966,-4.1984,-4.2073,-4.2269,-4.2287,-4.2287,-4.2287,-4.2287,-4.2287,-4.2287,-4.2287,-4.2287,-4.2287,-4.2287,-4.2287,-4.2287,-4.2912,-4.3197,-4.3233,-4.3982,-4.4599,-4.5161,-4.6248,-4.6756,-4.6888,-4.6888,-4.6888,-4.698,-4.756,-4.7852,-4.8072,-4.8587,-4.882,-4.8909,0.0,0.0,0.0,0.0,0.0,0.0,0.0,0.0,0.0,0.0,0.0,0.0,-2.3736,-2.4471,-2.4936,-2.4936,-2.5626,-2.6385,-2.721,-2.74,-2.7474,-2.7526,-2.7659,0.0,-2.773,-2.773,0.0,0.0,0.0,0.0,-2.8025,-2.8099,-2.8071,-2.8042,-2.8154,-2.8637,-2.934,0.0,0.0,0.0,0.0,-3.2934,-3.2993,-3.293,-3.293,-3.2975,-3.2687,-3.2722,-3.2838,-3.2902,-3.2916,-3.2916,-3.2916,-3.3011,-3.3104,0.0,0.0,0.0,0.0,0.0,0.0,-3.3068,0.0,0.0,0.0,-3.3598,-3.4106,-3.4079,-3.4722,-3.5507,-3.6345,-3.7113,-3.7594,-3.7648,-3.7648,-3.7933,-3.8754,-3.8897,-3.9182,-3.9896,-4.0003,-4.0324,-4.1092,-4.1163,-4.1484,-4.2234,-4.2287,-4.2287,-4.2287,-4.2287,-4.2287,-4.2287,-4.2287,-4.2287,-4.2287,-4.2287,-4.2287,-4.2287,-4.2323,-4.2341,-4.2376,-4.3197,-4.3444,-4.3359,-4.5107,-4.6148,-4.6637,-4.6637,-4.6637,-4.6684,-4.7017,-4.7518,-4.8032,-4.8307,-4.8623,-4.8909,0.0,0.0,0.0,0.0,0.0,0.0,0.0,0.0,0.0,0.0,0.0,0.0,0.0,-2.5052,-2.5562,-2.5682,-2.6419,-2.6988,-2.7282,-2.7421,-2.7496,-2.7496,-2.7539,-2.7569,-2.7569,-2.7526,0.0,0.0,0.0,-2.7659,-2.7736,-2.7766,-2.8059,-2.8581,-2.877,-2.9254,-2.994,-3.015,0.0,0.0,0.0,-3.242,-3.2752,-3.2898,-3.2848,-3.2737,-3.259,-3.2573,-3.269,-3.2705,-3.2802,-3.2916,-3.2916,-3.2948,-3.2961,-3.2916,-3.282,0.0,0.0,0.0,0.0,-3.2876,-3.2908,-3.2939,-3.2876,-3.2915,-3.2995,-3.3097,-3.365,-3.4235,-3.4658,-3.5776,-3.686,-3.7505,-3.7484,-3.7536,-3.7987,-3.8469,-3.8915,-3.9165,-3.9629,-4.0021,-4.0307,-4.0342,-4.0449,-4.0753,-4.077,-4.077,-4.077,-4.077,-4.077,-4.077,-4.1252,-4.1688,-4.2061,-4.2187,-4.2187,-4.2061,-4.2246,-4.2205,-4.2061,-4.2363,-4.2729,-4.3138,-4.366,-4.4541,-4.5646,-4.6139,-4.6332,-4.6381,-4.688,-4.724,-4.75,-4.7974,-4.8326,-4.8587,0.0,0.0,0.0,0.0,0.0,0.0,0.0,0.0,0.0,0.0,0.0,0.0,0.0,0.0,-2.619,-2.6364,-2.6957,-2.7299,-2.7299,-2.739,-2.7421,-2.7421,-2.7421,-2.7421,-2.7421,0.0,0.0,0.0,0.0,0.0,0.0,-2.814,-2.8603,-2.9204,-2.9607,-3.0088,0.0,0.0,0.0,-3.2386,-3.2104,-3.2307,-3.2737,-3.2752,-3.2752,-3.2687,-3.2456,-3.2422,-3.2472,-3.2488,-3.2606,-3.2705,-3.2705,-3.2705,-3.2705,-3.2705,0.0,0.0,-3.2488,0.0,0.0,0.0,0.0,-3.2519,-3.2553,-3.2369,-3.2283,-3.2454,-3.2809,-3.3213,-3.3617,-3.4481,-3.5522,-3.6787,-3.7157,-3.7334,-3.7484,-3.8021,-3.8397,-3.8397,-3.8826,-3.9236,-3.9504,-3.9539,-3.9646,-3.9896,-3.9914,-3.9914,-3.9914,-3.9914,-3.9914,-3.9914,-4.0335,-4.0788,-4.112,-4.1505,-4.1647,-4.1545,-4.1895,-4.2019,-4.1892,-4.1849,-4.2027,-4.2449,-4.2594,-4.3594,-4.5098,-4.5492,-4.586,-4.6087,-4.6507,-4.6817,-4.7151,-4.7542,-4.7915,-4.8288,0.0,0.0,0.0,0.0,0.0,0.0,0.0,0.0,0.0,-2.4195,0.0,0.0,0.0,0.0,0.0,-2.6975,-2.7186,-2.7299,-2.7316,-2.7333,-2.7333,-2.7351,-2.7368,-2.7351,-2.7351,0.0,0.0,0.0,0.0,0.0,0.0,0.0,-2.9659,-2.9829,-3.0559,-3.1044,-3.1329,0.0,-3.1601,-3.2214,-3.2472,-3.2719,-3.2912,-3.2488,-3.2588,-3.288,-3.2301,-3.2144,-3.2214,-3.2249,-3.2283,-3.2283,-3.2283,-3.2283,-3.2283,-3.2283,0.0,0.0,0.0,0.0,0.0,0.0,0.0,-3.193,-3.2073,-3.2073,-3.2144,-3.2249,-3.2283,-3.2529,-3.3301,-3.3315,-3.3748,-3.5422,-3.6562,-3.7261,-3.7261,-3.7466,-3.7577,-3.7577,-3.7577,-3.7898,-3.8701,-3.8772,-3.9075,-3.9789,-3.9843,-3.9843,-3.9843,-3.9843,-3.986,-3.9878,-3.9665,-3.9603,-3.958,-4.0169,-4.0574,-4.0801,-4.1305,-4.1657,-4.1874,-4.1675,-4.1453,-4.1244,-4.2027,-4.3336,-4.4909,-4.4736,-4.5107,-4.5786,-4.5786,-4.6315,-4.7062,-4.7062,-4.7457,-4.7992,0.0,0.0,0.0,0.0,0.0,0.0,0.0,0.0,0.0,0.0,0.0,0.0,-2.5946,-2.6387,-2.6725,-2.6775,-2.6842,-2.708,-2.7641,-2.7743,-2.8032,-2.8578,-2.875,-2.8836,-2.8836,0.0,0.0,0.0,0.0,0.0,0.0,0.0,0.0,0.0,-3.0611,-3.1079,-3.1653,-3.1707,-3.1811,-3.202,-3.2283,-3.2283,-3.2161,-3.23,-3.2266,-3.2126,-3.1984,-3.202,-3.2108,-3.2144,-3.2232,-3.2283,-3.2283,-3.2283,0.0,-3.2283,-3.2232,0.0,-3.2179,0.0,0.0,0.0,0.0,0.0,-3.1948,-3.1929,-3.1929,-3.2108,-3.2037,-3.2071,-3.2423,-3.2765,-3.3138,-3.3609,-3.5119,-3.6317,-3.6612,-3.7184,-3.7577,-3.7577,-3.7577,-3.7684,-3.7898,-3.7916,-3.8005,-3.8219,-3.8237,-3.8237,-3.8237,-3.8237,-3.8504,-3.9093,-3.8901,-3.8969,-3.937,-3.954,-3.9841,-4.0316,-4.063,-4.1016,-4.1391,-4.1346,-4.1255,-4.1209,-4.1284,-4.1973,-4.3201,-4.4071,-4.482,-4.5511,-4.5735,-4.592,-4.6168,-4.6363,-4.6835,-4.7327,0.0,0.0,0.0,0.0,0.0,0.0,0.0,0.0,0.0,0.0,0.0,0.0,-2.5994,-2.6349,-2.6556,-2.6538,-2.6876,-2.7247,-2.7649,-2.8058,-2.8448,-2.8887,-2.9066,-2.9138,-2.9191,0.0,0.0,0.0,0.0,0.0,0.0,0.0,0.0,0.0,0.0,0.0,0.0,0.0,-3.1711,-3.1785,-3.202,-3.202,-3.1984,-3.2109,-3.2073,-3.2001,-3.1875,-3.1929,-3.1965,-3.1965,-3.2037,-3.2091,-3.2091,-3.2091,-3.2091,-3.2091,-3.2037,0.0,0.0,0.0,0.0,-3.1839,0.0,0.0,-3.1839,-3.1819,-3.1819,-3.1929,-3.1873,-3.1837,-3.1929,-3.2219,-3.2475,-3.255,-3.3781,-3.5001,-3.5894,-3.6574,-3.7093,-3.7431,-3.7558,-3.7577,-3.7577,-3.7577,-3.7577,-3.7577,-3.7577,-3.7577,-3.7577,-3.7521,-3.7698,-3.8178,-3.7909,-3.79,-3.8233,-3.8447,-3.8729,-3.9138,-3.9826,-4.0366,-4.0756,-4.0978,-4.1088,-4.1088,-4.0965,-4.1397,-4.2319,-4.3057,-4.3958,-4.4941,-4.513,-4.5406,-4.5837,-4.5988,-4.6315,-4.6695,0.0,0.0,0.0,0.0,0.0,0.0,0.0,0.0,0.0,0.0,-2.5626,-2.5717,-2.5844,-2.6154,-2.6347,-2.636,-2.7067,-2.7554,-2.7648,-2.8298,-2.8736,-2.8879,-2.8917,-2.8971,-2.9084,0.0,0.0,0.0,0.0,0.0,0.0,0.0,0.0,0.0,0.0,0.0,0.0,0.0,-3.1389,-3.1579,-3.1709,-3.1875,-3.2073,-3.1856,-3.1965,-3.2179,-3.1856,-3.1763,-3.1763,-3.1763,-3.1763,-3.1763,-3.1763,-3.1763,-3.18,-3.18,-3.18,0.0,0.0,0.0,0.0,-3.18,-3.18,0.0,-3.18,-3.18,-3.18,-3.18,-3.18,-3.18,-3.18,-3.18,-3.1873,-3.2037,-3.2611,-3.3587,-3.5087,-3.5726,-3.6321,-3.7046,-3.7394,-3.754,-3.754,-3.754,-3.754,-3.754,-3.754,-3.754,-3.754,-3.7372,-3.7259,-3.7259,-3.6886,-3.6702,-3.6702,-3.7153,-3.7517,-3.7798,-3.8977,-3.9766,-4.0068,-4.0619,-4.0888,-4.0888,-4.0888,-4.125,-4.1871,-4.1871,-4.2768,-4.4147,-4.4147,-4.475,-4.5613,-4.5613,-4.5868,-4.6137,-2.2587,0.0,0.0,0.0,0.0,0.0,0.0,0.0,0.0,-2.5162,-2.5278,-2.547,-2.5642,-2.5775,-2.6077,-2.6629,-2.6923,-2.7536,-2.8721,-2.9032,-2.9419,-3.0038,-3.0218,-3.0299,-3.0339,0.0,0.0,0.0,0.0,0.0,0.0,0.0,0.0,0.0,0.0,0.0,0.0,0.0,-3.1095,-3.1308,-3.1351,-3.1411,-3.1487,-3.1538,-3.1614,-3.1651,-3.1576,-3.1555,-3.1555,-3.1555,-3.1555,-3.1555,-3.1555,-3.1614,-3.1617,-3.1617,-3.1709,-3.18,-3.18,-3.18,-3.18,-3.18,-3.18,0.0,-3.18,-3.18,-3.18,-3.18,-3.18,-3.18,-3.18,-3.18,-3.18,-3.1873,-3.1994,-3.2503,-3.3738,-3.5041,-3.5922,-3.6063,-3.67,-3.7143,-3.7143,-3.7143,-3.7143,-3.7143,-3.7143,-3.7143,-3.7143,-3.7105,-3.7066,-3.7066,-3.6846,-3.6702,-3.6702,-3.6599,-3.6895,-3.7577,-3.8415,-3.9157,-3.9824,-4.0573,-4.0888,-4.0888,-4.0888,-4.0957,-4.1095,-4.1095,-4.1992,-4.3439,-4.3439,-4.3888,-4.4595,-4.4595,-4.5129,-4.5837,-2.3236,0.0,0.0,0.0,0.0,0.0,0.0,0.0,0.0,-2.5029,-2.5543,-2.5924,-2.6041,-2.6525,-2.7,-2.7313,-2.7695,-2.82,-2.8893,-2.9342,-2.9786,-3.0172,-3.0316,-3.0401,-3.0443,-3.0551,0.0,0.0,0.0,0.0,0.0,0.0,0.0,0.0,0.0,0.0,0.0,0.0,-3.0814,-3.0992,-3.1173,-3.1274,-3.1295,-3.1462,-3.1517,-3.1517,-3.1517,-3.1517,-3.1517,-3.1517,-3.1517,-3.1517,-3.1517,-3.1538,-3.1617,-3.1617,-3.1709,-3.18,-3.18,-3.18,-3.1783,-3.1709,-3.1746,0.0,0.0,-3.1746,-3.18,-3.18,-3.18,-3.18,-3.18,-3.18,-3.18,-3.18,-3.18,-3.1994,-3.2577,-3.3733,-3.4766,-3.5553,-3.6106,-3.657,-3.6935,-3.6987,-3.6987,-3.6987,-3.6987,-3.6987,-3.6987,-3.6908,-3.6846,-3.6846,-3.6626,-3.6502,-3.6502,-3.636,-3.649,-3.6904,-3.7663,-3.8422,-3.9163,-3.9939,-4.0509,-4.0888,-4.0888,-4.0888,-4.0888,-4.0888,-4.1336,-4.2109,-4.244,-4.3044,-4.3768,-4.4147,-4.4612,-4.5095,-2.3936,0.0,0.0,0.0,0.0,0.0,0.0,0.0,0.0,-2.5243,-2.6054,-2.6623,-2.6623,-2.7405,-2.7956,-2.8013,-2.8616,-2.899,-2.9026,-2.9621,-2.9946,-2.9973,-2.9973,-3.0017,-3.0162,-3.0248,0.0,0.0,0.0,0.0,0.0,0.0,0.0,0.0,0.0,0.0,0.0,0.0,-3.0609,-3.0773,-3.1032,-3.1173,-3.1274,-3.1385,-3.144,-3.144,-3.144,-3.144,-3.144,-3.144,-3.144,-3.1402,-3.144,-3.15,-3.1521,-3.1542,-3.1634,-3.1726,-3.1726,-3.1763,-3.1763,-3.1617,-3.1709,-3.1746,0.0,0.0,0.0,-3.1746,-3.1746,-3.1746,-3.1746,-3.18,-3.18,-3.18,-3.18,-3.18,-3.18,-3.2449,-3.3462,-3.4814,-3.5287,-3.5805,-3.6571,-3.6764,-3.6851,-3.6851,-3.6851,-3.6851,-3.6851,-3.6708,-3.6602,-3.6602,-3.6402,-3.6301,-3.6301,-3.6301,-3.6301,-3.6301,-3.7111,-3.787,-3.8612,-3.9353,-4.0129,-4.0888,-4.0888,-4.0888,-4.0888,-4.0888,-4.0888,-4.094,-4.1543,-4.225,-4.3059,-4.3613,-4.4027,-4.4371,-2.4333,-2.4492,0.0,0.0,0.0,0.0,0.0,0.0,0.0,-2.5803,-2.6572,-2.7015,-2.7015,-2.74,-2.7881,-2.8452,-2.896,-2.9428,-2.9854,-3.007,-3.0076,-2.9902,-2.9902,-2.9918,-2.9946,-2.9946,-2.9989,0.0,0.0,0.0,0.0,0.0,0.0,0.0,-3.0375,0.0,0.0,0.0,-3.0651,-3.0871,-3.0773,-3.0935,-3.123,-3.123,-3.123,-3.123,-3.123,-3.123,-3.123,-3.123,-3.1151,-3.1072,-3.119,-3.123,-3.1269,-3.1312,-3.1445,-3.1555,-3.1555,-3.1576,-3.1617,-3.1617,-3.1709,-3.18,-3.18,0.0,-3.1617,-3.1617,0.0,-3.1617,-3.1617,0.0,0.0,-3.18,-3.18,-3.18,-3.18,-3.1906,-3.2268,-3.3097,-3.3861,-3.4587,-3.533,-3.6004,-3.6385,-3.6385,-3.6385,-3.6385,-3.6385,-3.6343,-3.636,-3.636,-3.6301,-3.6301,-3.6301,-3.6301,-3.6301,-3.6301,-3.7111,-3.787,-3.8612,-3.9353,-4.0129,-4.0888,-4.0888,-4.0888,-4.0888,-4.0888,-4.0888,-4.0888,-4.0974,-4.1457,-4.213,-4.2216,-4.3113,-4.4285,-2.4177,-2.4261,0.0,0.0,0.0,0.0,0.0,0.0,0.0,-2.6381,-2.7214,-2.7727,-2.758,-2.8252,-2.8778,-2.9006,-2.9215,-2.9431,-2.9677,-2.9738,-2.9842,-2.9918,-2.9918,-2.9918,-2.9918,-2.9918,-2.9902,0.0,-2.9946,0.0,0.0,0.0,0.0,0.0,-3.0231,0.0,-3.0417,-3.0359,-3.0443,-3.0651,-3.0609,-3.0773,-3.1032,-3.1151,-3.119,-3.119,-3.119,-3.119,-3.119,-3.119,-3.1072,-3.0992,-3.1151,-3.1072,-3.0975,-3.1218,-3.1329,-3.1363,-3.1479,-3.15,-3.1521,-3.1466,-3.1521,-3.1614,-3.1521,-3.1521,-3.1559,-3.1579,0.0,0.0,0.0,0.0,0.0,0.0,-3.1654,-3.1709,-3.18,-3.18,-3.2076,-3.2817,-3.3197,-3.3697,-3.4473,-3.5232,-3.5663,-3.5663,-3.6059,-3.6301,-3.6301,-3.6301,-3.6301,-3.6301,-3.6301,-3.6301,-3.6301,-3.6301,-3.6301,-3.6301,-3.6628,-3.7198,-3.7974,-3.8715,-3.9474,-4.0215,-4.0681,-4.0888,-4.0888,-4.0888,-4.0888,-4.0888,-4.0888,-4.1078,-4.1388,-4.1819,-4.2388,-4.3078,-2.4455,0.0,0.0,0.0,0.0,0.0,0.0,0.0,-2.6881,-2.6867,-2.77,-2.8259,-2.8045,-2.8821,-2.9321,-2.9198,-2.9289,-2.938,-2.9425,-2.9454,-2.9515,-2.9681,-2.9681,-2.9726,-2.977,-2.977,-2.9814,0.0,0.0,0.0,0.0,0.0,0.0,0.0,0.0,-3.0146,-3.0146,0.0,-3.03,-3.0443,-3.0568,-3.0733,-3.0912,-3.1112,-3.119,-3.119,-3.119,-3.119,-3.119,-3.119,-3.1072,-3.0952,-3.1151,-3.1032,-3.0855,-3.1157,-3.1252,-3.123,-3.1346,-3.1402,-3.1385,-3.1291,-3.1368,-3.1423,-3.1351,-3.1406,-3.1445,-3.1504,-3.1483,0.0,0.0,0.0,-3.1517,-3.1559,0.0,-3.1596,-3.1688,-3.1726,-3.1952,-3.2541,-3.2783,-3.3128,-3.3697,-3.4438,-3.4887,-3.4887,-3.5387,-3.5697,-3.5697,-3.5887,-3.6008,-3.6008,-3.6197,-3.6301,-3.6301,-3.6301,-3.6301,-3.6301,-3.6301,-3.6715,-3.7508,-3.8249,-3.8991,-3.9733,-4.0543,-4.0888,-4.0888,-4.0888,-4.0888,-4.0888,-4.0888,-4.0888,-4.094,-4.1492,-4.1819,-4.2147,-2.554,-2.5259,0.0,0.0,0.0,0.0,0.0,-2.6872,-2.7303,-2.7303,-2.7919,-2.8365,-2.8365,-2.8685,-2.8904,-2.8904,-2.9319,-2.9499,-2.9305,-2.9348,-2.9303,-2.9121,-2.9121,-2.9259,-2.9515,-2.9515,-2.9621,-2.9918,0.0,0.0,0.0,0.0,0.0,0.0,-2.9989,-2.9842,-2.956,-3.0097,-3.0241,-3.0231,-3.0692,-3.0912,-3.0912,-3.1112,-3.119,-3.119,-3.119,-3.119,-3.119,-3.119,-3.1112,-3.1015,-3.1151,-3.1112,-3.1015,-3.1151,-3.119,-3.119,-3.1055,-3.1112,-3.119,-3.119,-3.1252,-3.1351,-3.1462,-3.1406,-3.1295,-3.1295,-3.1295,-3.1295,-3.1295,-3.1406,-3.1517,-3.1517,-3.1517,0.0,0.0,-3.1559,-3.1671,-3.1834,-3.2472,-3.2921,-3.2938,-3.3645,-3.4128,-3.4128,-3.4145,-3.4162,-3.4162,-3.4835,-3.5232,-3.5232,-3.5921,-3.6301,-3.6301,-3.6301,-3.6301,-3.6301,-3.6301,-3.6715,-3.7508,-3.8249,-3.8991,-3.9733,-4.0543,-4.0888,-4.0888,-4.0888,-4.0888,-4.0888,-4.0888,-4.0888,-4.0888,-4.0905,-4.1371,-4.1992,-2.5615,0.0,0.0,0.0,0.0,-2.6963,-2.7579,-2.7745,-2.7753,-2.7753,-2.8112,-2.8348,-2.8152,-2.8381,-2.8525,-2.8462,-2.859,-2.8685,-2.8764,-2.8795,-2.8889,-2.9075,-2.9075,-2.9121,-2.9213,-2.9259,-2.9305,-2.9486,-2.9486,0.0,0.0,0.0,0.0,0.0,0.0,-2.9766,0.0,-2.975,-2.9793,-2.9689,-2.9924,-3.0156,-3.0368,-3.0814,-3.0992,-3.1032,-3.1151,-3.119,-3.119,-3.119,-3.1072,-3.0935,-3.1151,-3.0935,-3.0733,-3.1112,-3.1112,-3.1032,-3.1112,-3.1151,-3.119,-3.1112,-3.1055,-3.1015,-3.0975,-3.0895,-3.0797,-3.0878,-3.0958,-3.1055,-3.1078,-3.1213,-3.1308,-3.1351,-3.1351,-3.1406,0.0,-3.1559,-3.1671,-3.1783,-3.2024,-3.2162,-3.2162,-3.2852,-3.33,-3.33,-3.3783,-3.4093,-3.4093,-3.4335,-3.468,-3.518,-3.5439,-3.5801,-3.6301,-3.6301,-3.6301,-3.6301,-3.6301,-3.6439,-3.6749,-3.8008,-3.8732,-3.9026,-4.0319,-4.0888,-4.0888,-4.0888,-4.0888,-4.0888,-4.0888,-4.0888,-4.0888,-4.0888,-4.1043,-4.1319,-2.6303,0.0,0.0,-2.6174,-2.669,-2.7425,-2.8027,-2.7989,-2.7855,-2.7855,-2.7989,-2.813,-2.8188,-2.8419,-2.8595,-2.8753,-2.8854,-2.8989,-2.9107,-2.894,-2.8914,-2.9218,-2.8983,-2.8889,-2.8982,-2.8982,-2.9029,-2.9213,-2.9213,-2.9259,0.0,0.0,0.0,0.0,0.0,-2.9454,-2.9273,-2.9499,-2.9438,-2.9332,-2.9467,-2.9661,-2.9881,-3.0241,-3.0468,-3.0593,-3.0838,-3.0838,-3.0716,-3.0716,-3.0634,-3.0551,-3.0838,-3.0757,-3.0593,-3.1055,-3.1112,-3.1032,-3.1112,-3.1112,-3.1112,-3.1015,-3.0975,-3.0912,-3.079,-3.0692,-3.0651,-3.0651,-3.0692,-3.0773,-3.0814,-3.0975,-3.1112,-3.1157,-3.1235,-3.1312,0.0,-3.1521,-3.1596,-3.1709,-3.1746,-3.18,-3.18,-3.2231,-3.2507,-3.2507,-3.299,-3.3266,-3.3266,-3.3524,-3.4007,-3.4766,-3.5059,-3.5542,-3.6284,-3.6301,-3.6301,-3.6301,-3.6301,-3.6301,-3.6353,-3.7887,-3.8594,-3.8681,-4.0215,-4.0888,-4.0888,-4.0888,-4.0888,-4.0888,-4.0888,-4.0888,-4.0888,-4.0888,-4.0888,-4.0991,-2.7575,-2.7575,-2.743,-2.6752,-2.7156,-2.7625,-2.767,-2.767,-2.767,-2.767,-2.77,-2.7904,-2.8532,-2.8711,-2.9102,-2.975,-3.0046,-3.0188,-3.0188,-2.971,-2.9443,-2.9412,-2.8796,-2.8523,-2.8685,-2.8685,-2.8826,-2.9075,-2.9075,0.0,0.0,0.0,0.0,0.0,-2.9091,0.0,-2.8732,-2.9243,-2.9319,-2.9074,-2.9287,-2.9422,-2.9528,-2.9422,-2.9601,-2.9968,-3.0351,-3.0182,-2.9793,-2.9793,-2.9793,-2.9881,-3.0309,-3.0477,-3.0559,-3.1015,-3.1151,-3.1112,-3.0975,-3.0935,-3.0935,-3.0935,-3.0935,-3.0895,-3.0831,-3.0831,-3.0733,-3.0468,-3.0426,-3.0426,-3.0468,-3.0692,-3.0871,-3.0912,-3.1072,-3.123,-3.1274,-3.1406,-3.15,-3.1579,-3.1709,-3.18,-3.18,-3.18,-3.18,-3.18,-3.18,-3.18,-3.18,-3.2455,-3.3214,-3.4007,-3.4749,-3.549,-3.6232,-3.6284,-3.6301,-3.6301,-3.6301,-3.6301,-3.6353,-3.7853,-3.856,-3.8663,-4.0181,-4.0836,-4.0888,-4.0888,-4.0888,-4.0888,-4.0888,-4.0888,-4.0888,-4.0888,-4.0888,-4.0974,-2.7437,-2.7524,-2.7515,-2.7214,-2.7419,-2.779,-2.8263,-2.8338,-2.8338,-2.8338,-2.8771,-2.8951,-2.8637,-2.9094,-2.9439,-2.9633,-2.978,-2.9925,-3.0046,-3.0036,-2.9833,-2.9443,-2.9258,-2.8919,-2.8493,-2.8493,-2.8589,-2.8716,-2.8716,0.0,-2.8889,0.0,0.0,0.0,0.0,-2.8826,-2.8779,-2.892,-2.8858,-2.8748,-2.8905,-2.8889,-2.8889,-2.9198,-2.9152,-2.9059,-2.975,-2.9881,-2.9793,-2.9793,-2.9793,-2.9793,-2.9924,-2.9968,-3.0011,-3.0097,-3.0156,-3.014,-3.0097,-3.0113,-3.0097,-2.9968,-2.9865,-2.9777,-2.9722,-2.9649,-2.956,-2.947,-2.9572,-2.9733,-2.9924,-3.0309,-3.0675,-3.0871,-3.1072,-3.119,-3.1095,-3.1235,-3.1428,-3.1579,-3.1617,-3.1709,-3.18,-3.18,-3.18,-3.18,-3.18,-3.18,-3.18,-3.1972,-3.2421,-3.3179,-3.3955,-3.4731,-3.5473,-3.6025,-3.6301,-3.6301,-3.6301,-3.6301,-3.6335,-3.7318,-3.8077,-3.8646,-3.9595,-4.0336,-4.0888,-4.0888,-4.0888,-4.0888,-4.0888,-4.0888,-4.0888,-4.0888,-4.0888,-4.0905,-2.775,-2.7631,-2.7578,-2.7824,-2.7682,-2.7658,-2.8098,-2.8412,-2.8592,-2.8472,-2.9107,-2.9549,-2.9445,-2.9828,-3.0283,-3.0639,-3.0749,-3.0913,-3.0967,-3.0785,-3.0606,-3.0289,-2.972,-2.9243,-2.8858,-2.855,-2.8444,-2.8493,-2.8493,-2.8541,-2.8604,0.0,0.0,0.0,0.0,-2.87,-2.8604,-2.8604,-2.8652,-2.8684,-2.8652,-2.8636,0.0,-2.8811,-2.8763,-2.8573,-2.9013,-2.9198,-2.9198,-2.9198,-2.9198,-2.9227,-2.9438,-2.9483,-2.9528,-2.975,-2.9793,-2.9793,-2.9793,-2.9793,-2.9793,-2.9722,-2.9617,-2.9512,-2.9393,-2.9273,-2.9198,-2.9121,-2.9198,-2.9303,-2.947,-2.9881,-3.0309,-3.0692,-3.0912,-3.1032,-3.0992,-3.1157,-3.1334,-3.1466,-3.1521,-3.1596,-3.1709,-3.1763,-3.1763,-3.1688,-3.1763,-3.18,-3.18,-3.18,-3.2145,-3.2886,-3.368,-3.4438,-3.518,-3.5921,-3.6301,-3.6301,-3.6301,-3.6301,-3.6335,-3.7129,-3.7887,-3.8629,-3.937,-4.0146,-4.0888,-4.0888,-4.0888,-4.0888,-4.0888,-4.0888,-4.0888,-4.0888,-4.0888,-4.0888,-2.8163,-2.7839,-2.7676,-2.8329,-2.8025,-2.769,-2.7778,-2.8338,-2.8689,-2.8613,-2.9346,-3.0013,-3.0447,-3.0764,-3.1177,-3.1894,-3.2094,-3.2191,-3.2191,-3.1805,-3.1474,-3.1382,-3.0274,-2.9597,-2.9412,-2.8842,-2.8488,-2.8348,-2.8411,-2.8411,0.0,0.0,0.0,0.0,0.0,0.0,0.0,-2.8444,-2.8556,-2.8747,-2.8493,-2.8493,-2.8589,-2.8444,-2.8411,-2.8411,-2.8411,-2.8411,-2.8411,-2.8411,-2.8411,-2.8493,-2.8873,-2.8997,-2.909,-2.9499,-2.9633,-2.9633,-2.9633,-2.9633,-2.9633,-2.9633,-2.9633,-2.9572,-2.9332,-2.9287,-2.9212,-2.9029,-2.8998,-2.9045,-2.9029,-2.947,-2.9941,-3.0426,-3.0692,-3.0871,-3.0814,-3.1078,-3.1257,-3.1218,-3.1368,0.0,-3.1542,-3.1671,-3.1726,-3.1555,-3.1688,-3.18,-3.18,-3.18,-3.2093,-3.2748,-3.3628,-3.4404,-3.5042,-3.587,-3.6301,-3.6301,-3.6301,-3.6301,-3.6318,-3.7008,-3.7784,-3.8629,-3.9267,-4.006,-4.0888,-4.0888,-4.0888,-4.0888,-4.0888,-4.0888,-4.0888,-4.0888,-4.0888,-4.0888,-2.7763,-2.7891,-2.813,-2.8737,-2.8916,-2.9005,-2.899,-2.9217,-2.9594,-3.0033,-3.0705,-3.1016,-3.0552,-3.12,-3.1664,-3.1826,-3.2038,-3.2191,-3.2191,-3.2235,-3.1967,-3.1413,-3.1166,-3.0535,-2.9443,-2.9304,-2.8916,-2.8235,-2.8348,-2.8348,0.0,0.0,0.0,0.0,0.0,0.0,-2.8589,-2.8684,-2.8684,-2.8636,-2.8573,-2.8493,-2.8444,-2.8411,-2.8411,-2.8411,-2.8411,-2.8411,-2.8411,-2.8411,-2.8411,-2.8396,-2.8493,-2.8541,-2.8525,-2.8621,-2.8668,-2.8668,-2.8668,-2.8668,-2.8668,-2.8668,-2.8668,-2.8621,-2.8573,-2.8573,-2.8573,-2.8541,-2.8541,-2.8573,-2.8748,-2.9227,-2.9793,-3.0384,-3.0651,-3.0651,-3.0359,-3.0855,-3.1078,-3.0747,-3.11,-3.1312,-3.1269,-3.1483,-3.1671,-3.1726,-3.18,-3.18,-3.18,-3.18,-3.1852,-3.199,-3.3352,-3.4145,-3.4283,-3.5628,-3.6301,-3.6301,-3.6301,-3.6301,-3.6301,-3.6439,-3.7267,-3.8594,-3.8732,-3.9577,-4.0888,-4.0888,-4.0888,-4.0888,-4.0888,-4.0888,-4.0888,-4.0888,-4.0888,-4.0888,-2.8107,-2.8327,-2.8752,-2.9398,-2.9333,-2.95,-3.0309,-3.0227,-3.0178,-3.0365,-3.1347,-3.1913,-3.1584,-3.2387,-3.297,-3.3029,-3.3261,-3.3207,-3.2839,-3.2865,-3.2613,-3.1936,-3.1582,-3.1089,-3.0443,-2.9766,-2.9193,-2.8706,-2.8468,-2.825,-2.8103,-2.8235,0.0,0.0,0.0,-2.8493,0.0,-2.8589,-2.8604,-2.8573,-2.8541,-2.8444,-2.8411,-2.8411,-2.8411,-2.8411,-2.8411,-2.8411,-2.8411,-2.8411,-2.8411,-2.8411,-2.8411,-2.8411,-2.8411,-2.8411,-2.8411,-2.8411,-2.8411,-2.8411,-2.8411,-2.8411,-2.8411,-2.8411,-2.8411,-2.8411,-2.8411,-2.8411,-2.8411,-2.8444,-2.8637,-2.8997,-2.9364,-2.9738,-2.9984,-3.007,-2.9793,-3.0393,-3.0781,-3.0584,-3.0861,-3.1095,-3.1112,-3.114,-3.1295,-3.1504,-3.1542,-3.1634,-3.18,-3.1746,-3.1709,-3.18,-3.3283,-3.4093,-3.4093,-3.5559,-3.6301,-3.6301,-3.6301,-3.6301,-3.6301,-3.6301,-3.6922,-3.8043,-3.8422,-3.9232,-4.0302,-4.0716,-4.0888,-4.0888,-4.0888,-4.0888,-4.0888,-4.0888,-4.0888,-4.0888,-2.8742,-2.8813,-2.9243,-3.0174,-2.9864,-2.9965,-3.1453,-3.1228,-3.0884,-3.0785,-3.181,-3.2557,-3.2706,-3.3487,-3.4045,-3.4149,-3.4342,-3.4229,-3.366,-3.349,-3.3167,-3.2628,-3.1967,-3.1536,-3.1382,-3.0243,-2.95,-2.918,-2.871,-2.8324,-2.8069,-2.8492,-2.8587,-2.8449,-2.8563,-2.8583,-2.8525,-2.8444,-2.8444,-2.8541,-2.8444,-2.8411,-2.8411,-2.8411,-2.8411,-2.8411,-2.8411,-2.8411,-2.8411,-2.8411,-2.8411,-2.8411,-2.8411,-2.8411,-2.8411,-2.8411,-2.8411,-2.8411,-2.8411,-2.8411,-2.8411,-2.8411,-2.8411,-2.8411,-2.8411,-2.8411,-2.8411,-2.8411,-2.8411,-2.8444,-2.8637,-2.8779,-2.892,-2.9167,-2.938,-2.9483,-2.9377,-3.0038,-3.0477,-3.0351,-3.0675,-3.0952,-3.1015,-3.0861,-3.0902,-3.1274,-3.1312,-3.1428,-3.1671,-3.1634,-3.1634,-3.1726,-3.3205,-3.3997,-3.3997,-3.5518,-3.6259,-3.6259,-3.6301,-3.6301,-3.6301,-3.6301,-3.6732,-3.7525,-3.8267,-3.9112,-3.9991,-4.0629,-4.0888,-4.0888,-4.0888,-4.0888,-4.0888,-4.0888,-4.0888,-4.0888,-2.9435,-2.9289,-2.9491,-3.0808,-3.0808,-3.1013,-3.2035,-3.2258,-3.2332,-3.2273,-3.2437,-3.2736,-3.3335,-3.3759,-3.3985,-3.4045,-3.4283,-3.4445,-3.4383,-3.3767,-3.3367,-3.3306,-3.2659,-3.2013,-3.1397,-3.0689,-2.9909,-2.918,-2.9235,-2.8897,-2.8217,-2.9541,-2.9853,-2.9269,-2.9319,-2.8981,-2.8396,-2.8411,-2.8411,-2.8396,-2.8411,-2.8411,-2.8411,-2.8411,-2.8411,-2.8411,-2.8411,-2.8411,-2.8411,-2.8411,-2.8411,-2.8411,-2.8411,-2.8411,-2.8411,-2.8411,-2.8411,-2.8411,-2.8411,-2.8411,-2.8411,-2.8411,-2.8411,-2.8411,-2.8411,-2.8411,-2.8411,-2.8411,-2.8411,-2.8444,-2.8637,-2.8653,-2.8842,-2.9454,-2.9425,-2.9335,-2.9289,-3.0011,-3.0351,-2.9924,-3.0468,-3.0952,-3.1151,-3.0773,-3.0733,-3.119,-3.1385,-3.1462,-3.1334,-3.1445,-3.1517,-3.1517,-3.2889,-3.3673,-3.3761,-3.5351,-3.6208,-3.6208,-3.6276,-3.6301,-3.6301,-3.6301,-3.6732,-3.7525,-3.8267,-3.9422,-4.0767,-4.0853,-4.0888,-4.0888,-4.0888,-4.0888,-4.0888,-4.0888,-4.0888,-4.0888,-2.9072,-2.944,-3.0018,-3.1032,-3.1467,-3.2004,-3.2899,-3.305,-3.3245,-3.3649,-3.3694,-3.3784,-3.4053,-3.4678,-3.5044,-3.5184,-3.5416,-3.537,-3.5106,-3.4429,-3.386,-3.3413,-3.2752,-3.2259,-3.1997,-3.1336,-3.0622,-2.9791,-2.9754,-2.9352,-2.8546,-2.9246,-2.9307,-2.8812,-2.8812,-2.8658,-2.8411,-2.8411,-2.8411,-2.8411,-2.8411,-2.8411,-2.8411,-2.8411,-2.8411,-2.8411,-2.8411,-2.8411,-2.8411,-2.8411,-2.8411,-2.8411,-2.8411,-2.8411,-2.8411,-2.8411,-2.8411,-2.8411,-2.8411,-2.8411,-2.8411,-2.8411,-2.8411,-2.8411,-2.8411,-2.8411,-2.8411,-2.8411,-2.8411,-2.8396,-2.8525,-2.8573,-2.8668,-2.8842,-2.8889,-2.8842,-2.8763,-2.9528,-2.9951,-2.9601,-3.0199,-3.0692,-3.0773,-3.0443,-3.0359,-3.0692,-3.0992,-3.119,-3.1252,-3.1329,-3.1368,-3.1308,-3.2832,-3.3656,-3.3656,-3.5283,-3.6079,-3.6079,-3.6208,-3.6251,-3.6251,-3.6259,-3.6973,-3.8163,-3.8456,-3.9457,-4.0888,-4.0888,-4.0888,-4.0888,-4.0888,-4.0888,-4.0888,-4.0888,-4.0888,-4.0888,-2.9402,-2.9789,-3.0439,-3.1449,-3.1926,-3.2532,-3.3617,-3.3784,-3.4023,-3.4696,-3.4771,-3.4771,-3.4771,-3.5368,-3.5752,-3.5894,-3.6085,-3.6075,-3.5738,-3.4953,-3.4245,-3.3737,-3.2859,-3.2398,-3.2398,-3.172,-3.1098,-3.0532,-3.0441,-2.9946,-2.8991,-2.9057,-2.8966,-2.8704,-2.8704,-2.8596,-2.8411,-2.8411,-2.8411,-2.8411,-2.8411,-2.8411,-2.8411,-2.8411,-2.8411,-2.8411,-2.8411,-2.8411,-2.8411,-2.8411,-2.8411,-2.8411,-2.8411,-2.8411,-2.8411,-2.8411,-2.8411,-2.8411,-2.8411,-2.8411,-2.8411,-2.8411,-2.8411,-2.8411,-2.8411,-2.8411,-2.8411,-2.8411,-2.8411,-2.8411,-2.8411,-2.8493,-2.8541,-2.8444,-2.8493,-2.8541,-2.8444,-2.909,-2.9572,-2.9406,-2.9924,-3.0384,-3.0609,-3.0316,-3.0274,-3.0626,-3.0871,-3.1032,-3.1095,-3.1196,-3.1353,-3.1568,-3.2951,-3.3717,-3.3854,-3.5301,-3.6019,-3.6019,-3.6165,-3.6251,-3.6251,-3.6259,-3.7008,-3.8284,-3.8491,-3.9336,-4.056,-4.0784,-4.0888,-4.0888,-4.0888,-4.0888,-4.0888,-4.0888,-4.0888,-4.0888,-3.0746,-3.0542,-3.0732,-3.2119,-3.2119,-3.2515,-3.4226,-3.4472,-3.4711,-3.54,-3.5489,-3.5489,-3.5489,-3.5589,-3.5688,-3.5688,-3.6006,-3.6196,-3.6196,-3.5139,-3.4475,-3.446,-3.3136,-3.2398,-3.2398,-3.172,-3.1382,-3.1366,-3.1366,-3.0705,-2.9412,-2.9412,-2.9412,-2.9396,-2.9396,-2.9027,-2.8411,-2.8411,-2.8411,-2.8411,-2.8411,-2.8411,-2.8411,-2.8411,-2.8411,-2.8411,-2.8411,-2.8411,-2.8411,-2.8411,-2.8411,-2.8411,-2.8411,-2.8411,-2.8411,-2.8411,-2.8411,-2.8411,-2.8411,-2.8411,-2.8411,-2.8411,-2.8411,-2.8411,-2.8411,-2.8411,-2.8411,-2.8411,-2.8411,-2.8411,-2.8411,-2.8411,-2.8444,-2.8589,-2.8493,-2.8444,-2.8573,-2.8873,-2.9166,-2.9361,-2.9645,-3.0113,-3.0814,-3.0568,-3.0626,-3.1151,-3.119,-3.1095,-3.0804,-3.1055,-3.1585,-3.2468,-3.3216,-3.3888,-3.4472,-3.5617,-3.6122,-3.6019,-3.6216,-3.6301,-3.6301,-3.6301,-3.6732,-3.7542,-3.8267,-3.9008,-3.9767,-4.056,-4.0888,-4.0888,-4.0888,-4.0888,-4.0888,-4.0888,-4.0888,-4.0888,-2.9754,-3.0089,-3.0541,-3.146,-3.187,-3.262,-3.412,-3.4354,-3.4655,-3.5409,-3.5504,-3.5504,-3.5504,-3.5554,-3.5668,-3.5894,-3.6022,-3.6163,-3.6414,-3.5645,-3.4953,-3.4491,-3.3583,-3.2859,-3.2398,-3.2182,-3.1844,-3.1382,-3.175,-3.1466,-3.0608,-3.0149,-2.9741,-2.9396,-2.8935,-2.8611,-2.8411,-2.8411,-2.8411,-2.8411,-2.8411,-2.8411,-2.8411,-2.8411,-2.8411,-2.8411,-2.8411,-2.8411,-2.8411,-2.8411,-2.8411,-2.8411,-2.8411,-2.8411,-2.8411,-2.8411,-2.8411,-2.8411,-2.8411,-2.8411,-2.8411,-2.8411,-2.8411,-2.8411,-2.8411,-2.8411,-2.8411,-2.8411,-2.8411,-2.8411,-2.8411,-2.8411,-2.8396,-2.8444,-2.846,-2.8396,-2.8444,-2.8889,-2.9182,-2.9074,-2.9483,-2.9853,-2.9984,-3.0087,-3.0189,-3.0368,-3.0568,-3.0773,-3.1055,-3.1269,-3.1703,-3.2354,-3.3206,-3.3972,-3.4635,-3.56,-3.6019,-3.6019,-3.6165,-3.6276,-3.6301,-3.6301,-3.6732,-3.7525,-3.8267,-3.9008,-3.975,-4.056,-4.0888,-4.0888,-4.0888,-4.0888,-4.0888,-4.0888,-4.0888,-4.0888,-2.9915,-3.0275,-3.0784,-3.1392,-3.1871,-3.2556,-3.3696,-3.3905,-3.4192,-3.4986,-3.5052,-3.5133,-3.5439,-3.5504,-3.5554,-3.5797,-3.5925,-3.61,-3.6304,-3.5799,-3.5183,-3.4506,-3.3783,-3.309,-3.2398,-3.2398,-3.2182,-3.1767,-3.1881,-3.1704,-3.1275,-3.0615,-3.0094,-2.9781,-2.935,-2.9027,-2.8781,-2.8781,-2.8642,-2.8411,-2.8411,-2.8411,-2.8411,-2.8411,-2.8411,-2.8411,-2.8411,-2.8411,-2.8411,-2.8411,-2.8411,-2.8411,-2.8411,-2.8411,-2.8411,-2.8411,-2.8411,-2.8411,-2.8411,-2.8411,-2.8411,-2.8411,-2.8411,-2.8411,-2.8411,-2.8411,-2.8411,-2.8411,-2.8411,-2.8411,-2.8411,-2.8411,-2.8411,-2.8411,-2.8411,-2.8396,-2.8444,-2.8811,-2.9029,-2.8904,-2.9212,-2.9483,-2.9528,-2.9677,-2.9941,-3.0251,-3.0326,-3.075,-3.1619,-3.1715,-3.2094,-3.2883,-3.3796,-3.4548,-3.5189,-3.5822,-3.6105,-3.6079,-3.6208,-3.6276,-3.6301,-3.6301,-3.6559,-3.7094,-3.8146,-3.8853,-3.937,-4.044,-4.0888,-4.0888,-4.0888,-4.0888,-4.0888,-4.0888,-4.0888,-4.0888,-3.0986,-3.0986,-3.1185,-3.1869,-3.2015,-3.229,-3.3003,-3.3143,-3.3422,-3.4109,-3.423,-3.4543,-3.5279,-3.5359,-3.5439,-3.5439,-3.5797,-3.5973,-3.6037,-3.5707,-3.523,-3.4506,-3.3829,-3.3136,-3.2413,-3.2398,-3.2398,-3.2398,-3.1767,-3.1459,-3.1443,-3.0797,-3.0489,-3.0489,-3.0443,-3.0074,-2.9489,-2.9489,-2.9089,-2.8473,-2.8473,-2.8442,-2.8411,-2.8411,-2.8411,-2.8411,-2.8411,-2.8411,-2.8411,-2.8411,-2.8411,-2.8411,-2.8411,-2.8411,-2.8411,-2.8411,-2.8411,-2.8411,-2.8411,-2.8411,-2.8411,-2.8411,-2.8411,-2.8411,-2.8411,-2.8411,-2.8411,-2.8411,-2.8411,-2.8411,-2.8411,-2.8411,-2.8411,-2.8411,-2.8411,-2.8444,-2.8573,-2.8621,-2.8668,-2.8873,-2.8904,-2.8997,-2.9332,-2.9361,-2.9761,-3.0625,-3.0477,-3.0917,-3.2303,-3.2242,-3.272,-3.3911,-3.4777,-3.5459,-3.6019,-3.6216,-3.6276,-3.6225,-3.6276,-3.6301,-3.6301,-3.6301,-3.6301,-3.6387,-3.7922,-3.8594,-3.8715,-4.025,-4.0888,-4.0888,-4.0888,-4.0888,-4.0888,-4.0888,-4.0888,-4.0888,-3.0986,-3.0986,-3.1061,-3.1259,-3.1259,-3.1542,-3.2232,-3.2362,-3.2648,-3.3353,-3.3492,-3.3492,-3.3713,-3.4274,-3.461,-3.461,-3.5285,-3.5894,-3.6148,-3.6058,-3.5585,-3.4522,-3.4306,-3.3644,-3.2428,-3.2398,-3.2398,-3.2398,-3.2228,-3.2151,-3.2136,-3.1474,-3.1151,-3.1136,-3.0643,-3.0335,-3.0181,-3.0181,-2.9797,-2.9181,-2.9181,-2.8873,-2.8411,-2.8411,-2.8411,-2.8411,-2.8411,-2.8411,-2.8411,-2.8411,-2.8411,-2.8411,-2.8411,-2.8411,-2.8411,-2.8411,-2.8411,-2.8411,-2.8411,-2.8411,-2.8411,-2.8411,-2.8411,-2.8411,-2.8411,-2.8411,-2.8411,-2.8411,-2.8411,-2.8411,-2.8411,-2.8411,-2.8411,-2.8411,-2.8493,-2.8573,-2.8589,-2.8684,-2.8794,-2.8826,-2.8826,-2.8811,-2.8779,-2.9273,-2.9572,-2.9633,-3.0,-3.0782,-3.21,-3.2631,-3.3355,-3.438,-3.4912,-3.5542,-3.6216,-3.6259,-3.6301,-3.6276,-3.6301,-3.6301,-3.6301,-3.6301,-3.6301,-3.6387,-3.7922,-3.8594,-3.8715,-4.025,-4.0888,-4.0888,-4.0888,-4.0888,-4.0888,-4.0888,-4.0888,-4.0888,-3.0986,-3.0986,-3.0986,-3.0986,-3.0986,-3.1123,-3.1542,-3.1603,-3.1882,-3.2577,-3.272,-3.2861,-3.3143,-3.3561,-3.3837,-3.3837,-3.4927,-3.5752,-3.5943,-3.6133,-3.5814,-3.4833,-3.4321,-3.3629,-3.2875,-3.2204,-3.198,-3.2302,-3.2342,-3.2398,-3.2382,-3.2013,-3.1844,-3.1828,-3.149,-3.1151,-3.0859,-3.0768,-3.0437,-2.9843,-2.9485,-2.9147,-2.8827,-2.8519,-2.8411,-2.8411,-2.8411,-2.8411,-2.8411,-2.8411,-2.8411,-2.8411,-2.8411,-2.8411,-2.8411,-2.8411,-2.8411,-2.8411,-2.8411,-2.8411,-2.8411,-2.8411,-2.8411,-2.8411,-2.8411,-2.8411,-2.8411,-2.8411,-2.8411,-2.8411,-2.8411,-2.8411,-2.8411,-2.8411,-2.8493,-2.8573,-2.8573,-2.8732,-2.8794,-2.8732,-2.8684,-2.8652,-2.8541,-2.8842,-2.9106,-2.9227,-2.9425,-3.0263,-3.2017,-3.2492,-3.3349,-3.4839,-3.5425,-3.5904,-3.6301,-3.6301,-3.6301,-3.6301,-3.6301,-3.6301,-3.6301,-3.6301,-3.6301,-3.637,-3.756,-3.8284,-3.8681,-3.9853,-4.056,-4.0888,-4.0888,-4.0888,-4.0888,-4.0888,-4.0888,-4.0888,-3.0986,-3.0986,-3.0986,-3.0986,-3.0986,-3.0986,-3.0986,-3.0986,-3.1185,-3.1882,-3.1942,-3.216,-3.2804,-3.2946,-3.3003,-3.3003,-3.4514,-3.5479,-3.5544,-3.58,-3.5702,-3.5233,-3.4112,-3.346,-3.3244,-3.1919,-3.1472,-3.2038,-3.2241,-3.2398,-3.2398,-3.2398,-3.2398,-3.2398,-3.2398,-3.2074,-3.1482,-3.1389,-3.1022,-3.0468,-2.9781,-2.948,-2.935,-2.8781,-2.8488,-2.8411,-2.8411,-2.8411,-2.8411,-2.8411,-2.8411,-2.8411,-2.8411,-2.8411,-2.8411,-2.8411,-2.8411,-2.8411,-2.8411,-2.8411,-2.8411,-2.8411,-2.8411,-2.8411,-2.8411,-2.8411,-2.8411,-2.8411,-2.8411,-2.8411,-2.8411,-2.8411,-2.8411,-2.846,-2.8541,-2.8636,-2.8636,-2.8747,-2.8747,-2.8636,-2.8573,-2.8541,-2.8396,-2.8444,-2.8653,-2.9104,-2.8904,-2.9706,-3.1943,-3.2087,-3.3089,-3.5153,-3.5889,-3.6259,-3.6301,-3.6301,-3.6301,-3.6301,-3.6301,-3.6301,-3.6301,-3.6301,-3.6301,-3.6335,-3.7146,-3.7905,-3.8646,-3.9388,-4.0164,-4.0888,-4.0888,-4.0888,-4.0888,-4.0888,-4.0888,-4.0888,-3.0986,-3.0986,-3.0986,-3.0986,-3.0986,-3.0986,-3.0986,-3.0986,-3.1061,-3.1123,-3.1198,-3.1185,-3.1334,-3.1882,-3.229,-3.229,-3.3685,-3.4595,-3.4728,-3.4795,-3.4971,-3.5171,-3.4453,-3.3621,-3.2582,-3.1689,-3.1243,-3.135,-3.1916,-3.2302,-3.2398,-3.2398,-3.2398,-3.2398,-3.2302,-3.2185,-3.2093,-3.2038,-3.1656,-3.1083,-3.1067,-3.0412,-2.9396,-2.9304,-2.8904,-2.8411,-2.8411,-2.8411,-2.8411,-2.8411,-2.8411,-2.8411,-2.8411,-2.8411,-2.8411,-2.8411,-2.8411,-2.8411,-2.8411,-2.8411,-2.8411,-2.8411,-2.8411,-2.8411,-2.8411,-2.8411,-2.8411,-2.8411,-2.8411,-2.8411,-2.8411,-2.8411,-2.8444,-2.8525,-2.8684,-2.8747,-2.8747,-2.8794,-2.8747,-2.8636,-2.8493,-2.8396,-2.8411,-2.8573,-2.8685,-2.8779,-2.8936,-2.9831,-3.1644,-3.1804,-3.2892,-3.511,-3.5654,-3.6002,-3.6301,-3.6301,-3.6301,-3.6301,-3.6301,-3.6301,-3.6301,-3.6301,-3.6301,-3.6335,-3.7146,-3.7905,-3.8646,-3.9388,-4.0164,-4.0888,-4.0888,-4.0888,-4.0888,-4.0888,-4.0888,-4.0888,-3.0986,-3.0986,-3.0986,-3.0986,-3.0986,-3.0986,-3.0986,-3.0986,-3.0986,-3.0986,-3.0986,-3.0986,-3.0986,-3.1334,-3.1542,-3.1542,-3.2101,-3.272,-3.3199,-3.4447,-3.5344,-3.5643,-3.4347,-3.2863,-3.1151,-3.0746,-3.054,-3.0556,-3.128,-3.175,-3.1859,-3.2213,-3.2342,-3.2302,-3.2247,-3.2135,-3.2094,-3.2094,-3.1967,-3.1702,-3.1389,-3.0975,-3.0443,-3.0089,-2.9535,-2.895,-2.895,-2.8719,-2.8411,-2.8411,-2.8411,-2.8411,-2.8411,-2.8411,-2.8411,-2.8411,-2.8411,-2.8488,-2.8842,-2.895,-2.9042,-2.9396,-2.9489,-2.9489,-2.9489,-2.9489,-2.9489,-2.9489,-2.9196,-2.895,-2.895,-2.8642,-2.8444,-2.8573,-2.8636,-2.8684,-2.8684,-2.8684,-2.8636,-2.8493,-2.8444,-2.8411,-2.8411,-2.8477,-2.8525,-2.8525,-2.8748,-2.9564,-3.1114,-3.1502,-3.2626,-3.464,-3.5498,-3.6045,-3.6301,-3.6276,-3.6276,-3.6301,-3.6301,-3.6301,-3.6301,-3.6301,-3.6301,-3.6318,-3.668,-3.7284,-3.8043,-3.8784,-3.9543,-4.0284,-4.0716,-4.0888,-4.0888,-4.0888,-4.0888,-4.0888,-3.0986,-3.0986,-3.0986,-3.0986,-3.0986,-3.0986,-3.0986,-3.0986,-3.0986,-3.0986,-3.0986,-3.0986,-3.0986,-3.0986,-3.0986,-3.0986,-3.1123,-3.1542,-3.2304,-3.423,-3.5404,-3.5413,-3.3651,-3.1835,-2.9985,-2.9826,-2.9697,-2.9607,-3.0624,-3.1197,-3.1305,-3.2035,-3.2287,-3.2191,-3.215,-3.2038,-3.1996,-3.1996,-3.2094,-3.2145,-3.168,-3.1428,-3.132,-3.0843,-3.0228,-2.9643,-2.9643,-2.9319,-2.8873,-2.8873,-2.8873,-2.8873,-2.8873,-2.8873,-2.8873,-2.8873,-2.8873,-2.8996,-2.9504,-2.9643,-2.9781,-3.0289,-3.0428,-3.0428,-3.0428,-3.0428,-3.0428,-3.0428,-2.9889,-2.9412,-2.9412,-2.8858,-2.8444,-2.8573,-2.8573,-2.8573,-2.8573,-2.8573,-2.8525,-2.8411,-2.8411,-2.8411,-2.8411,-2.8444,-2.8493,-2.8493,-2.8653,-2.9389,-3.0829,-3.129,-3.2385,-3.4251,-3.5362,-3.6002,-3.6174,-3.6191,-3.6233,-3.6301,-3.6301,-3.6301,-3.6301,-3.6301,-3.6301,-3.6301,-3.6301,-3.6749,-3.7525,-3.8094,-3.887,-3.975,-4.0371,-4.0716,-4.0888,-4.0888,-4.0888,-4.0888,-3.0986,-3.0986,-3.0986,-3.0986,-3.0986,-3.0986,-3.0986,-3.0986,-3.0986,-3.0986,-3.0986,-3.0986,-3.0986,-3.0986,-3.0986,-3.0986,-3.1603,-3.2362,-3.3073,-3.3905,-3.4185,-3.3797,-3.2107,-3.0728,-2.9833,-2.9214,-2.8756,-2.8494,-3.0196,-3.094,-3.0885,-3.1759,-3.2191,-3.2191,-3.194,-3.1898,-3.1996,-3.1996,-3.2094,-3.2191,-3.2281,-3.1951,-3.1382,-3.1336,-3.0905,-3.0351,-3.0351,-3.0268,-3.0274,-3.0274,-3.0274,-3.0274,-3.0274,-3.0274,-3.0274,-3.0274,-3.0274,-3.0289,-3.0335,-3.0351,-3.0366,-3.0412,-3.0428,-3.0428,-3.0428,-3.0428,-3.0428,-3.0428,-2.9889,-2.9412,-2.9412,-2.8858,-2.8444,-2.8573,-2.8573,-2.8573,-2.8573,-2.8573,-2.8525,-2.8411,-2.8411,-2.8411,-2.8411,-2.8573,-2.87,-2.87,-2.8936,-2.969,-3.1094,-3.1223,-3.2189,-3.4251,-3.527,-3.581,-3.5827,-3.6131,-3.6301,-3.6301,-3.6301,-3.6301,-3.6301,-3.6301,-3.6301,-3.6301,-3.6301,-3.6749,-3.7491,-3.7542,-3.8405,-3.9698,-3.9767,-4.0233,-4.0888,-4.0888,-4.0888,-4.0888,-3.0986,-3.0986,-3.0986,-3.0986,-3.0986,-3.0986,-3.0986,-3.0986,-3.0986,-3.0986,-3.0986,-3.0986,-3.0986,-3.0986,-3.0986,-3.0986,-3.1259,-3.1542,-3.1823,-3.2506,-3.2956,-3.3025,-3.1273,-2.9726,-2.8637,-2.8264,-2.7961,-2.7788,-2.9239,-3.0155,-3.0633,-3.1407,-3.1595,-3.1364,-3.1655,-3.1597,-3.1263,-3.1811,-3.2094,-3.2191,-3.2342,-3.2244,-3.2013,-3.2013,-3.1597,-3.1012,-3.1012,-3.0766,-3.0428,-3.0428,-3.0428,-3.0428,-3.0428,-3.0428,-3.0505,-3.0905,-3.1012,-3.1105,-3.1536,-3.1336,-3.112,-3.1551,-3.1643,-3.1643,-3.1643,-3.1643,-3.1643,-3.1643,-3.0797,-3.0043,-3.0043,-2.915,-2.8444,-2.8573,-2.8541,-2.8493,-2.8589,-2.8541,-2.8444,-2.8411,-2.8411,-2.8411,-2.8411,-2.8573,-2.8685,-2.8685,-2.9106,-2.9878,-3.1128,-3.218,-3.3201,-3.4134,-3.4771,-3.5241,-3.5407,-3.5739,-3.5915,-3.5985,-3.6216,-3.6301,-3.6301,-3.6301,-3.6301,-3.6301,-3.6301,-3.6473,-3.6784,-3.7284,-3.7818,-3.8422,-3.9336,-3.9888,-4.0215,-4.0698,-4.0888,-4.0888,-3.0986,-3.0986,-3.0986,-3.0986,-3.0986,-3.0986,-3.0986,-3.0986,-3.0986,-3.0986,-3.0986,-3.0986,-3.0986,-3.0986,-3.0986,-3.0986,-3.0986,-3.1123,-3.1334,-3.146,-3.1778,-3.2263,-3.0435,-2.9011,-2.8104,-2.7745,-2.7495,-2.7286,-2.8568,-2.9377,-2.9869,-3.0631,-3.0807,-3.0524,-3.1087,-3.1161,-3.0837,-3.1682,-3.2094,-3.2191,-3.2342,-3.2342,-3.2176,-3.2176,-3.183,-3.1253,-3.1253,-3.098,-3.06,-3.06,-3.0669,-3.083,-3.083,-3.0937,-3.112,-3.1567,-3.1705,-3.1797,-3.2275,-3.2044,-3.1813,-3.2275,-3.2398,-3.2398,-3.2398,-3.2398,-3.2398,-3.2398,-3.1336,-3.0428,-3.0428,-2.9319,-2.8444,-2.8541,-2.8444,-2.8444,-2.8541,-2.8444,-2.8396,-2.8493,-2.8444,-2.8396,-2.8493,-2.87,-2.8842,-2.8842,-2.9335,-3.0156,-3.1389,-3.2942,-3.3899,-3.4101,-3.4349,-3.4626,-3.4849,-3.5287,-3.5515,-3.5588,-3.5854,-3.5941,-3.5941,-3.5941,-3.6028,-3.6114,-3.6114,-3.6216,-3.6335,-3.6887,-3.7267,-3.7577,-3.8594,-3.9284,-3.9767,-4.0302,-4.0664,-4.0888,-3.0986,-3.0986,-3.0986,-3.0986,-3.0986,-3.0986,-3.0986,-3.0986,-3.0986,-3.0986,-3.0986,-3.0986,-3.0986,-3.0986,-3.0986,-3.0986,-3.0986,-3.1334,-3.2074,-3.1031,-3.0718,-3.1387,-2.9526,-2.847,-2.847,-2.7911,-2.7426,-2.7088,-2.8236,-2.8679,-2.8419,-2.936,-2.9766,-2.9827,-3.0269,-3.0584,-3.0837,-3.1625,-3.2038,-3.2191,-3.2342,-3.212,-3.1667,-3.1667,-3.1379,-3.1014,-3.1014,-3.1014,-3.1014,-3.1014,-3.1306,-3.1667,-3.1667,-3.1992,-3.2382,-3.2398,-3.2398,-3.2398,-3.2398,-3.2398,-3.2398,-3.2398,-3.2398,-3.2398,-3.2398,-3.2398,-3.2398,-3.2398,-3.1336,-3.0428,-3.0428,-2.9319,-2.8411,-2.8411,-2.8411,-2.8411,-2.8411,-2.8411,-2.8493,-2.8685,-2.8525,-2.8493,-2.8685,-2.8936,-2.9075,-2.9075,-2.9592,-3.0506,-3.1931,-3.334,-3.4101,-3.4101,-3.4101,-3.4101,-3.4101,-3.4849,-3.5178,-3.5178,-3.5224,-3.5224,-3.5224,-3.5224,-3.5407,-3.5783,-3.5783,-3.5985,-3.6301,-3.6301,-3.6766,-3.7473,-3.7473,-3.8387,-3.9681,-3.9681,-4.0198,-4.0871,-3.0986,-3.0986,-3.0986,-3.0986,-3.0986,-3.0986,-3.0986,-3.0986,-3.0986,-3.0986,-3.0986,-3.0986,-3.0986,-3.0986,-3.0986,-3.0986,-3.0986,-3.0878,-3.0679,-3.0024,-2.9542,-2.9308,-2.8332,-2.7624,-2.7223,-2.745,-2.7434,-2.7193,-2.7926,-2.8493,-2.8886,-2.9178,-2.9184,-2.8903,-2.9518,-2.978,-2.9794,-3.0524,-3.1014,-3.1379,-3.1422,-3.1096,-3.058,-3.058,-3.0241,-2.9743,-2.9743,-2.9743,-2.9743,-2.9743,-2.9855,-3.0097,-3.0839,-3.1363,-3.1782,-3.2259,-3.2398,-3.2398,-3.2398,-3.2398,-3.2398,-3.2398,-3.2398,-3.2398,-3.2398,-3.2398,-3.2398,-3.2398,-3.1336,-3.0428,-3.0428,-2.9319,-2.8411,-2.8411,-2.8411,-2.8411,-2.8411,-2.8411,-2.8396,-2.8477,-2.8444,-2.8493,-2.8685,-2.8936,-2.9167,-2.9396,-3.0599,-3.1785,-3.2708,-3.3615,-3.4101,-3.4101,-3.4101,-3.4101,-3.4101,-3.4578,-3.4818,-3.4818,-3.5085,-3.5224,-3.5224,-3.5224,-3.527,-3.5362,-3.5362,-3.5453,-3.5543,-3.5543,-3.5678,-3.5932,-3.6535,-3.7131,-3.7786,-3.8367,-3.9238,-4.0043,-3.0986,-3.0986,-3.0986,-3.0986,-3.0986,-3.0986,-3.0986,-3.0986,-3.0986,-3.0986,-3.0986,-3.0986,-3.0986,-3.0986,-3.0986,-3.0986,-3.0777,-3.0411,-2.9836,-2.9248,-2.866,-2.8072,-2.7706,-2.7366,-2.7013,-2.7353,-2.7419,-2.7326,-2.7696,-2.8066,-2.8444,-2.8444,-2.8314,-2.8157,-2.8839,-2.917,-2.9261,-2.9964,-3.0524,-3.0881,-3.0748,-3.0294,-2.9812,-2.9563,-2.9114,-2.8666,-2.8666,-2.8666,-2.8666,-2.8666,-2.889,-2.9282,-3.0123,-3.0677,-3.1136,-3.1797,-3.1982,-3.2044,-3.2321,-3.2398,-3.2398,-3.2398,-3.2398,-3.2398,-3.2398,-3.2398,-3.2321,-3.2044,-3.1151,-3.0351,-3.0074,-2.9135,-2.8411,-2.8411,-2.8411,-2.8411,-2.8411,-2.8411,-2.8444,-2.8525,-2.8444,-2.8493,-2.8685,-2.8842,-2.9232,-2.9902,-3.1099,-3.2208,-3.3048,-3.3744,-3.4101,-3.4101,-3.4101,-3.4101,-3.4101,-3.4349,-3.4448,-3.4448,-3.4675,-3.4754,-3.4754,-3.4754,-3.4849,-3.5008,-3.5008,-3.5085,-3.5224,-3.5224,-3.5224,-3.5258,-3.5929,-3.6451,-3.6985,-3.7615,-3.8448,-3.9301,-3.0986,-3.0986,-3.0986,-3.0986,-3.0986,-3.0986,-3.0986,-3.0986,-3.0986,-3.0986,-3.0986,-3.0986,-3.0986,-3.0986,-3.0986,-3.0986,-3.0464,-2.9889,-2.9314,-2.8712,-2.8124,-2.7562,-2.7523,-2.7523,-2.7523,-2.7523,-2.7523,-2.7523,-2.7523,-2.7523,-2.7523,-2.7523,-2.7523,-2.7523,-2.817,-2.8688,-2.9099,-2.9856,-3.0404,-3.0659,-3.0148,-2.9697,-2.9173,-2.8598,-2.804,-2.7607,-2.7607,-2.7607,-2.7666,-2.7666,-2.821,-2.899,-2.9552,-3.0007,-3.0458,-3.1105,-3.1305,-3.1428,-3.2044,-3.2213,-3.2213,-3.2213,-3.2213,-3.2244,-3.2367,-3.2336,-3.2136,-3.152,-3.0828,-3.0151,-2.952,-2.8858,-2.8411,-2.8411,-2.8411,-2.8411,-2.8411,-2.8411,-2.8493,-2.8653,-2.8525,-2.8493,-2.8685,-2.8732,-2.925,-3.0575,-3.1246,-3.2031,-3.3031,-3.3711,-3.405,-3.405,-3.4101,-3.4101,-3.4101,-3.4101,-3.4101,-3.4101,-3.4101,-3.4101,-3.4101,-3.4101,-3.43,-3.4643,-3.4643,-3.4818,-3.5085,-3.5085,-3.5085,-3.5131,-3.5498,-3.6084,-3.6769,-3.7178,-3.7809,-3.8594,-3.0986,-3.0986,-3.0986,-3.0986,-3.0986,-3.0986,-3.0986,-3.0986,-3.0986,-3.0986,-3.0986,-3.0986,-3.0986,-3.0986,-3.0986,-3.0986,-3.0464,-2.9889,-2.9314,-2.8712,-2.8124,-2.7562,-2.7523,-2.7523,-2.7523,-2.7523,-2.7523,-2.7523,-2.7523,-2.7523,-2.7523,-2.7523,-2.7523,-2.7523,-2.8,-2.8392,-2.8716,-2.9149,-2.9526,-2.978,-2.9231,-2.8632,-2.8078,-2.7428,-2.6821,-2.6301,-2.6301,-2.6301,-2.6356,-2.6671,-2.7142,-2.7705,-2.8711,-2.9307,-2.9766,-3.0443,-3.0628,-3.0674,-3.0812,-3.0843,-3.0843,-3.0843,-3.0843,-3.112,-3.2151,-3.1982,-3.1567,-3.1413,-3.0443,-2.9581,-2.9443,-2.8858,-2.8411,-2.8411,-2.8411,-2.8411,-2.8411,-2.8411,-2.8396,-2.8444,-2.846,-2.8493,-2.8685,-2.8889,-2.9596,-3.0956,-3.1227,-3.1861,-3.3165,-3.3578,-3.3797,-3.3797,-3.4,-3.4101,-3.4101,-3.4101,-3.4101,-3.4101,-3.4101,-3.4101,-3.4101,-3.4101,-3.4151,-3.425,-3.425,-3.4284,-3.4333,-3.4333,-3.4333,-3.4333,-3.4415,-3.4949,-3.5597,-3.566,-3.6542,-3.7836,-3.0986,-3.0986,-3.0986,-3.0986,-3.0986,-3.0986,-3.0986,-3.0986,-3.0986,-3.0986,-3.0986,-3.0986,-3.0986,-3.0986,-3.0869,-3.0607,-3.0059,-2.9483,-2.8895,-2.8307,-2.7837,-2.7536,-2.7523,-2.7523,-2.7523,-2.7523,-2.7523,-2.7523,-2.7523,-2.7523,-2.7523,-2.7523,-2.7523,-2.7523,-2.7736,-2.8,-2.8406,-2.8522,-2.8844,-2.9093,-2.8288,-2.7806,-2.7415,-2.6666,-2.6174,-2.5893,-2.5893,-2.5893,-2.5948,-2.6351,-2.6759,-2.7233,-2.8081,-2.8621,-2.9058,-2.975,-2.9935,-3.0012,-3.0335,-3.0428,-3.0428,-3.0428,-3.0428,-3.0597,-3.1289,-3.1182,-3.0828,-3.0505,-2.9904,-2.9319,-2.8996,-2.8642,-2.8411,-2.8411,-2.8411,-2.8411,-2.8411,-2.8411,-2.8411,-2.8411,-2.8411,-2.8444,-2.8525,-2.8668,-2.9389,-3.0898,-3.1008,-3.1671,-3.323,-3.345,-3.3503,-3.3503,-3.3658,-3.3694,-3.3694,-3.3694,-3.3797,-3.3899,-3.405,-3.4101,-3.4101,-3.4101,-3.4101,-3.4101,-3.4101,-3.4101,-3.4101,-3.4101,-3.4101,-3.4101,-3.43,-3.4626,-3.5008,-3.5362,-3.6435,-3.7837,-3.0986,-3.0986,-3.0986,-3.0986,-3.0986,-3.0986,-3.0986,-3.0986,-3.0986,-3.0986,-3.0986,-3.0986,-3.0986,-3.0986,-3.0764,-3.0176,-2.9614,-2.9026,-2.8412,-2.785,-2.7523,-2.7523,-2.7523,-2.7523,-2.7523,-2.7523,-2.7523,-2.7523,-2.7523,-2.7523,-2.7523,-2.7523,-2.7523,-2.7523,-2.7603,-2.7802,-2.8079,-2.8145,-2.8341,-2.8478,-2.7502,-2.7129,-2.7006,-2.6078,-2.5729,-2.5729,-2.5784,-2.5839,-2.5948,-2.6351,-2.6707,-2.7071,-2.7524,-2.794,-2.8422,-2.8974,-2.9193,-2.9366,-2.9935,-3.0089,-3.0089,-3.0089,-3.0089,-3.0089,-3.0089,-3.0166,-3.0089,-2.952,-2.9319,-2.9073,-2.8504,-2.8411,-2.8411,-2.8411,-2.8411,-2.8411,-2.8411,-2.8411,-2.8411,-2.8411,-2.8411,-2.8411,-2.8411,-2.8411,-2.9064,-3.0596,-3.0756,-3.1451,-3.3055,-3.3187,-3.3256,-3.3256,-3.3256,-3.3309,-3.3309,-3.3309,-3.3398,-3.3642,-3.3848,-3.4,-3.4101,-3.4101,-3.4101,-3.4101,-3.4101,-3.4101,-3.4101,-3.4101,-3.4101,-3.4151,-3.4448,-3.4643,-3.4787,-3.5453,-3.6559,-3.7746,-3.0986,-3.0986,-3.0986,-3.0986,-3.0986,-3.0986,-3.0986,-3.0986,-3.0986,-3.0986,-3.0986,-3.0986,-3.0986,-3.0986,-3.0764,-3.0176,-2.9614,-2.9026,-2.8412,-2.785,-2.7523,-2.7523,-2.7523,-2.7523,-2.7523,-2.7523,-2.7523,-2.7523,-2.7523,-2.7523,-2.7523,-2.7523,-2.7523,-2.7536,-2.7868,-2.8079,-2.8145,-2.8406,-2.8522,-2.8492,-2.7332,-2.6829,-2.6707,-2.5567,-2.5118,-2.5174,-2.5425,-2.5702,-2.5948,-2.6351,-2.6563,-2.6654,-2.7071,-2.7509,-2.7905,-2.7996,-2.829,-2.8565,-2.8658,-2.8673,-2.8673,-2.8673,-2.8673,-2.8673,-2.8673,-2.9135,-2.952,-2.9427,-2.895,-2.8519,-2.8427,-2.8411,-2.8411,-2.8411,-2.8411,-2.8411,-2.8411,-2.8411,-2.8411,-2.8411,-2.8411,-2.8411,-2.8411,-2.8411,-2.8965,-3.0371,-3.0464,-3.105,-3.2431,-3.2827,-3.2951,-3.2951,-3.3203,-3.3309,-3.3309,-3.3309,-3.3309,-3.3346,-3.3398,-3.3642,-3.4101,-3.4101,-3.4101,-3.4101,-3.4101,-3.4101,-3.4101,-3.4101,-3.4101,-3.4101,-3.4151,-3.4399,-3.4739,-3.5131,-3.5807,-3.6544,-3.0986,-3.0986,-3.0986,-3.0986,-3.0986,-3.0986,-3.0986,-3.0986,-3.0986,-3.0986,-3.0986,-3.0986,-3.0986,-3.0699,-3.0281,-2.9706,-2.9118,-2.8529,-2.7941,-2.7667,-2.7523,-2.7523,-2.7523,-2.7523,-2.7523,-2.7523,-2.7523,-2.7523,-2.7523,-2.7523,-2.7523,-2.7523,-2.7523,-2.7523,-2.7669,-2.7736,-2.7802,-2.7934,-2.8,-2.7894,-2.6899,-2.6539,-2.6405,-2.5395,-2.5131,-2.5313,-2.5647,-2.5798,-2.5948,-2.6351,-2.651,-2.6563,-2.6967,-2.7408,-2.779,-2.779,-2.8103,-2.8411,-2.8411,-2.8411,-2.8411,-2.8411,-2.8411,-2.8411,-2.8411,-2.8642,-2.8842,-2.8842,-2.8611,-2.8411,-2.8411,-2.8411,-2.8411,-2.8411,-2.8411,-2.8411,-2.8411,-2.8411,-2.8411,-2.8411,-2.8411,-2.8411,-2.8411,-2.8411,-2.8965,-3.032,-3.0428,-3.0997,-3.2321,-3.2523,-3.2648,-3.2648,-3.2742,-3.2796,-3.2796,-3.2796,-3.292,-3.3058,-3.3058,-3.3309,-3.3642,-3.3642,-3.3642,-3.3658,-3.3797,-3.3848,-3.3899,-3.405,-3.4101,-3.4101,-3.4101,-3.4349,-3.4691,-3.4883,-3.5627,-3.6605]}]]